     2              OBSERVATION DATA    GPS                 RINEX VERSION / TYPE
teqc 2000Feb29 simon 20000627 23:52:29UTC                   PGM / RUN BY / DATE
                                                            COMMENT
L2: 1 -> 1; 150 -> 5; 250 -> 9                              COMMENT
L2: 1 -> 1; 150 -> 5; 250 -> 9                              COMMENT
L2: 1 -> 1; 150 -> 5; 250 -> 9                              COMMENT
L2: 1 -> 1; 150 -> 5; 250 -> 9                              COMMENT
L2: 1 -> 1; 150 -> 5; 250 -> 9                              COMMENT
Original Marker Name: GS06                                  COMMENT
Campaign Name: China Lake April 2000                        COMMENT
4-Character Station Name: GS06                              COMMENT
6-Character Antenna Code: ASHGD3                            COMMENT
Vertical Measurement Point: TGP                             COMMENT
Vertical Offset to Rinex Ref. Point: 0.0640                 COMMENT
Radial Measurement Point: OOH                               COMMENT
Radial Offset to Rinex Ref. Point: 0.1737                   COMMENT
Antenna Height from Field Measurement: 1.1710 m             COMMENT
Additional Antenna Identification Info.:                    COMMENT
The Whopper (700718AB)                                      COMMENT
Original XYZ: -2351168.1600 -4579967.1200 3755354.8900      COMMENT
New XYZ position is based on association with SCEC monument COMMENT
E1F4S5C8+0011. Position of that monument is believed to be  COMMENT
valid to within 1 m horizontally; vertical accuracy         COMMENT
should be no worse than 3-times this value.                 COMMENT
                                                            COMMENT
Revised Rinex header created by UCSD GPS archive for        COMMENT
GSAC on 14-Sep-2001 (2001:257) 21:35:58 GMT                 COMMENT
For assistance contact dagnew@ucsd.edu                      COMMENT
or anderson@python.ucsd.edu                                 COMMENT
                                                            COMMENT
3059 S                                                      MARKER NAME
pana                                                        MARKER NUMBER
DGW US NATIONAL IMAGERY MAPPING AGENCY                      OBSERVER / AGENCY
500 ASHTECH Z-XII3 4J30                                     REC # / TYPE / VERS
113 ASHTECH GEODETIC III                                    ANT # / TYPE
 -2351061.8412 -4579714.7940  3755411.2272                  APPROX POSITION XYZ
        1.0940        0.0000        0.0000                  ANTENNA: DELTA H/E/N
     1     1     0                                          WAVELENGTH FACT L1/2
     7    L1    L2    C1    P1    P2    S1    S2            # / TYPES OF OBSERV
    30                                                      INTERVAL
  2000     5     3    15    24   30.000000                  TIME OF FIRST OBS
  2000     5     3    21    30   30.000000                  TIME OF LAST OBS
                                                            END OF HEADER
 00  5  3 15 24 30.0000000  0  4G 2G26G 4G 7
      2959.49359      1404.34057  19734352.356    19734350.779    19734361.463
       240.000         203.000
      1979.28543                  21723206.992
       227.000          74.000
    -23997.29946                  20182005.537                    20182014.383
       234.000         186.000
      1886.17259       907.69757  18870929.775    18870927.344    18870936.964
       237.000         205.000
 00  5  3 15 25  0.0000000  0  6G 2G26G 4G 7G 8G 9
      7046.27059      4588.74747  19735130.001    19735128.379    19735138.957
       240.000         203.000
     60693.17749     33775.93946  21730972.475    21730971.937    21730984.047
       226.000         173.000
   -173495.01249   -115162.13246  20159740.723    20159739.077    20159750.243
       233.000         185.000
      4657.95159      3067.43847  18871456.744    18871454.822    18871464.603
       237.000         205.000
     58146.29645                  22221710.965
       216.000         138.000
   -112895.48749    -68829.89147  20577179.226    20577176.961    20577187.221
       236.000         188.000
 00  5  3 15 25 29.9990000  0  4G 2G26G 4G 7
     11485.67449      8047.93947  21234937.010    21234935.511    21234946.106
       240.000         203.000
    101873.78949     65864.58746  23237771.570    23237770.977    23237782.544
       226.000         173.000
   -290028.72849   -205967.58846  21636526.887    21636525.814    21636536.850
       234.000         185.000
      7866.89249      5567.84947  20371029.610    20371027.825    20371037.581
       237.000         205.000
 00  5  3 15 25 59.9990000  0  6G 2G26G 4G 7G 8G 9
     16200.18349     11721.50847  21235834.200    21235832.704    21235843.290
       240.000         202.000
    143363.06049     98193.74746  23245666.819    23245666.176    23245677.820
       226.000         173.000
   -406224.44049   -296509.60746  21614415.481    21614414.515    21614425.564
       233.000         186.000
     11432.83349      8346.44947  20371708.177    20371706.458    20371716.233
       238.000         206.000
    271206.47549    193525.30345  23753733.541    23753731.991    23753744.809
       213.000         153.000
   -316492.77449   -227477.06847  22037397.207    22037395.867    22037406.718
       235.000         189.000
 00  5  3 15 26 29.9990000  0  7G 2G26G24G 4G 7G 8G 9
     21189.51349     15609.23047  21236783.691    21236782.216    21236792.787
       240.000         203.000
    185150.06749    130754.89546  23253618.678    23253618.008    23253629.639
       227.000         171.000
   -280748.84155                  24207062.859                    24207075.939
       200.000         138.000
   -522056.01449   -386767.90346  21592373.373    21592372.506    21592383.522
       232.000         186.000
     15353.67149     11401.58447  20372454.314    20372452.639    20372462.413
       238.000         206.000
    358330.35349    261413.94445  23770312.688    23770311.651    23770325.474
       212.000         153.000
   -417702.19449   -306341.52447  22018137.612    22018136.390    22018147.217
       234.000         189.000
 00  5  3 15 26 59.9980000  0  7G 2G26G24G 4G 7G 8G 9
     26341.41149     19623.63347  21237764.141    21237762.660    21237773.203
       239.000         202.000
    227117.68249    163456.79746  23261604.985    23261604.247    23261615.792
       225.000         171.000
   -540268.48549   -386281.54945  24181290.353    24181289.254    24181306.618
       203.000         138.000
   -637629.25649   -476824.91346  21570380.500    21570379.654    21570390.659
       233.000         184.000
     19514.87049     14644.01347  20373246.191    20373244.568    20373254.334
       238.000         207.000
    445500.14049    329338.22945  23786900.590    23786899.074    23786913.367
       214.000         151.000
   -518618.08649   -384977.25047  21998933.919    21998932.759    21998943.625
       235.000         190.000
 00  5  3 15 27 29.9980000  0  7G 2G26G24G 4G 7G 8G 9
     31518.24849     23657.46847  21238749.296    21238747.845    21238758.374
       240.000         202.000
    269127.40849    196191.50546  23269599.259    23269598.475    23269610.011
       224.000         169.000
   -675941.00859   -492000.20055  24155472.922    24155469.820    24155489.409
       209.000         138.000
   -753087.24349   -566792.10946  21548409.455    21548408.721    21548419.733
       231.000         184.000
     23776.89349     17965.00047  20374057.318    20374055.664    20374065.433
       238.000         206.000
    532581.04759    397193.37355  23803471.601    23803470.366    23803483.687
       214.000         148.000
   -619383.46949   -463495.70247  21979758.922    21979757.756    21979768.620
       236.000         190.000
 00  5  3 15 27 59.9980000  0  7G 2G26G24G 4G 7G 8G 9
     36780.75449     27758.05547  21239750.817    21239749.332    21239759.827
       240.000         201.000
    311235.20049    229002.63346  23277612.217    23277611.383    23277622.951
       225.000         170.000
   -811785.01849   -597852.51845  24129622.720    24129621.098    24129638.259
       208.000         142.000
   -868362.92849   -656617.24046  21526473.161    21526472.473    21526483.484
       232.000         184.000
     28198.09249     21410.03047  20374898.718    20374897.057    20374906.826
       239.000         206.000
    619628.51849    465022.35445  23820036.072    23820034.957    23820048.486
       214.000         152.000
   -719932.36049   -541845.45147  21960625.095    21960623.953    21960634.825
       236.000         188.000
 00  5  3 15 28 29.9980000  0  7G 2G26G24G 4G 7G 8G 9
     42144.68749     31937.67747  21240771.635    21240770.120    21240780.607
       240.000         201.000
    353453.32049    261899.71246  23285646.254    23285645.295    23285656.871
       225.000         169.000
   -947782.66349   -703824.57445  24103743.230    24103741.990    24103758.657
       204.000         142.000
   -983437.91149   -746285.98046  21504575.095    21504574.431    21504585.446
       231.000         184.000
     32792.25649     24989.83647  20375772.989    20375771.341    20375781.131
       238.000         207.000
    706655.24749    532835.21045  23836596.931    23836595.724    23836609.200
       213.000         145.000
   -820247.25449   -620012.88047  21941535.889    21941534.701    21941545.601
       235.000         191.000
 00  5  3 15 28 59.9980000  0  7G 2G26G24G 4G 7G 8G 9
     47600.70349     36189.05347  21241810.011    21241808.434    21241818.921
       240.000         202.000
    395768.90649    294872.75446  23293698.746    23293697.760    23293709.370
       226.000         170.000
  -1083941.44849   -809922.17545  24077833.013    24077831.856    24077848.273
       211.000         146.000
  -1098319.44749   -835803.99446  21482713.846    21482713.197    21482724.191
       233.000         184.000
     37547.75149     28695.35747  20376677.992    20376676.340    20376686.152
       238.000         207.000
    793649.00949    600622.43145  23853151.427    23853150.155    23853163.524
       209.000         150.000
   -920335.64449   -698003.82447  21922489.739    21922488.556    21922499.382
       235.000         191.000
 00  5  3 15 29 29.9980000  0  7G 2G26G24G 4G 7G 8G 9
     53181.72849     40537.85147  21242872.192    21242870.548    21242881.017
       241.000         202.000
    438211.44049    327944.70346  23301775.472    23301774.435    23301786.089
       225.000         171.000
  -1220226.28949   -916118.07045  24051898.754    24051897.775    24051914.091
       212.000         149.000
  -1212972.01349   -925143.60246  21460896.225    21460895.537    21460906.504
       234.000         185.000
     42495.40549     32550.61147  20377619.587    20377617.903    20377627.729
       239.000         206.000
    880640.43149    668407.68145  23869705.536    23869704.211    23869717.736
       214.000         152.000
  -1020162.82249   -775791.22347  21903493.330    21903492.140    21903502.983
       237.000         191.000
 00  5  3 15 29 59.9980000  0  7G 2G26G24G 4G 7G 8G 9
     58855.76749     44959.12447  21243952.019    21243950.367    21243960.830
       239.000         202.000
    480745.29849    361087.82246  23309869.490    23309868.460    23309880.195
       225.000         169.000
  -1356667.13549  -1022435.48845  24025934.914    24025933.876    24025950.284
       212.000         149.000
  -1327425.23149  -1014327.85846  21439116.524    21439115.803    21439126.746
       234.000         185.000
     47601.00249     36528.93847  20378591.254    20378589.532    20378599.370
       238.000         207.000
    967594.40949    736163.95245  23886252.490    23886251.136    23886264.424
       208.000         140.000
  -1119759.27149   -853398.83447  21884540.755    21884539.598    21884550.429
       237.000         192.000
 00  5  3 15 30 29.9980000  0  7G 2G26G24G 4G 7G 8G 9
     64626.19749     49455.50047  21245050.241    21245048.520    21245058.982
       240.000         201.000
    523370.41549    394302.04146  23317981.035    23317979.889    23317991.637
       225.000         171.000
  -1493258.75749  -1128870.43645  23999942.452    23999941.248    23999957.764
       212.000         151.000
  -1441673.57749  -1103352.49746  21417375.785    21417375.081    21417385.979
       234.000         185.000
     52865.63449     40631.18747  20379593.168    20379591.427    20379601.264
       238.000         207.000
   1054511.73949    803891.54145  23902792.414    23902791.102    23902804.501
       213.000         151.000
  -1219119.80049   -930822.61547  21865633.109    21865631.945    21865642.748
       236.000         191.000
 00  5  3 15 30 59.9980000  0  7G 2G26G24G 4G 7G 8G 9
     70476.61549     54014.21147  21246163.605    21246161.895    21246172.362
       239.000         202.000
    566066.89049    427571.86946  23326106.029    23326104.900    23326116.759
       225.000         170.000
  -1630015.31749  -1235433.86545  23973918.569    23973917.366    23973933.740
       211.000         150.000
  -1555731.02149  -1192228.37846  21395671.385    21395670.685    21395681.527
       235.000         185.000
     58270.84449     44842.98347  20380621.880    20380620.085    20380629.907
       239.000         207.000
   1141373.02349    871575.42345  23919321.827    23919320.324    23919333.856
       213.000         147.000
  -1318259.03749  -1008073.95447  21846767.590    21846766.416    21846777.264
       235.000         191.000
 00  5  3 15 31 29.9980000  0  7G 2G26G24G 4G 7G 8G 9
     76416.21349     58642.40947  21247293.952    21247292.246    21247302.711
       239.000         201.000
    608840.45749    460901.77246  23334245.583    23334244.541    23334256.457
       225.000         168.000
  -1766925.66649  -1342117.21345  23947865.373    23947864.198    23947880.500
       211.000         148.000
  -1669585.92949  -1280946.44446  21374005.535    21374004.821    21374015.640
       234.000         186.000
     63823.59549     49169.74847  20381678.629    20381676.825    20381686.616
       238.000         207.000
   1228184.77549    939220.85045  23935841.752    23935840.157    23935853.442
       210.000         143.000
  -1417166.14549  -1085144.41347  21827946.195    21827945.036    21827955.861
       234.000         191.000
 00  5  3 15 31 59.9980000  0  7G 2G26G24G 4G 7G 8G 9
     82466.73549     63357.04647  21248445.397    21248443.695    21248454.170
       240.000         201.000
    651709.38149    494305.99746  23342403.531    23342402.373    23342414.263
       225.000         168.000
  -1903965.97549  -1448901.74745  23921787.276    23921786.242    23921802.588
       213.000         148.000
  -1783213.76049  -1369487.57646  21352382.868    21352382.168    21352392.933
       234.000         187.000
     69543.71749     53626.93247  20382767.188    20382765.402    20382775.179
       239.000         207.000
   1314966.16149   1006842.45545  23952355.881    23952354.215    23952367.666
       211.000         145.000
  -1515817.49249  -1162015.58547  21809173.540    21809172.347    21809183.132
       235.000         190.000
 00  5  3 15 32 29.9980000  0  7G 2G26G24G 4G 7G 8G 9
     88647.04449     68172.81247  21249621.541    21249619.857    21249630.325
       239.000         201.000
    694689.03749    527796.48146  23350582.350    23350581.188    23350593.150
       224.000         169.000
  -2041115.19349  -1555771.20245  23895688.675    23895687.595    23895703.905
       212.000         153.000
  -1896593.54149  -1457835.41646  21330807.401    21330806.713    21330817.453
       235.000         187.000
     75447.93449     58227.56747  20383890.785    20383889.019    20383898.776
       239.000         206.000
   1401733.27849   1074453.07945  23968867.211    23968865.559    23968879.081
       207.000         146.000
  -1614192.51449  -1238671.42047  21790453.357    21790452.220    21790463.056
       236.000         191.000
 00  5  3 15 32 59.9980000  0  7G 2G26G24G 4G 7G 8G 9
     94909.31849     73052.44047  21250813.277    21250811.604    21250822.072
       238.000         201.000
    737728.20449    561333.33746  23358772.369    23358771.350    23358783.382
       223.000         168.000
  -2178419.13449  -1662761.20645  23869560.598    23869559.456    23869575.693
       213.000         154.000
  -2009770.95549  -1546025.58247  21309270.459    21309269.759    21309280.471
       235.000         188.000
     81486.19349     62932.64647  20385039.929    20385038.135    20385047.881
       239.000         206.000
   1488435.64549   1142013.12245  23985366.339    23985364.600    23985378.185
       213.000         140.000
  -1712337.41949  -1315147.95247  21771776.962    21771775.877    21771786.694
       236.000         191.000
 00  5  3 15 33 29.9980000  0  7G 2G26G24G 4G 7G 8G 9
    101245.85949     77989.95147  21252019.141    21252017.479    21252027.970
       240.000         201.000
    780815.44249    594907.68046  23366971.734    23366970.707    23366982.734
       224.000         167.000
  -2315883.47949  -1769876.23045  23843401.956    23843400.898    23843417.071
       214.000         151.000
  -2122751.04449  -1634061.98547  21287771.013    21287770.349    21287781.087
       236.000         188.000
     87648.73449     67734.56847  20386212.672    20386210.895    20386220.629
       239.000         206.000
   1575062.82849   1209514.75245  24001851.459    24001849.497    24001862.957
       210.000         148.000
  -1810258.03949  -1391449.71047  21753143.301    21753142.218    21753152.995
       236.000         191.000
 00  5  3 15 33 59.9980000  0  7G 2G26G24G 4G 7G 8G 9
    107690.23849     83011.48547  21253245.530    21253243.868    21253254.374
       239.000         201.000
    823980.95049    628542.98546  23375185.948    23375184.910    23375196.998
       224.000         168.000
  -2453472.61049  -1877088.48145  23817219.517    23817218.507    23817234.705
       215.000         151.000
  -2235498.11049  -1721916.82147  21266315.996    21266315.300    21266326.036
       235.000         189.000
     93966.77449     72657.65447  20387415.051    20387413.242    20387422.960
       240.000         206.000
   1661645.49349   1276981.52945  24018327.458    24018325.775    24018339.368
       210.000         143.000
  -1907919.11049  -1467549.21147  21734559.044    21734557.946    21734568.737
       237.000         192.000
 00  5  3 15 34 29.9980000  0  7G 2G26G24G 4G 7G 8G 9
    114249.53349     88122.56847  21254493.737    21254492.134    21254502.642
       239.000         201.000
    867228.22849    662241.99846  23383415.834    23383414.748    23383426.859
       225.000         168.000
  -2591177.43249  -1984390.93145  23791015.209    23791014.112    23791030.240
       218.000         148.000
  -2348002.55849  -1809582.61147  21244907.183    21244906.441    21244917.154
       236.000         189.000
    100445.24649     77705.74847  20388647.883    20388646.120    20388655.835
       240.000         206.000
   1748187.67649   1344416.79345  24034796.206    24034794.428    24034808.042
       207.000         143.000
  -2005311.87149  -1543439.64447  21716025.877    21716024.748    21716035.527
       237.000         193.000
 00  5  3 15 34 59.9980000  0  8G 2G26G24G 5G 4G 7G 8G 9
    120989.50249     93374.42947  21255776.383    21255774.762    21255785.292
       238.000         200.000
    910619.64949    696053.35846  23391673.176    23391672.007    23391684.089
       225.000         167.000
  -2728929.68649  -2091730.19145  23764801.619    23764800.722    23764816.722
       213.000         150.000
   -480272.25159   -357239.59455  24716906.502    24716905.149    24716919.271
       207.000         142.000
  -2460196.39849  -1897006.36447  21223557.396    21223556.667    21223567.373
       235.000         189.000
    107147.99849     82928.61347  20389923.465    20389921.690    20389931.394
       240.000         206.000
   1834752.95449   1411870.08145  24051269.136    24051267.278    24051280.915
       206.000         138.000
  -2102368.84449  -1619068.42047  21697556.590    21697555.429    21697566.181
       236.000         192.000
 00  5  3 15 35 29.9980000  0  8G 2G26G24G 5G 4G 7G 8G 9
    127897.39249     98757.14047  21257090.980    21257089.345    21257099.887
       238.000         201.000
    954138.92549    729964.32746  23399954.836    23399953.600    23399965.714
       226.000         168.000
  -2866740.50249  -2199115.17245  23738577.020    23738576.197    23738592.238
       211.000         145.000
   -593465.20749   -445442.10045  24695366.617    24695365.333    24695379.340
       206.000         139.000
  -2572089.85749  -1984196.05947  21202264.755    21202264.051    21202274.759
       236.000         189.000
    114059.98449     88314.50947  20391238.838    20391237.068    20391246.757
       240.000         206.000
   1921325.74849   1479329.19245  24067743.367    24067741.593    24067755.632
       207.000         146.000
  -2199101.24549  -1694444.27747  21679149.048    21679147.899    21679158.643
       236.000         193.000
 00  5  3 15 35 59.9980000  0  8G 2G26G24G 5G 4G 7G 8G 9
    135018.94749    104306.34747  21258446.236    21258444.604    21258455.162
       238.000         200.000
    997828.32849    764007.86746  23408268.812    23408267.578    23408279.682
       226.000         165.000
  -3004561.73249  -2306508.28045  23712350.591    23712349.692    23712365.621
       212.000         149.000
   -706721.80749   -533694.20345  24673814.697    24673813.723    24673827.397
       206.000         140.000
  -2683634.98149  -2071114.32347  21181038.429    21181037.722    21181048.414
       235.000         190.000
    121224.90649     93897.49647  20392602.333    20392600.593    20392610.262
       240.000         206.000
   2007948.94749   1546827.73645  24084227.164    24084225.568    24084239.508
       208.000         141.000
  -2295461.25849  -1769529.95747  21660812.302    21660811.224    21660821.978
       237.000         194.000
 00  5  3 15 36 29.9980000  0  8G 2G26G24G 5G 4G 7G 8G 9
    142326.40149    110000.40447  21259836.886    21259835.229    21259845.822
       239.000         200.000
   1041656.43449    798159.48046  23416609.078    23416607.891    23416620.015
       224.000         166.000
  -3142419.27549  -2413929.65445  23686117.155    23686116.249    23686132.068
       211.000         146.000
   -820070.31549   -622017.91045  24652245.348    24652244.297    24652257.932
       209.000         145.000
  -2794857.43549  -2157781.15547  21159873.446    21159872.776    21159883.485
       236.000         190.000
    128612.72249     99654.17447  20394008.260    20394006.521    20394016.189
       240.000         206.000
   2094591.85749   1614341.47245  24100714.620    24100713.103    24100727.359
       208.000         141.000
  -2391475.19149  -1844345.97247  21642541.427    21642540.374    21642551.115
       238.000         194.000
 00  5  3 15 36 59.9980000  0  8G 2G26G24G 5G 4G 7G 8G 9
    149872.92249    115880.73847  21261272.967    21261271.350    21261281.959
       238.000         200.000
   1085672.90149    832457.88746  23424985.333    23424984.152    23424996.184
       225.000         165.000
  -3280257.67749  -2521336.13345  23659887.350    23659886.441    23659902.157
       214.000         147.000
   -933457.57449   -710371.82245  24630668.549    24630667.535    24630681.130
       209.000         144.000
  -2905701.36949  -2244153.03947  21138780.489    21138779.867    21138790.564
       235.000         190.000
    136274.44749    105624.27847  20395466.298    20395464.568    20395474.226
       240.000         206.000
   2181304.87649   1681909.79745  24117215.595    24117214.195    24117228.575
       205.000         141.000
  -2487088.14049  -1918849.52147  21624346.876    21624345.826    21624356.602
       238.000         195.000
 00  5  3 15 37 29.9980000  0  8G 2G26G24G 5G 4G 7G 8G 9
    157645.84749    121937.49247  21262752.155    21262750.539    21262761.173
       237.000         199.000
   1129861.74749    866890.56846  23433394.402    23433393.127    23433405.301
       224.000         166.000
  -3418087.62249  -2628736.04345  23633659.194    23633658.246    23633673.868
       216.000         150.000
  -1046896.47949   -798765.92945  24609081.900    24609080.774    24609094.605
       204.000         138.000
  -3016177.46049  -2330238.28747  21117757.605    21117756.961    21117767.666
       236.000         191.000
    144195.48349    111796.45347  20396973.688    20396971.966    20396981.616
       241.000         206.000
   2268073.16349   1749521.37345  24133727.381    24133725.812    24133739.981
       208.000         140.000
  -2582311.05649  -1993049.15447  21606226.474    21606225.514    21606236.289
       237.000         195.000
 00  5  3 15 37 59.9980000  0  8G 2G26G24G 5G 4G 7G 8G 9
    165659.45949    128181.79447  21264277.136    21264275.536    21264286.184
       238.000         200.000
   1174233.70649    901465.97246  23441838.320    23441836.979    23441849.092
       224.000         164.000
  -3555892.41549  -2736116.31945  23607435.660    23607434.824    23607450.411
       216.000         150.000
  -1160372.85049   -887189.22045  24587488.157    24587486.993    24587500.848
       210.000         138.000
  -3126268.94849  -2416023.84647  21096807.871    21096807.243    21096817.972
       236.000         192.000
    152388.01249    118180.17247  20398532.708    20398531.007    20398540.667
       240.000         206.000
   2354907.82149   1817184.51045  24150251.407    24150250.079    24150264.436
       206.000         141.000
  -2677128.11549  -2066932.54247  21588183.429    21588182.419    21588193.191
       236.000         195.000
 00  5  3 15 38 29.9980000  0  8G 2G26G24G 5G 4G 7G 8G 9
    173920.57149    134618.95947  21265849.213    21265847.617    21265858.304
       238.000         200.000
   1218792.02049    936186.58746  23450317.658    23450316.328    23450328.378
       225.000         166.000
  -3693663.30149  -2843470.17145  23581218.703    23581217.840    23581233.486
       210.000         149.000
  -1273880.42449   -975636.92045  24565888.624    24565887.272    24565901.041
       211.000         140.000
  -3235966.83649  -2501502.69947  21075933.022    21075932.436    21075943.160
       236.000         192.000
    160856.51549    124778.93947  20400144.241    20400142.560    20400152.246
       241.000         207.000
   2441812.94649   1884902.63545  24166789.094    24166787.837    24166802.110
       204.000         142.000
  -2771530.94349  -2140493.14747  21570219.146    21570218.158    21570228.925
       236.000         195.000
 00  5  3 15 38 59.9980000  0  8G 2G26G24G 5G 4G 7G 8G 9
    182416.83649    141239.35247  21267466.041    21267464.469    21267475.186
       238.000         200.000
   1263520.79249    971039.99446  23458829.311    23458828.046    23458840.220
       222.000         165.000
  -3831410.69649  -2950805.71945  23555006.064    23555005.271    23555020.954
       212.000         149.000
  -1387431.67949  -1064118.58645  24544280.725    24544279.293    24544293.014
       209.000         141.000
  -3345281.06149  -2586682.59647  21055131.217    21055130.627    21055141.348
       236.000         193.000
    169586.54049    131581.49447  20401805.568    20401803.896    20401813.596
       241.000         207.000
   2528773.52749   1952663.89145  24183337.219    24183335.954    24183350.427
       205.000         141.000
  -2865530.05149  -2213739.17247  21552331.696    21552330.717    21552341.501
       236.000         195.000
 00  5  3 15 39 29.9980000  0  8G 2G26G24G 5G 4G 7G 8G 9
    191170.39049    148060.23547  21269131.867    21269130.283    21269141.008
       238.000         200.000
   1308438.58149   1006040.70646  23467376.975    23467375.742    23467387.981
       225.000         165.000
  -3969110.15649  -3058103.89745  23528802.606    23528801.891    23528817.571
       212.000         148.000
  -1501004.51049  -1152617.01945  24522668.432    24522667.070    24522680.901
       203.000         137.000
  -3454187.24949  -2671544.53547  21034407.032    21034406.469    21034417.190
       237.000         193.000
    178598.09949    138603.42947  20403520.458    20403518.797    20403528.518
       242.000         207.000
   2615808.95249   2020483.56745  24199899.585    24199898.338    24199912.834
       205.000         140.000
  -2959101.77349  -2286652.17047  21534525.566    21534524.589    21534535.399
       237.000         196.000
 00  5  3 15 39 59.9980000  0  8G 2G26G24G 5G 4G 7G 8G 9
    200197.36249    155094.15547  21270849.691    21270848.127    21270858.868
       238.000         200.000
   1353558.28949   1041198.77246  23475963.033    23475961.844    23475974.116
       222.000         163.000
  -4106743.23749  -3165350.33945  23502611.959    23502611.156    23502626.718
       214.000         148.000
  -1614582.73949  -1241119.57845  24501055.264    24501053.798    24501067.977
       210.000         142.000
  -3562667.07649  -2756074.24047  21013764.010    21013763.447    21013774.159
       236.000         193.000
    187905.29949    145855.73747  20405291.667    20405289.981    20405299.698
       241.000         208.000
   2702932.61649   2088371.95345  24216478.942    24216477.550    24216492.160
       203.000         138.000
  -3052228.05349  -2359218.07247  21516804.239    21516803.254    21516814.030
       238.000         197.000
 00  5  3 15 40 29.9980000  0  8G 2G26G24G 5G 4G 7G 8G 9
    209491.91449    162336.59147  21272618.409    21272616.893    21272627.654
       238.000         200.000
   1398870.62849   1076506.91546  23484585.599    23484584.544    23484596.990
       223.000         165.000
  -4244313.57449  -3272547.88845  23476433.133    23476432.280    23476447.891
       211.000         148.000
  -1728172.39849  -1329631.16545  24479440.334    24479438.640    24479452.686
       216.000         144.000
  -3670724.05849  -2840274.45847  20993201.455    20993200.879    20993211.598
       238.000         194.000
    197500.32249    153332.32347  20407117.602    20407115.924    20407125.648
       242.000         207.000
   2790136.10649   2156322.51145  24233073.324    24233071.975    24233086.634
       205.000         144.000
  -3144913.11649  -2431440.16947  21499166.867    21499165.875    21499176.669
       239.000         197.000
 00  5  3 15 40 59.9980000  0  8G 2G26G24G 5G 4G 7G 8G 9
    219068.22949    169798.57947  21274440.798    21274439.279    21274450.041
       238.000         199.000
   1444386.36649   1111973.59646  23493247.073    23493246.050    23493258.549
       224.000         165.000
  -4381804.93149  -3379683.89145  23450269.232    23450268.464    23450284.045
       212.000         148.000
  -1841759.27549  -1418140.67945  24457825.709    24457823.937    24457837.551
       209.000         132.000
  -3778341.45649  -2924132.13347  20972722.547    20972721.985    20972732.695
       237.000         194.000
    207395.28449    161042.62447  20409000.619    20408998.945    20409008.679
       242.000         207.000
   2877430.92749   2224344.24745  24249685.123    24249683.817    24249698.446
       205.000         144.000
  -3237140.93849  -2503305.97747  21481616.496    21481615.488    21481626.288
       239.000         198.000
 00  5  3 15 41 29.9980000  0  8G 2G26G24G 5G 4G 7G 8G 9
    228921.90249    177476.68547  21276315.979    21276314.429    21276325.212
       238.000         199.000
   1490097.47349   1147592.48946  23501945.773    23501944.661    23501957.290
       222.000         163.000
  -4519219.44049  -3486760.00745  23424120.052    23424119.312    23424134.918
       215.000         151.000
  -1955348.51049  -1506651.80945  24436210.322    24436208.659    24436222.401
       206.000         137.000
  -3885521.75249  -3007649.20747  20952326.818    20952326.247    20952336.939
       237.000         194.000
    217583.60449    168981.52847  20410939.425    20410937.782    20410947.530
       241.000         207.000
   2964809.87849   2292431.54845  24266313.116    24266311.604    24266326.235
       205.000         137.000
  -3328914.56049  -2574817.86247  21464152.521    21464151.530    21464162.335
       238.000         198.000
 00  5  3 15 41 59.9980000  0  8G 2G26G24G 5G 4G 7G 8G 9
    239061.91349    185377.91047  21278245.643    21278244.094    21278254.873
       239.000         199.000
   1536009.51249   1183367.96446  23510682.673    23510681.526    23510694.232
       223.000         165.000
  -4656545.91249  -3593767.51945  23397987.609    23397986.833    23398002.471
       210.000         148.000
  -2068930.80049  -1595157.57845  24414596.558    24414594.825    24414608.711
       214.000         147.000
  -3992253.54649  -3090816.80747  20932016.433    20932015.868    20932026.542
       237.000         194.000
    228072.21249    177154.42447  20412935.396    20412933.754    20412943.503
       242.000         206.000
   3052279.32149   2360589.38244  24282958.224    24282956.561    24282971.134
       197.000         127.000
  -3420223.16549  -2645967.39647  21446777.047    21446776.072    21446786.911
       238.000         198.000
 00  5  3 15 42 29.9980000  0  8G 2G26G24G 5G 4G 7G 8G 9
    249493.52949    193506.35747  21280230.733    21280229.231    21280240.013
       238.000         199.000
   1582124.17149   1219301.30846  23519458.139    23519456.997    23519469.790
       221.000         164.000
  -4793776.98049  -3700700.67645  23371873.274    23371872.545    23371888.184
       210.000         149.000
  -2182501.25749  -1683654.22645  24392985.157    24392983.364    24392997.223
       212.000         144.000
  -4098529.31149  -3173629.04047  20911792.810    20911792.242    20911802.907
       237.000         195.000
    238864.15149    185563.67447  20414989.086    20414987.430    20414997.192
       241.000         206.000
   3139841.75248   2428819.68544  24299620.773    24299619.329    24299633.952
       190.000         116.000
  -3511060.10549  -2716749.40447  21429491.307    21429490.361    21429501.199
       237.000         198.000
 00  5  3 15 42 59.9980000  0  8G 2G26G24G 5G 4G 7G 8G 9
    260236.19649    201877.17947  21282275.005    21282273.560    21282284.365
       238.000         199.000
   1628457.17749   1255404.80946  23528275.125    23528273.998    23528286.830
       222.000         164.000
  -4930891.20349  -3807542.83145  23345781.403    23345780.533    23345796.083
       212.000         150.000
  -2296040.49649  -1772126.50645  24371379.306    24371377.585    24371391.525
       206.000         138.000
  -4204327.84049  -3256069.40547  20891659.966    20891659.428    20891670.099
       237.000         195.000
    249976.70149    194222.76447  20417103.748    20417102.130    20417111.877
       241.000         206.000
                   2497135.52454  24316304.162                    24316317.912
       179.000         102.000
  -3601404.33849  -2787147.48547  21412299.342    21412298.411    21412309.254
       237.000         198.000
 00  5  3 15 43 29.9980000  0  8G 2G26G24G 5G 4G 7G 8G 9
    271278.88049    210481.79147  21284376.467    21284375.000    21284385.827
       238.000         199.000
   1674994.34949   1291667.39246  23537131.043    23537129.902    23537142.766
       223.000         163.000
  -5067897.18749  -3914300.57245  23319709.796    23319709.061    23319724.676
       213.000         151.000
  -2409559.70449  -1860583.16145  24349777.172    24349775.565    24349789.594
       203.000         132.000
  -4309657.39749  -3338144.31747  20871616.362    20871615.865    20871626.541
       237.000         195.000
    261396.96749    203121.63747  20419276.925    20419275.377    20419285.116
       241.000         206.000
                   2565526.19354  24333006.215
       177.000          96.000
  -3691264.91049  -2857168.68547  21395199.428    21395198.500    21395209.346
       238.000         198.000
 00  5  3 15 43 59.9980000  0  8G 2G26G24G 5G 4G 7G 8G 9
    282637.78249    219332.79347  21286538.091    21286536.604    21286547.454
       239.000         199.000
   1721748.46649   1328099.00146  23546028.106    23546027.053    23546039.914
       224.000         165.000
  -5204776.63549  -4020959.74145  23293662.502    23293661.665    23293677.270
       212.000         152.000
  -2523042.77849  -1949011.71145  24328182.103    24328180.437    24328194.644
       214.000         145.000
  -4414499.94049  -3419839.75047  20851665.425    20851664.977    20851675.627
       237.000         195.000
    273139.04349    212271.26847  20421511.423    20421509.861    20421519.601
       241.000         205.000
                   2634002.39053  24349728.996
       171.000          92.000
  -3780624.34649  -2926799.38647  21378194.883    21378193.954    21378204.831
       239.000         198.000
 00  5  3 15 44 29.9980000  0  8G 2G26G24G 5G 4G 7G 8G 9
    294388.45749    228489.07247  21288774.275    21288772.762    21288783.637
       237.000         199.000
   1768791.42549   1364755.69646  23554980.296    23554979.195    23554992.089
       224.000         164.000
  -5341451.67349  -4127459.65645  23267653.993    23267653.200    23267668.786
       213.000         154.000
  -2636414.09549  -2037353.12245  24306608.416    24306606.742    24306621.114
       208.000         146.000
  -4518777.61049  -3501095.02747  20831821.991    20831821.576    20831832.211
       237.000         195.000
    285276.19849    221728.75447  20423821.040    20423819.523    20423829.275
       241.000         206.000
                   2702620.46053  24366486.258
       159.000          77.000
  -3869405.30149  -2995979.33147  21361300.421    21361299.487    21361310.351
       239.000         198.000
 00  5  3 15 44 59.9980000  0  7G 2G26G24G 5G 4G 7G 9
    306433.52249    237874.74047  21291066.460    21291064.947    21291075.832
       238.000         199.000
   1816022.27849   1401558.81946  23563968.113    23563967.051    23563979.901
       222.000         163.000
  -5478017.78149  -4233874.68145  23241666.161    23241665.462    23241681.037
       215.000         153.000
  -2749771.35049  -2125683.51645  24285037.087    24285035.623    24285050.201
       208.000         139.000
  -4622585.62549  -3581984.33647  20812067.975    20812067.547    20812078.186
       237.000         196.000
    297709.10149    231416.69947  20426186.964    20426185.456    20426195.225
       241.000         205.000
  -3957703.88549  -3064783.39847  21344497.758    21344496.823    21344507.683
       239.000         198.000
 00  5  3 15 45 29.9980000  0  7G 2G26G24G 5G 4G 7G 9
    318808.37049    247517.38047  21293421.355    21293419.876    21293430.788
       237.000         198.000
   1863473.25449   1438533.43146  23572997.777    23572996.780    23573009.782
       223.000         164.000
  -5614437.06749  -4340175.32345  23215706.285    23215705.695    23215721.237
       213.000         154.000
  -2863079.14549  -2213975.53245  24263475.430    24263473.947    24263488.332
       210.000         135.000
  -4725886.36849  -3662478.35947  20792410.458    20792410.042    20792420.696
       238.000         196.000
    310471.10849    241361.09147  20428615.492    20428614.020    20428623.813
       241.000         205.000
  -4045482.49349  -3133182.29347  21327793.973    21327793.094    21327803.943
       239.000         198.000
 00  5  3 15 45 59.9980000  0  7G 2G26G24G 5G 4G 7G 9
    331528.86649    257429.36147  21295842.024    21295840.583    21295851.516
       238.000         198.000
   1911156.61549   1475689.15546  23582071.790    23582070.760    23582083.745
       222.000         163.000
  -5750691.22349  -4446347.29845  23189777.976    23189777.353    23189792.776
       215.000         155.000
  -2976321.47549  -2302216.36545  24241926.324    24241924.730    24241939.192
       212.000         147.000
  -4828661.70749  -3742562.98847  20772852.925    20772852.527    20772863.187
       238.000         196.000
    323576.15449    251572.78747  20431109.336    20431107.850    20431117.671
       242.000         205.000
  -4132723.92449  -3201162.61147  21311192.443    21311191.588    21311202.424
       239.000         198.000
 00  5  3 15 46 29.9980000  0  7G 2G26G24G 5G 4G 7G 9
    344565.09249    267587.37447  21298322.854    21298321.360    21298332.313
       237.000         198.000
   1959039.07849   1513000.00545  23591183.626    23591182.581    23591195.666
       222.000         162.000
  -5886808.27149  -4552412.43845  23163875.757    23163875.074    23163890.509
       217.000         155.000
  -3089528.26849  -2390429.59645  24220384.187    24220382.435    24220396.876
       216.000         150.000
  -4930939.59749  -3822259.98447  20753390.069    20753389.662    20753400.336
       237.000         196.000
    336992.18449    262026.80547  20433662.367    20433660.877    20433670.700
       241.000         205.000
  -4219456.82549  -3268746.66547  21294687.765    21294686.868    21294697.661
       240.000         198.000
 00  5  3 15 46 59.9980000  0  7G 2G26G24G 5G 4G 7G 9
    357912.97649    277988.23347  21300862.935    21300861.448    21300872.465
       237.000         198.000
   2007113.07349   1550460.11345  23600331.910    23600330.839    23600344.087
       223.000         162.000
  -6022789.97349  -4658372.08745  23137999.225    23137998.540    23138013.962
       218.000         156.000
  -3202703.67749  -2478618.32745  24198847.620    24198845.966    24198860.584
       206.000         143.000
  -5032721.82849  -3901570.74347  20734021.540    20734021.125    20734031.822
       238.000         196.000
    350713.07549    272718.37647  20436273.447    20436271.919    20436281.749
       242.000         206.000
  -4305683.20249  -3335936.02647  21278279.458    21278278.533    21278289.312
       239.000         198.000
 00  5  3 15 47 29.9980000  0  7G 2G26G24G 5G 4G 7G 9
    371563.37249    288624.81047  21303460.649    21303459.111    21303470.162
       237.000         197.000
   2055366.05349   1588059.66945  23609514.372    23609513.212    23609526.430
       220.000         162.000
  -6158643.17049  -4764231.60145  23112147.128    23112146.462    23112161.842
       217.000         156.000
  -3315856.93549  -2566789.72245  24177315.035    24177313.537    24177328.269
       208.000         137.000
  -5134015.36849  -3980500.71247  20714746.023    20714745.577    20714756.277
       237.000         197.000
    364727.69049    283638.82747  20438940.471    20438938.881    20438948.691
       242.000         206.000
  -4391410.99249  -3402736.87947  21261965.966    21261965.065    21261975.827
       239.000         198.000
 00  5  3 15 47 59.9980000  0  7G 2G26G24G 5G 4G 7G 9
    385514.46849    299495.71147  21306115.548    21306114.003    21306125.108
       237.000         198.000
   2103792.96949   1625794.76945  23618729.872    23618728.700    23618741.892
       220.000         161.000
  -6294367.08049  -4869990.35945  23086319.827    23086319.014    23086334.402
       219.000         158.000
  -3428989.67049  -2654945.30245  24155787.004    24155785.305    24155799.717
       215.000         142.000
  -5234819.84049  -4059049.59047  20695563.584    20695563.096    20695573.810
       238.000         197.000
    379032.30149    294785.25047  20441662.609    20441661.015    20441670.826
       242.000         206.000
  -4476640.23049  -3469149.24947  21245747.403    21245746.474    21245757.224
       240.000         199.000
 00  5  3 15 48 29.9980000  0  7G 2G26G24G 5G 4G 7G 9
    399748.95949    310587.43147  21308824.354    21308822.812    21308833.971
       236.000         198.000
   2152373.10549   1663649.25845  23627974.542    23627973.351    23627986.504
       221.000         161.000
  -6429976.73949  -4975660.12045  23060514.053    23060513.296    23060528.636
       218.000         158.000
  -3542118.93049  -2743098.06145  24134259.413    24134257.748    24134272.118
       212.000         149.000
  -5335150.22149  -4137229.05047  20676471.317    20676470.826    20676481.542
       239.000         197.000
    393607.75349    306142.72047  20444436.299    20444434.692    20444444.493
       242.000         206.000
  -4561386.28449  -3535185.10947  21229620.766    21229619.843    21229630.556
       240.000         199.000
 00  5  3 15 48 59.9980000  0  7G 2G26G24G 5G 4G 7G 9
    414269.29049    321901.89447  21311587.579    21311586.008    21311597.225
       237.000         198.000
   2201105.11549   1701622.09445  23637248.187    23637246.937    23637260.040
       224.000         162.000
  -6565467.93649  -5081237.51145  23034730.870    23034730.101    23034745.465
       220.000         160.000
  -3655242.75949  -2831246.47145  24112732.639    24112730.955    24112745.742
       206.000         142.000
  -5435002.40749  -4215035.89347  20657470.028    20657469.567    20657480.280
       239.000         197.000
    408454.05849    317711.23847  20447261.505    20447259.890    20447269.703
       242.000         206.000
  -4645645.74949  -3600841.81047  21213586.756    21213585.801    21213596.496
       240.000         199.000
 00  5  3 15 49 29.9980000  0  7G 2G26G24G 5G 4G 7G 9
    429063.27549    333429.58547  21314402.869    21314401.276    21314412.514
       237.000         197.000
   2249973.69449   1739701.32245  23646547.822    23646546.519    23646559.586
       223.000         161.000
  -6700850.36149  -5186730.16545  23008968.349    23008967.612    23008982.950
       218.000         159.000
  -3768372.99849  -2919400.00045  24091204.832    24091203.120    24091217.854
       216.000         148.000
  -5534386.29649  -4292477.83047  20638557.837    20638557.411    20638568.127
       239.000         197.000
    423557.25249    329479.92347  20450135.570    20450133.953    20450143.803
       242.000         206.000
  -4729428.98749  -3666127.43047  21197643.309    21197642.382    21197653.045
       240.000         199.000
 00  5  3 15 49 59.9980000  0  7G 2G26G24G 5G 4G 7G 9
    444109.77149    345154.03747  21317266.193    21317264.608    21317275.861
       237.000         197.000
   2298954.25049   1777867.84945  23655868.713    23655867.387    23655880.336
       220.000         161.000
  -6836142.79349  -5292152.65845  22983222.988    22983222.233    22983237.549
       220.000         161.000
  -3881530.73049  -3007574.95845  24069672.096    24069670.256    24069684.750
       217.000         147.000
  -5633320.84949  -4369569.64047  20619731.244    20619730.768    20619741.480
       239.000         197.000
    438894.11949    341430.69247  20453054.098    20453052.495    20453062.365
       242.000         206.000
  -4812755.63149  -3731057.26047  21181786.812    21181785.852    21181796.498
       240.000         199.000
 00  5  3 15 50 29.9980000  0  7G 2G26G24G 5G 4G 7G 9
    459466.96249    357120.59047  21320188.666    21320187.062    21320198.338
       237.000         197.000
   2348101.34849   1816164.09945  23665221.030    23665219.836    23665232.972
       220.000         161.000
  -6971284.78049  -5397457.93545  22957506.286    22957505.478    22957520.784
       218.000         161.000
  -3994658.17449  -3095726.33144  24048144.320    24048142.813    24048157.055
       202.000         131.000
  -5731745.99949  -4446264.51447  20601001.540    20601001.067    20601011.768
       239.000         197.000
    454520.91549    353607.37447  20456027.763    20456026.209    20456036.079
       242.000         206.000
  -4895566.21949  -3795584.96047  21166028.467    21166027.524    21166038.151
       239.000         199.000
 00  5  3 15 50 59.9980000  0  7G 2G26G24G 5G 4G 7G 9
    475122.35749    369319.51447  21323167.897    21323166.281    21323177.552
       237.000         197.000
   2397399.23949   1854577.88745  23674602.177    23674601.038    23674614.113
       221.000         159.000
  -7106286.67749  -5502654.00245  22931816.210    22931815.372    22931830.686
       220.000         161.000
  -4107767.61349  -3183863.57045  24026620.265    24026618.765    24026633.260
       214.000         150.000
  -5829672.12049  -4522570.53647  20582366.777    20582366.302    20582377.014
       240.000         197.000
    470422.97049    365998.54847  20459053.892    20459052.319    20459062.170
       242.000         207.000
  -4977871.60449  -3859718.99547  21150366.258    21150365.309    21150375.952
       240.000         199.000
 00  5  3 15 51 29.9980000  0  7G 2G26G24G 5G 4G 7G 9
    491004.71549    381695.29647  21326190.416    21326188.713    21326199.972
       236.000         197.000
   2446773.30249   1893051.01645  23683997.898    23683996.765    23684009.813
       221.000         162.000
  -7241217.36749  -5607794.61545  22906139.607    22906138.816    22906154.073
       220.000         160.000
  -4220929.89649  -3272041.99245  24005086.631    24005084.922    24005099.594
       217.000         157.000
  -5927168.29649  -4598541.53547  20563813.909    20563813.371    20563824.066
       240.000         197.000
    486527.15449    378547.21847  20462118.503    20462116.890    20462126.733
       242.000         207.000
  -5059741.52549  -3923513.71247  21134786.909    21134785.951    21134796.607
       240.000         199.000
 00  5  3 15 51 59.9980000  0  7G 2G26G24G 5G 4G 7G 9
    507176.03049    394296.24047  21329267.733    21329266.092    21329277.373
       238.000         196.000
   2496282.09449   1931629.11845  23693419.211    23693418.096    23693431.239
       219.000         161.000
  -7376012.65049  -5712829.68345  22880488.775    22880488.001    22880503.242
       219.000         161.000
  -4334083.18749  -3360213.40345  23983554.191    23983552.579    23983567.455
       207.000         136.000
  -6024170.59349  -4674127.69047  20545354.944    20545354.405    20545365.096
       239.000         198.000
    502893.47249    391300.15047  20465232.973    20465231.342    20465241.198
       243.000         207.000
  -5141112.45249  -3986919.59447  21119302.544    21119301.581    21119312.227
       240.000         199.000
 00  5  3 15 52 29.9980000  0  7G 2G26G24G 5G 4G 7G 9
    523640.35449    407125.50947  21332400.900    21332399.239    21332410.539
       236.000         196.000
   2545926.51749   1970312.90045  23702866.504    23702865.255    23702878.406
       220.000         160.000
  -7510665.62849  -5817753.87145  22854865.050    22854864.277    22854879.473
       220.000         161.000
  -4447223.22849  -3448374.56345  23962024.467    23962022.831    23962037.380
       214.000         148.000
  -6120672.41049  -4749323.86547  20526991.203    20526990.677    20527001.348
       240.000         198.000
    519524.27149    404259.16147  20468397.784    20468396.122    20468405.986
       242.000         207.000
  -5221978.46049  -4049932.04447  21103914.307    21103913.288    21103923.913
       240.000         199.000
 00  5  3 15 52 59.9980000  0  7G 2G26G24G 5G 4G 7G 9
    540357.58349    420151.84747  21335582.160    21335580.501    21335591.801
       238.000         197.000
   2595662.99549   2009068.43345  23712331.307    23712329.953    23712343.123
       220.000         161.000
  -7645214.52949  -5922596.95945  22829261.053    22829260.333    22829275.524
       218.000         159.000
  -4560389.86949  -3536556.34245  23940489.688    23940488.020    23940502.746
       213.000         151.000
  -6216712.29249  -4824160.09447  20508715.312    20508714.847    20508725.502
       240.000         198.000
    536377.45449    417391.45247  20471604.854    20471603.216    20471613.110
       242.000         207.000
  -5302378.42949  -4112581.34647  21088614.680    21088613.692    21088624.256
       241.000         199.000
 00  5  3 15 53 29.9980000  0  7G 2G26G24G 5G 4G 7G 9
    557320.42749    433369.57047  21338810.166    21338808.497    21338819.826
       237.000         196.000
   2645480.73249   2047887.27845  23721811.351    23721810.063    23721823.322
       219.000         159.000
  -7779664.24649  -6027362.77645  22803675.849    22803675.243    22803690.443
       216.000         161.000
  -4673590.33449  -3624764.53545  23918948.453    23918946.736    23918961.448
       216.000         149.000
  -6312295.37049  -4898640.36847  20490526.419    20490525.959    20490536.581
       240.000         198.000
    553443.71349    430689.78347  20474852.495    20474850.864    20474860.777
       242.000         208.000
  -5382318.22449  -4174872.06547  21073402.644    21073401.650    21073412.179
       241.000         199.000
 00  5  3 15 53 59.9980000  0  7G 2G26G24G 5G 4G 7G 9
    574525.21449    446775.81147  21342084.109    21342082.532    21342093.852
       237.000         196.000
   2695372.79949   2086764.05545  23731305.610    23731304.361    23731317.634
       219.000         160.000
  -7914016.16649  -6132052.37445  22778109.463    22778108.824    22778123.961
       220.000         160.000
  -4786828.18049  -3713001.86345  23897399.885    23897398.299    23897412.951
       211.000         143.000
  -6407423.30049  -4972765.98147  20472424.168    20472423.694    20472434.277
       241.000         198.000
    570717.29649    444149.66147  20478139.640    20478137.963    20478147.911
       243.000         208.000
  -5461799.95549  -4236805.84647  21058277.780    21058276.775    21058287.278
       241.000         200.000
 00  5  3 15 54 29.9980000  0  7G 2G26G24G 5G 4G 7G 9
    592001.88749    460393.90947  21345409.904    21345408.315    21345419.625
       236.000         195.000
   2745365.83849   2125719.49045  23740819.087    23740817.836    23740831.130
       221.000         160.000
  -8048237.97349  -6236640.60045  22752567.731    22752567.155    22752582.208
       219.000         160.000
  -4900073.48449  -3801244.96145  23875850.099    23875848.456    23875863.190
       219.000         153.000
  -6502064.24449  -5046512.13147  20454414.632    20454414.101    20454424.627
       240.000         198.000
    588226.32049    457792.99647  20481471.498    20481469.857    20481479.852
       241.000         207.000
  -5540792.23749  -4298358.23847  21043246.040    21043245.036    21043255.501
       241.000         200.000
 00  5  3 15 54 59.9980000  0  7G 2G26G24G 5G 4G 7G 9
    609736.95749    474213.36947  21348784.843    21348783.243    21348794.566
       237.000         195.000
   2795442.96149   2164740.44245  23750348.588    23750347.326    23750360.651
       218.000         158.000
  -8182340.84949  -6341136.15545  22727048.630    22727048.092    22727063.119
       219.000         160.000
  -5013339.54149  -3889504.28645  23854296.509    23854294.822    23854309.514
       217.000         152.000
  -6596229.55849  -5119887.66447  20436495.567    20436495.052    20436505.496
       241.000         199.000
    605955.41749    471607.81547  20484845.282    20484843.643    20484853.670
       242.000         207.000
  -5619307.09149  -4359538.60447  21028305.108    21028304.137    21028314.598
       240.000         200.000
 00  5  3 15 55 29.9980000  0  7G 2G26G24G 5G 4G 7G 9
    627731.99549    488235.39547  21352209.280    21352207.651    21352218.965
       236.000         195.000
   2845602.44249   2203825.56545  23759893.679    23759892.504    23759905.843
       219.000         158.000
  -8316320.77449  -6445535.89345  22701552.841    22701552.452    22701567.409
       219.000         160.000
  -5126624.47349  -3977778.26145  23832738.939    23832737.387    23832752.234
       214.000         147.000
  -6689915.56849  -5192889.71847  20418667.687    20418667.172    20418677.592
       241.000         199.000
    623904.30149    485593.89047  20488260.862    20488259.239    20488269.305
       241.000         207.000
  -5697341.31149  -4420344.45747  21013455.645    21013454.697    21013465.164
       240.000         200.000
 00  5  3 15 55 59.9970000  0  7G 2G26G24G 5G 4G 7G 9
    645986.94149    502459.94647  21355683.074    21355681.517    21355692.863
       236.000         195.000
   2895840.04649   2242971.57945  23769453.790    23769452.523    23769465.954
       219.000         158.000
  -8450170.37349  -6549834.10945  22676082.038    22676081.592    22676096.447
       221.000         160.000
  -5239923.60749  -4066063.29645  23811178.802    23811177.275    23811192.234
       217.000         153.000
  -6783116.80049  -5265514.03047  20400932.087    20400931.557    20400941.939
       241.000         199.000
    642071.07149    499749.74847  20491717.861    20491716.289    20491726.414
       242.000         207.000
  -5774890.39849  -4480772.28247  20998698.457    20998697.549    20998708.044
       240.000         200.000
 00  5  3 15 56 29.9970000  0  7G 2G26G24G 5G 4G 7G 9
    664504.25449    516888.94347  21359206.790    21359205.307    21359216.662
       235.000         194.000
   2946156.75249   2282179.23645  23779028.812    23779027.652    23779041.115
       217.000         157.000
  -8583894.79149  -6654034.77145  22650635.049    22650634.563    22650649.352
       220.000         161.000
  -5353243.05149  -4154364.18045  23789614.836    23789613.379    23789628.285
       214.000         145.000
  -6875836.24049  -5337762.90947  20383288.141    20383287.638    20383297.964
       240.000         199.000
    660456.14349    514075.71847  20495216.489    20495214.903    20495225.041
       242.000         207.000
  -5851956.70349  -4540823.90347  20984033.131    20984032.285    20984042.773
       241.000         200.000
 00  5  3 15 56 59.9970000  0  7G 2G26G24G 5G 4G 7G 9
    683290.50249    531527.51247  21362781.857    21362780.306    21362791.666
       237.000         195.000
   2996554.85649   2321450.31745  23788619.240    23788618.189    23788631.750
       217.000         159.000
  -8717480.44949  -6758127.30345  22625214.486    22625213.964    22625228.672
       219.000         160.000
  -5466571.82949  -4242672.35645  23768048.965    23768047.662    23768062.469
       213.000         147.000
  -6968061.70849  -5409626.88147  20365738.149    20365737.696    20365747.991
       240.000         199.000
    679064.25949    528575.48647  20498757.531    20498755.965    20498766.100
       243.000         207.000
  -5928529.20749  -4600490.75747  20969461.859    20969461.021    20969471.470
       241.000         200.000
 00  5  3 15 57 29.9970000  0  7G 2G26G24G 5G 4G 7G 9
    702356.95349    546384.40647  21366410.109    21366408.605    21366419.992
       237.000         195.000
   3047042.20549   2360790.90345  23798226.715    23798225.749    23798239.445
       214.000         156.000
  -8850913.59649  -6862101.03545  22599822.908    22599822.367    22599836.990
       220.000         162.000
  -5579898.73849  -4330979.01245  23746483.590    23746482.309    23746497.092
       218.000         148.000
  -7059780.25849  -5481095.85447  20348284.690    20348284.220    20348294.500
       240.000         199.000
    697904.71849    543256.30147  20502342.789    20502341.251    20502351.369
       242.000         207.000
  -6004595.47249  -4659763.14247  20954986.968    20954986.100    20954996.491
       241.000         200.000
 00  5  3 15 57 59.9970000  0  7G 2G26G24G 5G 4G 7G 9
    721692.36649    561450.89147  21370089.675    21370088.112    21370099.480
       236.000         194.000
   3097604.42949   2400189.88445  23807848.507    23807847.548    23807861.271
       212.000         155.000
  -8984202.88549  -6965962.65145  22574458.657    22574458.127    22574472.696
       218.000         162.000
  -5693234.34949  -4419292.56345  23724916.959    23724915.491    23724930.107
       219.000         154.000
  -7151000.74949  -5552176.72947  20330926.052    20330925.548    20330935.789
       240.000         199.000
    716964.56349    558108.06347  20505969.837    20505968.276    20505978.364
       243.000         207.000
  -6080165.09049  -4718648.52447  20940606.565    20940605.690    20940616.034
       241.000         201.000
 00  5  3 15 58 29.9970000  0  7G 2G26G24G 5G 4G 7G 9
    741287.92949    576720.07847  21373818.592    21373817.070    21373828.482
       236.000         194.000
   3148229.30349   2439637.63845  23817482.148    23817481.227    23817495.048
       213.000         155.000
  -9117354.86449  -7069717.27846  22549120.551    22549120.029    22549134.478
       219.000         163.000
  -5806587.55849  -4507619.70945  23703346.234    23703344.956    23703359.677
       212.000         141.000
  -7241730.33849  -5622875.08647  20313660.778    20313660.263    20313670.507
       240.000         200.000
    736233.00749    573122.37347  20509636.520    20509634.990    20509645.072
       242.000         207.000
  -6155245.52649  -4777152.73747  20926319.284    20926318.382    20926328.653
       242.000         201.000
 00  5  3 15 58 59.9970000  0  7G 2G26G24G 5G 4G 7G 9
    761179.20549    592219.69747  21377603.816    21377602.316    21377613.750
       236.000         193.000
   3198949.25149   2479159.47945  23827133.861    23827133.008    23827146.986
       213.000         154.000
  -9250331.57749  -7173335.37046  22523815.797    22523815.270    22523829.664
       221.000         165.000
  -5919922.07849  -4595932.34545  23681779.498    23681778.208    23681792.697
       221.000         153.000
  -7331931.41249  -5693161.61347  20296496.059    20296495.551    20296505.779
       240.000         200.000
    755743.88249    588325.59147  20513349.379    20513347.836    20513357.914
       242.000         207.000
  -6229799.74549  -4835246.90347  20912132.059    20912131.164    20912141.432
       241.000         201.000
 00  5  3 15 59 29.9970000  0  7G 2G26G24G 5G 4G 7G 9
    781353.09349    607939.53247  21381442.838    21381441.344    21381452.773
       235.000         193.000
   3249747.88249   2518742.67045  23836800.700    23836799.758    23836813.831
       216.000         155.000
  -9383143.56249  -7276825.05646  22498542.277    22498541.855    22498556.220
       222.000         166.000
  -6033250.98949  -4684240.55845  23660213.677    23660212.430    23660227.136
       215.000         152.000
  -7421614.98049  -5763044.89547  20279429.792    20279429.319    20279439.541
       240.000         200.000
    775482.32749    603706.12947  20517105.538    20517103.993    20517114.065
       242.000         206.000
  -6303839.21949  -4892939.97047  20898042.759    20898041.909    20898052.152
       241.000         202.000
 00  5  3 15 59 59.9970000  0  7G 2G26G24G 5G 4G 7G 9
    801801.66049    623873.40047  21385334.127    21385332.648    21385344.099
       237.000         194.000
   3300614.10649   2558378.53045  23846480.276    23846479.350    23846493.425
       215.000         155.000
  -9515796.58049  -7380190.89146  22473299.200    22473298.721    22473313.045
       222.000         167.000
  -6146582.03449  -4772550.42145  23638647.383    23638646.222    23638661.177
       217.000         150.000
  -7510787.36049  -5832529.84147  20262460.805    20262460.361    20262470.589
       240.000         200.000
    795438.58849    619256.40447  20520903.176    20520901.611    20520911.678
       243.000         206.000
  -6377370.66549  -4950237.16647  20884050.172    20884049.316    20884059.572
       241.000         202.000
 00  5  3 16  0 29.9970000  0  7G 2G26G24G 5G 4G 7G 9
    822529.05849    640024.52847  21389278.434    21389277.020    21389288.486
       235.000         193.000
   3351548.68649   2598067.63145  23856172.976    23856172.045    23856186.231
       213.000         157.000
  -9648283.82249  -7483427.52346  22448087.589    22448087.139    22448101.386
       221.000         166.000
  -6259910.64849  -4860858.47945  23617081.651    23617080.536    23617095.364
       220.000         151.000
  -7599442.53949  -5901611.77847  20245590.267    20245589.831    20245600.034
       240.000         201.000
    815614.88249    634978.13047  20524742.640    20524741.108    20524751.170
       242.000         207.000
  -6450388.55349  -5007134.19647  20870155.274    20870154.463    20870164.715
       241.000         202.000
 00  5  3 16  0 59.9970000  0  7G 2G26G24G 5G 4G 7G 9
    843538.32349    656395.30447  21393276.528    21393275.059    21393286.501
       235.000         193.000
   3402551.51149   2637809.90245  23865878.573    23865877.684    23865891.896
       214.000         155.000
  -9780599.84049  -7586530.74546  22422908.540    22422908.146    22422922.313
       223.000         168.000
  -6373233.17149  -4949161.71745  23595517.236    23595516.037    23595530.971
       215.000         155.000
  -7687575.48249  -5970286.76847  20228819.112    20228818.679    20228828.869
       240.000         201.000
    836012.63149    650872.41847  20528624.259    20528622.729    20528632.793
       242.000         206.000
  -6522888.46649  -5063627.60347  20856358.970    20856358.162    20856368.442
       242.000         202.000
 00  5  3 16  1 29.9970000  0  7G 2G26G24G 5G 4G 7G 9
    864827.01949    672983.82047  21397327.698    21397326.239    21397337.701
       237.000         193.000
   3453617.10749   2677601.06445  23875596.184    23875595.257    23875609.522
       215.000         153.000
  -9912744.84349  -7689500.71646  22397762.082    22397761.690    22397775.784
       222.000         168.000
  -6486551.71049  -5037461.86945  23573953.556    23573952.251    23573967.208
       222.000         155.000
  -7775186.71049  -6038555.22847  20212147.190    20212146.809    20212156.971
       240.000         201.000
    856627.47449    666935.86947  20532547.166    20532545.650    20532555.729
       243.000         206.000
  -6594871.59949  -5119718.32147  20842661.035    20842660.212    20842670.489
       242.000         202.000
 00  5  3 16  1 59.9970000  0  7G 2G26G24G 5G 4G 7G 9
    886411.46349    689802.79447  21401435.282    21401433.735    21401445.162
       236.000         193.000
   3504758.41049   2717451.27045  23885328.386    23885327.320    23885341.450
       217.000         154.000
 -10044699.81649  -7792322.63246  22372651.714    22372651.356    22372665.401
       224.000         167.000
  -6599849.67549  -5125746.00545  23552393.808    23552392.464    23552407.373
       217.000         155.000
  -7862258.22549  -6106403.13047  20195578.007    20195577.645    20195587.784
       240.000         201.000
    877474.08649    683179.92347  20536514.197    20536512.683    20536522.777
       243.000         206.000
  -6666320.09049  -5175392.44447  20829064.800    20829064.017    20829074.288
       242.000         203.000
 00  5  3 16  2 29.9970000  0  7G 2G26G24G 5G 4G 7G 9
    908279.61549    706842.81947  21405596.647    21405595.167    21405606.611
       234.000         193.000
   3555959.97549   2757348.41545  23895071.651    23895070.775    23895084.955
       213.000         154.000
 -10176474.69049  -7895004.21646  22347575.634    22347575.289    22347589.311
       222.000         168.000
  -6713139.08949  -5214023.45245  23530835.358    23530834.166    23530849.201
       220.000         158.000
  -7948800.43049  -6173838.57847  20179109.523    20179109.190    20179119.338
       240.000         201.000
    898538.49249    699593.69247  20540522.688    20540521.167    20540531.257
       243.000         206.000
  -6737245.18849  -5230658.71947  20815568.151    20815567.389    20815577.692
       242.000         203.000
 00  5  3 16  2 59.9970000  0  7G 2G26G24G 5G 4G 7G 9
    930448.18749    724116.93647  21409815.311    21409813.809    21409825.234
       234.000         191.000
   3607235.45649   2797303.18545  23904829.190    23904828.251    23904842.395
       213.000         153.000
 -10308050.22249  -7997530.50746  22322537.468    22322537.152    22322551.125
       223.000         167.000
  -6826402.64749  -5302280.70245  23509281.985    23509280.831    23509296.045
       217.000         156.000
  -8034794.75349  -6240847.10347  20162745.332    20162744.991    20162755.156
       240.000         202.000
    919835.52849    716188.72647  20544575.443    20544573.917    20544584.005
       242.000         206.000
  -6807628.46449  -5285502.80047  20802174.636    20802173.876    20802184.185
       241.000         203.000
 00  5  3 16  3 29.9970000  0  7G 2G26G24G 5G 4G 7G 9
    952889.26449    741603.41847  21414085.761    21414084.265    21414095.689
       235.000         191.000
   3658553.70649   2837291.22645  23914594.990    23914593.894    23914608.170
       218.000         154.000
 -10439451.96549  -8099921.35746  22297532.371    22297532.124    22297546.023
       223.000         169.000
  -6939667.81049  -5390539.28945  23487728.462    23487727.204    23487742.411
       221.000         157.000
  -8120267.02749  -6307448.83547  20146480.500    20146480.144    20146490.326
       240.000         202.000
    941335.76149    732942.09947  20548666.817    20548665.331    20548675.413
       242.000         206.000
  -6877496.31949  -5339945.24847  20788879.165    20788878.422    20788888.769
       241.000         203.000
 00  5  3 16  3 59.9970000  0  7G 2G26G24G 5G 4G 7G 9
    975632.99449    759325.72047  21418413.878    21418412.339    21418423.790
       236.000         191.000
   3709941.88249   2877333.76645  23924373.841    23924372.829    23924387.183
       215.000         152.000
 -10570646.97149  -8202151.08446  22272566.663    22272566.399    22272580.286
       224.000         168.000
  -7052903.84349  -5478775.12145  23466180.264    23466179.060    23466194.310
       218.000         155.000
  -8205185.48149  -6373619.02347  20130321.044    20130320.677    20130330.868
       241.000         202.000
    963067.59649    749875.93547  20552802.331    20552800.812    20552810.890
       243.000         205.000
  -6946817.52849  -5393961.74147  20775687.754    20775687.009    20775697.387
       242.000         203.000
 00  5  3 16  4 29.9970000  0  7G 2G26G24G 5G 4G 7G 9
    998674.46149    777280.01747  21422798.626    21422797.047    21422808.519
       233.000         191.000
   3761391.73649   2917424.38945  23934164.635    23934163.559    23934177.918
       216.000         154.000
 -10701637.98049  -8304221.88446  22247639.833    22247639.489    22247653.328
       225.000         169.000
  -7166115.49749  -5566991.95445  23444636.844    23444635.607    23444650.880
       221.000         154.000
  -8289553.32549  -6439360.16647  20114266.438    20114265.998    20114276.199
       241.000         203.000
    985024.20749    766984.92347  20556980.576    20556979.057    20556989.153
       242.000         205.000
  -7015595.65249  -5447555.05747  20762599.745    20762598.958    20762609.353
       242.000         204.000
 00  5  3 16  4 59.9970000  0  7G 2G26G24G 5G 4G 7G 9
   1021994.64249    795451.49947  21427236.347    21427234.802    21427246.299
       234.000         191.000
   3812881.01249   2957545.69145  23943962.752    23943961.769    23943976.222
       214.000         151.000
 -10832441.62049  -8406146.63846  22222748.671    22222748.226    22222762.082
       222.000         169.000
  -7279321.46449  -5655204.39645  23423094.424    23423093.223    23423108.315
       219.000         156.000
  -8373388.05049  -6504685.88447  20098313.250    20098312.769    20098322.962
       241.000         202.000
   1007184.95849    784252.98147  20561197.632    20561196.133    20561206.264
       242.000         204.000
  -7083848.40749  -5500738.99247  20749611.676    20749610.897    20749621.263
       242.000         204.000
 00  5  3 16  5 29.9970000  0  7G 2G26G24G 5G 4G 7G 9
   1045605.24549    813849.29947  21431729.430    21431727.807    21431739.333
       234.000         189.000
   3864418.47849   2997704.54045  23953770.117    23953769.129    23953783.736
       213.000         152.000
 -10963043.48449  -8507914.20446  22197895.775    22197895.378    22197909.236
       223.000         169.000
  -7392509.41149  -5743402.75345  23401555.514    23401554.290    23401569.461
       221.000         154.000
  -8456675.72149  -6569585.32747  20082464.089    20082463.629    20082473.809
       241.000         202.000
   1029559.91649    801687.95747  20565455.524    20565453.983    20565464.114
       242.000         204.000
  -7151562.56449  -5553503.24647  20736726.084    20736725.306    20736735.699
       242.000         205.000
 00  5  3 16  5 59.9970000  0  7G 2G26G24G 5G 4G 7G 9
   1069480.18049    832453.06847  21436272.741    21436271.120    21436282.664
       233.000         189.000
   3915974.97349   3037878.19745  23963581.241    23963580.167    23963594.868
       218.000         152.000
 -11093467.24849  -8609542.98846  22173076.875    22173076.449    22173090.321
       225.000         169.000
  -7505705.08949  -5831607.19145  23380015.147    23380013.902    23380029.026
       222.000         161.000
  -8539440.79349  -6634077.55947  20066714.385    20066713.952    20066724.090
       241.000         202.000
   1052121.43449    819268.29447  20569748.809    20569747.331    20569757.481
       242.000         204.000
  -7218762.99449  -5605867.19847  20723938.293    20723937.476    20723947.895
       242.000         205.000
 00  5  3 16  6 29.9970000  0  7G 2G26G24G 5G 4G 7G 9
   1093655.81349    851291.13947  21440873.229    21440871.628    21440883.276
       233.000         189.000
   3967583.68249   3078092.60845  23973402.343    23973401.235    23973415.843
       215.000         150.000
 -11223674.12549  -8711002.77646  22148299.293    22148298.821    22148312.675
       225.000         170.000
  -7618871.56649  -5919788.80245  23358480.043    23358478.921    23358494.207
       217.000         152.000
  -8621645.41049  -6698133.07047  20051071.321    20051070.904    20051081.033
       241.000         202.000
   1074904.01949    837020.90247  20574084.179    20574082.740    20574092.906
       243.000         205.000
  -7285412.46849  -5657801.82547  20711255.314    20711254.482    20711264.932
       243.000         205.000
 00  5  3 16  6 59.9970000  0  7G 2G26G24G 5G 4G 7G 9
   1118107.22149    870344.09847  21445526.116    21445524.611    21445536.262
       231.000         188.000
   4019216.59349   3118325.84745  23983228.027    23983226.898    23983241.470
       216.000         154.000
 -11353686.65949  -8812311.15646  22123558.705    22123558.207    22123572.001
       225.000         171.000
  -7732033.10949  -6007966.63745  23336946.186    23336945.057    23336960.116
       219.000         160.000
  -8703312.80149  -6761769.96747  20035530.511    20035530.104    20035540.226
       241.000         203.000
   1097881.10949    854925.07047  20578456.659    20578455.189    20578465.358
       242.000         205.000
  -7351534.63849  -5709325.57447  20698672.682    20698671.853    20698682.313
       243.000         205.000
 00  5  3 16  7 29.9970000  0  7G 2G26G24G 5G 4G 7G 9
   1142832.39749    889610.38247  21450231.137    21450229.696    21450241.414
       232.000         188.000
   4070868.42749   3158573.79945  23993057.400    23993056.098    23993070.815
       217.000         155.000
 -11483504.27649  -8913467.63946  22098855.193    22098854.674    22098868.424
       226.000         169.000
  -7845191.40049  -6096141.82545  23315412.727    23315411.692    23315426.902
       220.000         157.000
  -8784443.08749  -6824988.33747  20020091.901    20020091.519    20020101.609
       241.000         202.000
   1121049.11449    872978.00047  20582865.469    20582863.984    20582874.154
       243.000         205.000
  -7417130.17349  -5760438.95747  20686190.293    20686189.450    20686199.897
       244.000         205.000
 00  5  3 16  7 59.9970000  0  7G 2G26G24G 5G 4G 7G 9
   1167848.51349    909103.37646  21454991.484    21454990.149    21455001.905
       232.000         187.000
   4122553.38049   3198847.59445  24002892.879    24002891.667    24002906.323
       212.000         147.000
 -11613107.20149  -9014456.83546  22074192.615    22074192.016    22074205.726
       226.000         170.000
  -7958328.71049  -6184300.80245  23293883.374    23293882.354    23293897.338
       215.000         154.000
  -8865017.48149  -6887773.54947  20004759.080    20004758.694    20004768.787
       241.000         202.000
   1144423.50249    891191.75047  20587313.539    20587312.046    20587322.218
       243.000         206.000
  -7482180.60849  -5811127.59347  20673811.552    20673810.750    20673821.189
       243.000         205.000
 00  5  3 16  8 29.9970000  0  7G 2G26G24G 5G 4G 7G 9
   1193118.26449    928794.00446  21459800.229    21459798.868    21459810.679
       230.000         187.000
   4174231.03449   3239115.64945  24012726.867    24012725.696    24012740.477
       215.000         150.000
 -11742530.49449  -9115306.07646  22049564.213    22049563.554    22049577.197
       225.000         171.000
  -8071481.57049  -6272471.79545  23272351.155    23272350.071    23272365.126
       221.000         159.000
  -8945071.70549  -6950153.43347  19989525.238    19989524.860    19989534.929
       241.000         202.000
   1167965.32249    909535.96847  20591793.466    20591791.974    20591802.150
       243.000         205.000
  -7546722.14349  -5861419.67847  20661529.678    20661528.893    20661539.324
       243.000         205.000
 00  5  3 16  8 59.9970000  0  7G 2G26G24G 5G 4G 7G 9
   1218660.21949    948696.73946  21464660.822    21464659.404    21464671.239
       231.000         187.000
   4225916.96649   3279390.20545  24022562.556    24022561.395    24022576.262
       214.000         147.000
 -11871752.91449  -9215998.79746  22024973.887    22024973.305    22024986.908
       226.000         171.000
  -8184631.10149  -6360640.20445  23250819.467    23250818.373    23250833.589
       218.000         160.000
  -9024585.54649  -7012112.23647  19974394.208    19974393.855    19974403.901
       240.000         202.000
   1191691.44949    928023.81147  20596308.487    20596306.964    20596317.160
       242.000         205.000
  -7610734.60749  -5911299.49947  20649348.502    20649347.704    20649358.121
       243.000         205.000
 00  5  3 16  9 29.9970000  0  7G 2G26G24G 5G 4G 7G 9
   1244515.20649    968843.38246  21469580.843    21469579.481    21469591.327
       232.000         186.000
   4277649.01549   3319700.73045  24032406.848    24032405.790    24032420.860
       210.000         148.000
 -12000731.31149  -9316501.36746  22000430.080    22000429.474    22000443.059
       224.000         172.000
  -8297735.98149  -6448773.82845  23229296.292    23229295.200    23229310.443
       222.000         161.000
  -9103516.54349  -7073616.87747  19959374.100    19959373.751    19959383.777
       241.000         202.000
   1215641.23849    946685.92847  20600866.020    20600864.510    20600874.724
       242.000         205.000
  -7674176.30349  -5960734.56947  20637275.928    20637275.143    20637285.534
       243.000         205.000
 00  5  3 16  9 59.9970000  0  7G 2G26G24G 5G 4G 7G 9
   1270618.24749    989183.33546  21474548.148    21474546.780    21474558.638
       232.000         187.000
   4329359.01749   3359994.07145  24042247.192    24042246.070    24042261.104
       211.000         146.000
 -12129527.81649  -9416862.18246  21975920.920    21975920.248    21975933.824
       226.000         172.000
  -8410860.39449  -6536922.64445  23207769.335    23207768.281    23207783.587
       220.000         158.000
  -9181927.89649  -7134716.60847  19944452.847    19944452.541    19944462.570
       241.000         202.000
   1239748.07749    965470.42847  20605453.402    20605451.944    20605462.173
       243.000         205.000
  -7737111.13549  -6009774.68347  20625299.798    20625299.030    20625309.403
       244.000         206.000
 00  5  3 16 10 29.9970000  0  7G 2G26G24G 5G 4G 7G 9
   1296980.18149   1009725.00546  21479564.713    21479563.338    21479575.248
       228.000         186.000
   4381054.89249   3400276.32845  24052084.749    24052083.636    24052098.744
       210.000         145.000
 -12258129.18549  -9517070.94146  21951448.791    21951448.143    21951461.709
       226.000         173.000
  -8523992.88449  -6625077.79845  23186241.038    23186239.925    23186255.122
       217.000         160.000
  -9259807.28049  -7195401.81247  19929632.856    19929632.561    19929642.597
       241.000         203.000
   1264021.33749    984384.60047  20610072.475    20610071.032    20610081.295
       243.000         205.000
  -7799526.71849  -6058410.18647  20613422.514    20613421.731    20613432.098
       244.000         206.000
 00  5  3 16 10 59.9970000  0  7G 2G26G24G 5G 4G 7G 9
   1323608.28749   1030474.08346  21484631.968    21484630.586    21484642.467
       233.000         186.000
   4432740.79349   3440550.82245  24061920.231    24061919.152    24061934.433
       212.000         151.000
 -12386525.88149  -9617120.22346  21927015.572    21927014.998    21927028.545
       226.000         173.000
  -8637125.89749  -6713233.34846  23164712.552    23164711.408    23164726.672
       221.000         163.000
  -9337146.06749  -7255665.77947  19914915.727    19914915.446    19914925.501
       240.000         203.000
   1288466.39949   1003432.64947  20614724.274    20614722.823    20614733.124
       242.000         205.000
  -7861415.04749  -6106634.84547  20601645.573    20601644.774    20601655.122
       244.000         206.000
 00  5  3 16 11 29.9970000  0  7G 2G26G24G 5G 4G 7G 9
   1350512.77249   1051438.52646  21489751.854    21489750.413    21489762.322
       230.000         186.000
   4484424.12349   3480823.37645  24071755.044    24071754.198    24071769.707
       211.000         151.000
 -12514704.93749  -9716999.90446  21902623.818    21902623.259    21902636.820
       225.000         174.000
  -8750248.28849  -6801380.59045  23143185.757    23143184.784    23143200.195
       219.000         161.000
  -9413932.16449  -7315499.07547  19900303.794    19900303.520    19900313.571
       240.000         203.000
   1313092.28649   1022621.60047  20619410.448    20619409.023    20619419.355
       242.000         205.000
  -7922764.39649  -6154439.51647  20589971.183    20589970.371    20589980.717
       244.000         207.000
 00  5  3 16 11 59.9970000  0  7G 2G26G24G 5G 4G 7G 9
   1377695.66549   1072619.89946  21494924.536    21494923.209    21494935.185
       230.000         186.000
   4536103.67849   3521092.94145  24081589.672    24081588.702    24081604.044
       213.000         144.000
 -12642661.60449  -9816706.30446  21878274.443    21878273.846    21878287.374
       225.000         175.000
  -8863357.33249  -6889517.46345  23121661.944    23121660.890    23121676.293
       218.000         156.000
  -9490162.18749  -7374899.06847  19885797.700    19885797.410    19885807.455
       241.000         203.000
   1337899.24049   1041951.64247  20624131.097    20624129.673    20624140.047
       242.000         206.000
  -7983571.92249  -6201821.98747  20578399.883    20578399.100    20578409.424
       244.000         207.000
 00  5  3 16 12 29.9970000  0  7G 2G26G24G 5G 4G 7G 9
   1405162.11349   1094022.23546  21500151.445    21500150.004    21500161.949
       230.000         186.000
   4587781.88249   3561361.54945  24091423.715    24091422.799    24091438.222
       209.000         143.000
 -12770388.77049  -9916233.87946  21853968.759    21853968.109    21853981.623
       227.000         176.000
  -8976447.20649  -6977639.37545  23100141.470    23100140.489    23100155.986
       216.000         160.000
  -9565829.17449  -7433860.34047  19871398.740    19871398.452    19871408.489
       240.000         203.000
   1362890.99349   1061425.68147  20628886.931    20628885.507    20628895.904
       242.000         206.000
  -8043831.36249  -6248777.38247  20566932.891    20566932.134    20566942.421
       244.000         207.000
 00  5  3 16 12 59.9970000  0  7G 2G26G24G 5G 4G 7G 9
   1432916.11749   1115648.62646  21505432.888    21505431.476    21505443.480
       230.000         187.000
   4639459.52049   3601629.57145  24101257.740    24101256.866    24101272.523
       212.000         148.000
 -12897879.46449 -10015577.18546  21829707.950    21829707.380    21829720.857
       226.000         176.000
  -9089513.30549  -7065742.84445  23078625.586    23078624.671    23078640.076
       217.000         159.000
  -9640927.87449  -7492378.78947  19857107.939    19857107.656    19857117.665
       241.000         203.000
   1388069.98349   1081045.62047  20633678.407    20633676.988    20633687.386
       243.000         206.000
  -8103537.45449  -6295301.59547  20555571.227    20555570.439    20555580.707
       244.000         207.000
 00  5  3 16 13 29.9970000  0  7G 2G26G24G 5G 4G 7G 9
   1460957.29749   1137498.79546  21510769.028    21510767.618    21510779.653
       231.000         186.000
   4691133.39249   3641894.73745  24111091.318    24111090.285    24111105.798
       209.000         145.000
 -13025131.67049 -10114734.65746  21805492.641    21805492.058    21805505.501
       227.000         176.000
  -9202555.36649  -7153827.45245  23057114.278    23057113.396    23057129.020
       214.000         155.000
  -9715456.99749  -7550453.41447  19842925.571    19842925.243    19842935.242
       241.000         203.000
   1413434.31749   1100809.99247  20638505.162    20638503.725    20638514.126
       243.000         206.000
  -8162689.24849  -6341393.88647  20544315.035    20544314.244    20544324.453
       244.000         207.000
 00  5  3 16 13 59.9970000  0  7G 2G26G24G 5G 4G 7G 9
   1489277.59349   1159566.46246  21516158.250    21516156.863    21516168.903
       230.000         187.000
   4742792.58249   3682148.44845  24120921.987    24120920.819    24120936.573
       214.000         150.000
 -13152150.93149 -10213710.61346  21781321.638    21781321.061    21781334.469
       228.000         178.000
  -9315580.62049  -7241899.04445  23035606.265    23035605.337    23035620.919
       222.000         161.000
  -9789423.20449  -7608089.40647  19828850.291    19828849.943    19828859.914
       241.000         203.000
   1438974.60149   1120711.46247  20643365.420    20643363.950    20643374.332
       242.000         206.000
  -8221293.87049  -6387059.81747  20533162.939    20533162.151    20533172.340
       244.000         207.000
 00  5  3 16 14 29.9970000  0  7G 2G26G24G 5G 4G 7G 9
   1517879.87149   1181853.85846  21521601.195    21521599.804    21521611.883
       231.000         187.000
   4794437.02449   3722390.69945  24130749.687    24130748.590    24130764.322
       210.000         146.000
 -13278931.74749 -10312500.76446  21757196.067    21757195.452    21757208.791
       228.000         178.000
  -9428585.61049  -7329954.78145  23014101.900    23014101.065    23014116.667
       220.000         161.000
  -9862821.96849  -7665283.23447  19814882.927    19814882.626    19814892.580
       241.000         203.000
   1464692.11949   1140751.03547  20648259.367    20648257.909    20648268.277
       242.000         205.000
  -8279347.44649  -6432296.35047  20522115.755    20522114.927    20522125.076
       245.000         207.000
 00  5  3 16 14 59.9970000  0  7G 2G26G24G 5G 4G 7G 9
   1546760.55949   1204358.19046  21527097.240    21527095.716    21527107.807
       230.000         186.000
   4846060.18049   3762616.38745  24140573.495    24140572.352    24140588.039
       211.000         147.000
 -13405475.14449 -10411105.92346  21733115.659    21733115.017    21733128.295
       228.000         179.000
  -9541572.85349  -7417996.77045  22992601.302    22992600.386    22992615.735
       219.000         157.000
  -9935655.58349  -7722036.69347  19801023.187    19801022.842    19801032.783
       241.000         202.000
   1490581.93549   1160924.86047  20653186.121    20653184.637    20653195.021
       242.000         205.000
  -8336852.55949  -6477105.51847  20511172.901    20511172.083    20511182.192
       244.000         207.000
 00  5  3 16 15 29.9970000  0  7G 2G26G24G 5G 4G 7G 9
   1575936.88349   1227092.89346  21532649.308    21532647.840    21532659.970
       231.000         186.000
   4897676.32549   3802836.58545  24150395.776    24150394.719    24150410.427
       213.000         146.000
 -13531761.39049 -10509510.68546  21709084.152    21709083.512    21709096.741
       230.000         181.000
  -9654524.65049  -7506011.04545  22971107.364    22971106.357    22971121.806
       218.000         154.000
 -10007905.42449  -7778335.26547  19787274.482    19787274.135    19787284.096
       240.000         203.000
   1516659.59249   1181245.06247  20658148.586    20658147.104    20658157.511
       242.000         205.000
  -8393790.92749  -6521473.06847  20500337.886    20500337.079    20500347.179
       244.000         207.000
 00  5  3 16 15 59.9970000  0  7G 2G26G24G 5G 4G 7G 9
   1605376.44049   1250032.70946  21538251.635    21538250.111    21538262.268
       229.000         186.000
   4949250.13549   3843023.81245  24160210.069    24160209.107    24160224.698
       209.000         149.000
 -13657820.20149 -10607738.23146  21685095.900    21685095.267    21685108.456
       230.000         181.000
  -9767472.46149  -7594022.27246  22949614.188    22949613.076    22949628.336
       222.000         164.000
 -10079602.21349  -7834202.88147  19773631.067    19773630.680    19773640.629
       240.000         203.000
   1542891.39349   1201685.37747  20663140.385    20663138.898    20663149.324
       241.000         204.000
  -8450193.68749  -6565423.26047  20489604.802    20489603.990    20489614.078
       244.000         207.000
 00  5  3 16 16 29.9970000  0  7G 2G26G24G 5G 4G 7G 9
   1635095.46149   1273190.28346  21543907.119    21543905.571    21543917.691
       230.000         185.000
   5000795.18849   3883188.55545  24170019.050    24170017.918    24170033.706
       213.000         145.000
 -13783632.83549 -10705773.96346  21661154.507    21661153.869    21661167.046
       229.000         181.000
  -9880399.29749  -7682017.10845  22928124.728    22928123.707    22928139.084
       218.000         156.000
 -10150728.39849  -7889625.87747  19760096.194    19760095.812    19760105.762
       240.000         203.000
   1569292.17049   1222257.34547  20668164.327    20668162.853    20668173.292
       241.000         204.000
  -8506043.81549  -6608942.83247  20478976.857    20478976.048    20478986.149
       244.000         207.000
 00  5  3 16 16 59.9970000  0  7G 2G26G24G 5G 4G 7G 9
   1665092.02649   1296564.13146  21549615.357    21549613.801    21549625.940
       230.000         185.000
   5052306.68349   3923327.26045  24179821.420    24179820.479    24179836.152
       210.000         146.000
 -13909198.60549 -10803617.32046  21637260.052    21637259.417    21637272.595
       229.000         181.000
  -9993306.09049  -7769996.38345  22906639.294    22906638.227    22906653.513
       217.000         159.000
 -10221284.46549  -7944604.62447  19746669.788    19746669.435    19746679.371
       240.000         203.000
   1595858.77449   1242958.53247  20673219.837    20673218.352    20673228.802
       241.000         205.000
  -8561341.76949  -6652032.13447  20468454.010    20468453.180    20468463.288
       244.000         207.000
 00  5  3 16 17 29.9970000  0  7G 2G26G24G 5G 4G 7G 9
   1695392.37549   1320174.69146  21555381.430    21555379.854    21555392.053
       230.000         185.000
   5103808.00549   3963458.02045  24189621.851    24189620.990    24189636.673
       208.000         144.000
 -14034488.82749 -10901245.97046  21613418.034    21613417.416    21613430.553
       228.000         180.000
 -10106165.99949  -7857939.08245  22885162.996    22885161.775    22885176.999
       227.000         162.000
 -10291242.73149  -7999117.55247  19733357.167    19733356.823    19733366.729
       240.000         203.000
   1622615.91849   1263808.19147  20678311.572    20678310.134    20678320.572
       241.000         204.000
  -8616060.50549  -6694670.10147  20458041.347    20458040.539    20458050.635
       244.000         207.000
 00  5  3 16 17 59.9970000  0  7G 2G26G24G 5G 4G 7G 9
   1725971.11049   1344002.17346  21561200.504    21561198.905    21561211.102
       228.000         185.000
   5155270.72649   4003558.60545  24199414.913    24199414.098    24199430.082
       209.000         138.000
 -14159526.40049 -10998677.75946  21589624.041    21589623.482    21589636.569
       228.000         180.000
 -10219003.77749  -7945864.48545  22863690.390    22863689.358    22863704.616
       221.000         160.000
 -10360627.63649  -8053183.70647  19720153.698    19720153.318    19720163.198
       241.000         204.000
   1649536.60749   1284785.28747  20683434.454    20683433.012    20683443.462
       241.000         204.000
  -8670224.71149  -6736875.96647  20447734.272    20447733.450    20447743.516
       244.000         207.000
 00  5  3 16 18 29.9970000  0  7G 2G26G24G 5G 4G 7G 9
   1756843.04349   1368058.13046  21567075.259    21567073.701    21567085.900
       229.000         184.000
   5206706.80149   4043638.53245  24209203.200    24209202.293    24209218.273
       209.000         148.000
 -14284293.82549 -11095899.02346  21565881.489    21565880.958    21565894.021
       229.000         179.000
 -10331803.79149  -8033760.58145  22842225.215    22842224.230    22842239.293
       218.000         161.000
 -10429422.67049  -8106790.21147  19707062.456    19707062.064    19707071.912
       241.000         203.000
   1676634.26149   1305900.28247  20688590.978    20688589.569    20688600.018
       240.000         204.000
  -8723818.54949  -6778637.38747  20437535.693    20437534.878    20437544.931
       245.000         207.000
 00  5  3 16 18 59.9970000  0  7G 2G26G24G 5G 4G 7G 9
   1787984.55249   1392324.14046  21573001.462    21572999.868    21573012.102
       229.000         186.000
   5258090.15749   4083677.36945  24218981.497    24218980.430    24218996.327
       207.000         140.000
 -14408812.08949 -11192926.15746  21542186.344    21542185.848    21542198.877
       229.000         179.000
 -10444588.36749  -8121644.59045  22820763.121    22820762.059    22820777.145
       224.000         162.000
 -10497649.96449  -8159954.32747  19694079.216    19694078.831    19694088.678
       240.000         204.000
   1703884.31049   1327134.01847  20693776.474    20693775.105    20693785.581
       240.000         204.000
  -8776864.54749  -6819971.91947  20427441.349    20427440.559    20427450.612
       244.000         207.000
 00  5  3 16 19 29.9970000  0  7G 2G26G24G 5G 4G 7G 9
   1819429.07049   1416826.24946  21578985.156    21578983.620    21578995.884
       228.000         184.000
   5309451.29749   4123698.82045  24228755.265    24228754.245    24228770.460
       212.000         145.000
 -14533045.17349 -11289731.06046  21518545.493    21518544.994    21518558.005
       229.000         181.000
 -10557323.44549  -8209490.03046  22799310.203    22799309.219    22799324.296
       225.000         165.000
 -10565274.92749  -8212649.08947  19681210.602    19681210.236    19681220.068
       241.000         204.000
   1731318.57349   1348511.30047  20698997.053    20698995.711    20699006.212
       240.000         204.000
  -8829328.33449  -6860852.77247  20417457.773    20417457.028    20417467.077
       245.000         207.000
 00  5  3 16 19 59.9970000  0  7G 2G26G24G 5G 4G 7G 9
   1851191.39649   1441576.00746  21585029.360    21585027.871    21585040.138
       229.000         185.000
   5360802.13549   4163712.29345  24238527.200    24238526.207    24238542.356
       205.000         142.000
 -14656975.71249 -11386300.21346  21494962.310    21494961.728    21494974.712
       230.000         180.000
 -10669993.19349  -8297284.52345  22777869.757    22777868.807    22777883.973
       223.000         161.000
 -10632281.46549  -8264861.96247  19668459.686    19668459.323    19668469.177
       241.000         205.000
   1758950.78749   1370042.83147  20704255.300    20704253.985    20704264.513
       240.000         204.000
  -8881194.24849  -6901267.75647  20407588.004    20407587.287    20407597.313
       245.000         207.000
 00  5  3 16 20 29.9970000  0  7G 2G26G24G 5G 4G 7G 9
   1883262.93749   1466566.71246  21591132.440    21591130.964    21591143.292
       229.000         185.000
   5412131.49549   4203709.07045  24248295.100    24248294.095    24248309.983
       206.000         132.000
 -14780609.66649 -11482638.26446  21471435.403    21471434.891    21471447.861
       230.000         180.000
 -10782605.13649  -8385033.99946  22756440.442    22756439.460    22756454.677
       219.000         163.000
 -10698676.76749  -8316598.54347  19655825.033    19655824.716    19655834.587
       241.000         205.000
   1786770.91949   1391720.79247  20709549.320    20709548.024    20709558.557
       239.000         204.000
  -8932469.77749  -6941222.70547  20397830.601    20397829.875    20397839.888
       245.000         207.000
 00  5  3 16 20 59.9970000  0  7G 2G26G24G 5G 4G 7G 9
   1915623.14849   1491782.34046  21597290.381    21597288.965    21597301.355
       229.000         184.000
   5463416.01749   4243670.82545  24258054.181    24258053.245    24258069.340
       209.000         144.000
 -14903965.11449 -11578759.28246  21447961.505    21447961.052    21447973.981
       229.000         181.000
 -10895179.14149  -8472753.98646  22735018.341    22735017.347    22735032.392
       222.000         163.000
 -10764480.23849  -8367873.95647  19643303.080    19643302.742    19643312.599
       241.000         205.000
   1814756.80549   1413527.91547  20714874.911    20714873.604    20714884.145
       239.000         203.000
  -8983174.83449  -6980733.11447  20388181.718    20388181.012    20388191.015
       245.000         207.000
 00  5  3 16 21 29.9970000  0  7G 2G26G24G 5G 4G 7G 9
   1948280.42249   1517229.46946  21603505.036    21603503.558    21603515.878
       230.000         184.000
   5514661.32949   4283602.09845  24267805.931    24267805.113    24267820.951
       212.000         142.000
 -15027031.10549 -11674654.75846  21424542.788    21424542.300    21424555.187
       229.000         181.000
 -11007705.76249  -8560436.91146  22713605.082    22713604.160    22713619.351
       224.000         167.000
 -10829682.21949  -8418680.67447  19630895.573    19630895.231    19630905.063
       241.000         204.000
   1842915.92349   1435470.01747  20720233.453    20720232.158    20720242.698
       239.000         202.000
  -9033299.73949  -7019791.46347  20378643.244    20378642.572    20378652.539
       244.000         207.000
 00  5  3 16 21 59.9970000  0  7G 2G26G24G 5G 4G 7G 9
   1981260.11449   1542927.81046  21609780.897    21609779.445    21609791.833
       229.000         184.000
   5565890.13449   4323520.39845  24277554.498    24277553.735    24277569.664
       205.000         134.000
 -15149779.52649 -11770302.77646  21401184.410    21401183.971    21401196.840
       229.000         181.000
 -11120158.86849  -8648062.64546  22692205.865    22692204.957    22692220.075
       221.000         164.000
 -10894256.13949  -8468997.99647  19618607.521    19618607.215    19618617.057
       240.000         204.000
   1871272.15449   1457565.71847  20725629.506    20725628.209    20725638.760
       239.000         202.000
  -9082818.34049  -7058377.36947  20369220.202    20369219.500    20369229.432
       244.000         207.000
 00  5  3 16 22 29.9970000  0  7G 2G26G24G 5G 4G 7G 9
   2014554.26549   1568871.19646  21616116.719    21616115.249    21616127.636
       230.000         184.000
   5617091.60149   4363417.49945  24287298.300    24287297.384    24287313.237
       207.000         147.000
 -15272215.83349 -11865707.59446  21377885.504    21377885.057    21377897.855
       230.000         180.000
 -11232545.18749  -8735636.28445  22670819.287    22670818.442    22670833.676
       216.000         160.000
 -10958208.61649  -8518831.07747  19606437.772    19606437.457    19606447.276
       241.000         205.000
   1899816.43549   1479807.95247  20731061.401    20731060.064    20731070.612
       239.000         202.000
  -9131737.93649  -7096496.51847  20359911.085    20359910.417    20359920.325
       244.000         208.000
 00  5  3 16 22 59.9970000  0  7G 2G26G24G 5G 4G 7G 9
   2048134.22549   1595037.28646  21622506.835    21622505.378    21622517.788
       229.000         184.000
   5668234.18449   4403268.73445  24297030.737    24297029.794    24297045.041
       205.000         133.000
 -15394366.22549 -11960889.61546  21354640.958    21354640.532    21354653.308
       230.000         181.000
 -11344892.58649  -8823179.61346  22649440.405    22649439.474    22649454.647
       222.000         167.000
 -11021567.39249  -8568201.53147  19594380.969    19594380.676    19594390.486
       241.000         205.000
   1928518.66349   1502173.26647  20736523.351    20736521.976    20736532.515
       239.000         202.000
  -9180086.40449  -7134170.63347  20350710.694    20350710.015    20350719.916
       244.000         208.000
 00  5  3 16 23 29.9970000  0  7G 2G26G24G 5G 4G 7G 9
   2081998.55749   1621424.95646  21628951.141    21628949.650    21628962.107
       231.000         186.000
   5719314.43949   4443071.28745  24306751.063    24306750.138    24306765.687
       209.000         137.000
 -15516229.47249 -12055847.88146  21331451.027    21331450.646    21331463.403
       230.000         181.000
 -11457201.21049  -8910692.75146  22628068.520    22628067.715    22628082.863
       222.000         163.000
 -11084332.38649  -8617109.30047  19582437.219    19582436.915    19582446.684
       242.000         205.000
   1957376.28749   1524659.67147  20742014.850    20742013.466    20742023.989
       239.000         201.000
  -9227864.10449  -7171399.99047  20341618.900    20341618.215    20341628.103
       244.000         208.000
 00  5  3 16 23 59.9970000  0  7G 2G26G24G 5G 4G 7G 9
   2116191.24749   1648068.48546  21635457.864    21635456.394    21635468.964
       229.000         183.000
   5770373.25649   4482857.26645  24316467.258    24316466.191    24316481.902
       206.000         139.000
 -15637758.70049 -12150545.87946  21308324.708    21308324.316    21308337.049
       231.000         182.000
 -11569426.12249  -8998140.60846  22606712.748    22606711.947    22606727.147
       225.000         165.000
 -11146458.67949  -8665519.37847  19570614.985    19570614.696    19570624.426
       241.000         205.000
   1986432.25349   1547300.63547  20747544.121    20747542.699    20747553.220
       239.000         201.000
  -9275026.14349  -7208149.61347  20332644.294    20332643.582    20332653.461
       244.000         207.000
 00  5  3 16 24 29.9970000  0  7G 2G26G24G 5G 4G 7G 9
   2150707.35949   1674964.03646  21642026.083    21642024.651    21642037.257
       229.000         184.000
   5821403.19449   4522620.75945  24326177.845    24326177.015    24326192.559
       203.000         133.000
 -15758956.51949 -12244985.63746  21285261.422    21285261.050    21285273.749
       231.000         182.000
 -11681571.25549  -9085526.33545  22585372.116    22585371.343    22585386.411
       219.000         162.000
 -11207949.92049  -8713434.61047  19558913.595    19558913.296    19558923.006
       241.000         205.000
   2015680.22049   1570091.20947  20753109.890    20753108.459    20753118.974
       240.000         201.000
  -9321576.80649  -7244422.83847  20323785.984    20323785.276    20323795.139
       244.000         207.000
 00  5  3 16 24 59.9970000  0  7G 2G26G24G 5G 4G 7G 9
   2185516.95149   1702088.27746  21648650.164    21648648.805    21648661.357
       230.000         183.000
   5872371.58849   4562336.20545  24335876.886    24335876.102    24335891.978
       199.000         139.000
 -15879850.11749 -12339188.33846  21262256.021    21262255.685    21262268.361
       231.000         182.000
 -11793665.30049  -9172872.24046  22564041.272    22564040.471    22564055.519
       220.000         164.000
 -11268834.71049  -8760877.28747  19547327.639    19547327.327    19547336.997
       242.000         205.000
   2045089.32149   1593007.34947  20758706.350    20758704.886    20758715.406
       239.000         201.000
  -9367545.14749  -7280242.30847  20315038.436    20315037.773    20315047.629
       244.000         207.000
 00  5  3 16 25 29.9960000  0  7G 2G26G24G 5G 4G 7G 9
   2220646.32149   1729461.65146  21655335.223    21655333.795    21655346.452
       227.000         182.000
   5923301.74949   4602021.88444  24345568.560    24345567.812    24345583.605
       208.000         130.000
 -16000405.44349 -12433127.45546  21239315.045    21239314.676    21239327.335
       231.000         182.000
 -11905675.95949  -9260153.13646  22542726.317    22542725.541    22542740.526
       220.000         164.000
 -11329082.74849  -8807823.80047  19535862.839    19535862.506    19535872.157
       242.000         205.000
   2074684.71349   1616068.65047  20764338.232    20764336.767    20764347.290
       240.000         201.000
  -9412901.41049  -7315584.84247  20306407.422    20306406.750    20306416.585
       244.000         206.000
 00  5  3 16 25 59.9960000  0  7G 2G26G24G 5G 4G 7G 9
   2256096.83249   1757085.34046  21662081.424    21662079.939    21662092.498
       225.000         183.000
   5974193.42449   4641677.54045  24355252.957    24355252.225    24355268.418
       203.000         137.000
 -16120628.96649 -12526808.02746  21216437.236    21216436.826    21216449.451
       232.000         183.000
 -12017610.73849  -9347374.94646  22521425.702    22521424.972    22521439.768
       224.000         164.000
 -11388697.98549  -8854277.22247  19524518.431    19524518.126    19524527.740
       241.000         205.000
   2104466.16249   1639274.92547  20770005.495    20770004.044    20770014.574
       240.000         201.000
  -9457648.92849  -7350453.02747  20297892.206    20297891.565    20297901.393
       244.000         206.000
 00  5  3 16 26 29.9960000  0  7G 2G26G24G 5G 4G 7G 9
   2291847.62949   1784942.98346  21668884.589    21668883.162    21668895.798
       228.000         183.000
   6025022.49649   4681284.45145  24364925.503    24364924.770    24364940.908
       208.000         139.000
 -16240533.82349 -12620240.28346  21193619.984    21193619.617    21193632.208
       232.000         183.000
 -12129484.50749  -9434549.19746  22500136.772    22500136.067    22500150.845
       221.000         164.000
 -11447696.75849  -8900250.27647  19513291.329    19513291.048    19513300.643
       241.000         205.000
   2134411.92949   1662609.24647  20775704.036    20775702.578    20775713.132
       239.000         201.000
  -9501805.11049  -7384860.42947  20289489.511    20289488.901    20289498.737
       243.000         206.000
 00  5  3 16 26 59.9960000  0  7G 2G26G24G 5G 4G 7G 9
   2327898.96149   1813034.77946  21675745.068    21675743.599    21675756.336
       230.000         182.000
   6075786.91649   4720841.00345  24374585.771    24374584.995    24374601.305
       207.000         139.000
 -16360116.88049 -12713421.79746  21170864.043    21170863.657    21170876.202
       232.000         183.000
 -12241295.91649  -9521674.81346  22478859.582    22478858.947    22478873.777
       223.000         165.000
 -11506077.65949  -8945741.88347  19502181.853    19502181.544    19502191.092
       241.000         205.000
   2164521.23149   1686070.99247  20781433.635    20781432.232    20781442.801
       239.000         201.000
  -9545368.87549  -7418806.21547  20281199.535    20281198.966    20281208.809
       243.000         206.000
 00  5  3 16 27 29.9960000  0  7G 2G26G24G 5G 4G 7G 9
   2364266.38749   1841372.93546  21682665.632    21682664.162    21682676.921
       228.000         182.000
   6126499.72249   4760357.29245  24384236.358    24384235.449    24384252.086
       210.000         150.000
 -16479359.95149 -12806338.39346  21148172.780    21148172.375    21148184.878
       232.000         183.000
 -12353028.06749  -9608738.75545  22457597.759    22457597.012    22457611.570
       223.000         162.000
 -11563824.18749  -8990739.17247  19491193.023    19491192.745    19491202.280
       241.000         204.000
   2194808.64849   1709671.53747  20787197.105    20787195.765    20787206.368
       239.000         201.000
  -9588323.85749  -7452277.61347  20273025.467    20273024.879    20273034.736
       244.000         207.000
 00  5  3 16 27 59.9960000  0  7G 2G26G24G 5G 4G 7G 9
   2400940.91849   1869950.35746  21689644.540    21689643.168    21689655.996
       229.000         182.000
   6177149.39749   4799824.35544  24393874.487    24393873.712    24393890.562
       206.000         130.000
 -16598269.40549 -12898995.02046  21125544.973    21125544.595    21125557.031
       231.000         183.000
 -12464688.83649  -9695746.99446  22436349.251    22436348.547    22436363.233
       222.000         165.000
 -11620944.13749  -9035248.22447  19480323.444    19480323.158    19480332.683
       241.000         204.000
   2225263.85849   1733402.82247  20792992.572    20792991.251    20793001.859
       238.000         201.000
  -9630678.18949  -7485280.97547  20264965.685    20264965.104    20264974.975
       243.000         206.000
 00  5  3 16 28 29.9960000  0  7G 2G26G24G 5G 4G 7G 9
   2437909.72149   1898757.08346  21696679.569    21696678.170    21696691.126
       228.000         181.000
   6227720.32749   4839230.19045  24403498.072    24403497.262    24403513.914
       209.000         145.000
 -16716855.62449 -12991399.79046  21102978.752    21102978.319    21102990.718
       233.000         184.000
 -12576289.70949  -9782708.58346  22415112.446    22415111.617    22415126.182
       225.000         164.000
 -11677449.69649  -9079278.52747  19469570.822    19469570.531    19469579.993
       241.000         204.000
   2255873.09549   1757254.12547  20798817.357    20798816.050    20798826.665
       239.000         201.000
  -9672444.11449  -7517825.85047  20257017.907    20257017.313    20257027.183
       244.000         206.000
 00  5  3 16 28 59.9960000  0  7G 2G26G24G 5G 4G 7G 9
   2475198.64849   1927813.25646  21703775.521    21703774.126    21703787.093
       225.000         179.000
   6278236.08649   4878592.88645  24413110.895    24413110.134    24413127.197
       199.000         137.000
 -16835090.07949 -13083530.45446  21080479.486    21080478.995    21080491.346
       233.000         184.000
 -12687803.75549  -9869602.54846  22393891.778    22393891.075    22393905.457
       225.000         165.000
 -11733313.72349  -9122808.93647  19458940.228    19458939.969    19458949.400
       241.000         204.000
   2286661.22849   1781244.82747  20804676.197    20804674.886    20804685.527
       239.000         201.000
  -9713594.96849  -7549891.44447  20249187.152    20249186.557    20249196.455
       244.000         207.000
 00  5  3 16 29 29.9960000  0  7G 2G26G24G 5G 4G 7G 9
   2512793.77949   1957108.05346  21710929.835    21710928.373    21710941.305
       229.000         180.000
   6328680.44849   4917900.01245  24422710.254    24422709.309    24422726.471
       212.000         143.000
 -16952984.00549 -13175395.77446  21058044.921    21058044.457    21058056.775
       233.000         185.000
 -12799243.60549  -9956438.65446  22372685.589    22372684.774    22372699.165
       226.000         167.000
 -11788549.10349  -9165849.49047  19448429.327    19448429.049    19448438.462
       241.000         204.000
   2317613.20849   1805363.21447  20810566.228    20810564.907    20810575.581
       239.000         201.000
  -9754144.01449  -7581488.10147  20241470.963    20241470.320    20241480.225
       243.000         207.000
 00  5  3 16 29 59.9960000  0  7G 2G26G24G 5G 4G 7G 9
   2550692.28349   1986639.21746  21718141.644    21718140.287    21718153.294
       225.000         179.000
   6379047.80849   4957147.11845  24432294.992    24432294.071    24432311.263
       206.000         137.000
 -17070537.42849 -13266995.76746  21035675.187    21035674.712    21035687.017
       233.000         186.000
 -12910611.00549 -10043218.30946  22351492.873    22351492.141    22351506.478
       223.000         163.000
 -11843157.74549  -9208401.68247  19438037.697    19438037.388    19438046.798
       241.000         205.000
   2348725.25149   1829606.32047  20816486.686    20816485.384    20816496.079
       239.000         202.000
  -9794093.26749  -7612617.38947  20233868.870    20233868.231    20233878.140
       243.000         207.000
 00  5  3 16 30 29.9960000  0  7G 2G26G24G 5G 4G 7G 9
   2588901.48449   2016412.48946  21725412.642    21725411.345    21725424.367
       227.000         178.000
   6429343.12149   4996338.09745  24441865.956    24441865.074    24441882.104
       209.000         137.000
 -17187740.91449 -13358323.08146  21013372.026    21013371.557    21013383.866
       233.000         186.000
 -13021897.46849 -10129934.94646  22330315.744    22330314.987    22330329.210
       225.000         167.000
 -11897131.54649  -9250459.19347  19427766.788    19427766.504    19427775.953
       240.000         205.000
   2380003.40949   1853978.86447  20822438.727    20822437.458    20822448.186
       239.000         202.000
  -9833435.17349  -7643273.41847  20226382.332    20226381.696    20226391.627
       243.000         207.000
 00  5  3 16 30 59.9960000  0  7G 2G26G24G 5G 4G 7G 9
   2627431.65449   2046435.86646  21732744.853    21732743.515    21732756.507
       228.000         180.000
   6479574.45249   5035479.32145  24451424.934    24451423.990    24451440.811
       200.000         138.000
 -17304580.92149 -13449367.16746  20991138.058    20991137.583    20991149.890
       234.000         186.000
 -13133091.02249 -10216579.12545  22309155.975    22309155.352    22309169.770
       223.000         162.000
 -11950459.08249  -9292013.12347  19417618.935    19417618.625    19417628.095
       241.000         205.000
   2411457.19149   1878488.25847  20828424.211    20828422.955    20828433.703
       239.000         202.000
  -9872158.53249  -7673447.46847  20219013.521    20219012.879    20219022.830
       243.000         207.000
 00  5  3 16 31 29.9960000  0  6G 2G24G 5G 4G 7G 9
   2666271.68249   2076700.67546  21740135.975    21740134.611    21740147.740
       226.000         179.000
 -17421066.31649 -13540134.94246  20968971.632    20968971.085    20968983.393
       234.000         186.000
 -13244201.43249 -10303158.60246  22288012.385    22288011.684    22288025.895
       222.000         166.000
 -12003150.68649  -9333071.52447  19407592.061    19407591.757    19407601.249
       241.000         205.000
   2443074.42749   1903125.02047  20834440.819    20834439.549    20834450.341
       239.000         202.000
  -9910273.98749  -7703147.82747  20211760.393    20211759.736    20211769.707
       243.000         207.000
 00  5  3 16 31 59.9960000  0  6G 2G24G 5G 4G 7G 9
   2705415.53449   2107202.26446  21747585.020    21747583.573    21747596.608
       228.000         178.000
 -17537200.43149 -13630628.98546  20946872.026    20946871.466    20946883.746
       235.000         187.000
 -13355233.76749 -10389677.14746  22266883.406    22266882.795    22266897.132
       223.000         167.000
 -12055211.41249  -9373638.32547  19397685.234    19397684.924    19397694.438
       241.000         205.000
   2474848.18949   1927883.74947  20840487.240    20840485.940    20840496.763
       240.000         202.000
  -9947786.66649  -7732378.48147  20204621.963    20204621.321    20204631.278
       243.000         207.000
 00  5  3 16 32 29.9960000  0  6G 2G24G 5G 4G 7G 9
   2744862.48149   2137940.02746  21755091.675    21755090.203    21755103.298
       226.000         179.000
 -17652981.28949 -13720847.75547  20924839.644    20924839.074    20924851.335
       235.000         188.000
 -13466187.29549 -10476134.35546  22245769.807    22245769.048    22245783.267
       223.000         165.000
 -12106641.11149  -9413713.41547  19387898.506    19387898.197    19387907.702
       240.000         205.000
   2506776.96549   1952763.26647  20846563.131    20846561.838    20846572.680
       239.000         201.000
  -9984696.77049  -7761139.59747  20197598.219    20197597.568    20197607.528
       243.000         207.000
 00  5  3 16 32 59.9960000  0  6G 2G24G 5G 4G 7G 9
   2784618.57049   2168918.63846  21762657.048    21762655.640    21762668.769
       225.000         177.000
 -17768400.04249 -13810784.38647  20902876.149    20902875.598    20902887.832
       235.000         189.000
 -13577054.50349 -10562524.25146  22224672.260    22224671.555    22224685.822
       223.000         170.000
 -12157432.58549  -9453291.18947  19378233.212    19378232.907    19378242.413
       241.000         205.000
   2538865.92949   1977767.60147  20852669.481    20852668.206    20852679.066
       239.000         201.000
 -10020997.58449  -7789425.96147  20190690.399    20190689.753    20190699.696
       243.000         207.000
 00  5  3 16 33 29.9960000  0  6G 2G24G 5G 4G 7G 9
   2824684.82449   2200138.98746  21770281.501    21770280.154    21770293.239
       228.000         179.000
 -17883453.20949 -13900436.12547  20880982.231    20880981.670    20880993.878
       235.000         189.000
 -13687833.07049 -10648845.12646  22203591.887    22203591.094    22203605.298
       225.000         168.000
 -12207584.18249  -9492370.35647  19368689.649    19368689.381    19368698.881
       240.000         205.000
   2571114.96849   2002896.67247  20858806.281    20858805.019    20858815.922
       239.000         200.000
 -10056687.74249  -7817236.47047  20183898.782    20183898.148    20183908.076
       243.000         207.000
 00  5  3 16 33 59.9960000  0  6G 2G24G 5G 4G 7G 9
   2865082.53049   2231617.58346  21777969.010    21777967.688    21777980.763
       224.000         178.000
 -17998117.11349 -13989784.54647  20859162.379    20859161.806    20859173.999
       235.000         189.000
 -13798500.48049 -10735079.35446  22182532.296    22182531.639    22182545.777
       228.000         168.000
 -12257073.89649  -9530933.76647  19359272.049    19359271.789    19359281.300
       240.000         205.000
   2603544.46149   2028166.35447  20864977.381    20864976.170    20864987.107
       238.000         200.000
 -10091745.46449  -7844554.18347  20177227.539    20177226.884    20177236.809
       243.000         207.000
 00  5  3 16 34 29.9960000  0  6G 2G24G 5G 4G 7G 9
   2905759.98649   2263314.15646  21785709.822    21785708.468    21785721.588
       227.000         180.000
 -18112440.56849 -14078867.68547  20837407.243    20837406.727    20837418.887
       236.000         189.000
 -13909106.87549 -10821266.03746  22161484.644    22161483.944    22161498.117
       225.000         170.000
 -12305952.49849  -9569020.99047  19349970.769    19349970.508    19349980.034
       241.000         205.000
   2636101.88749   2053535.72047  20871172.851    20871171.666    20871182.630
       237.000         199.000
 -10126221.83049  -7871418.88947  20170666.878    20170666.267    20170676.159
       243.000         207.000
 00  5  3 16 34 59.9960000  0  6G 2G24G 5G 4G 7G 9
   2946740.76749   2295247.09046  21793508.493    21793507.028    21793520.137
       225.000         177.000
 -18226397.37449 -14167665.11147  20815721.949    20815721.418    20815733.546
       236.000         190.000
 -14019627.14849 -10907385.62446  22140453.041    22140452.470    22140466.599
       226.000         167.000
 -12354195.71249  -9606613.10347  19340790.414    19340790.122    19340799.676
       240.000         205.000
   2668809.83549   2079022.37447  20877396.991    20877395.805    20877406.779
       237.000         199.000
 -10160092.65749  -7897811.74247  20164221.491    20164220.875    20164230.760
       243.000         207.000
 00  5  3 16 35 29.9960000  0  6G 2G24G 5G 4G 7G 9
   2988023.18249   2327415.09146  21801364.446    21801362.929    21801375.974
       226.000         177.000
 -18339986.85549 -14256176.32747  20794106.478    20794105.998    20794118.092
       236.000         190.000
 -14130061.78649 -10993438.49346  22119438.114    22119437.442    22119451.489
       227.000         171.000
 -12401804.56449  -9643710.91347  19331730.719    19331730.459    19331740.020
       240.000         205.000
   2701665.78349   2104624.33947  20883649.295    20883648.099    20883659.080
       237.000         198.000
 -10193359.36649  -7923733.86047  20157891.064    20157890.414    20157900.326
       243.000         207.000
 00  5  3 16 35 59.9960000  0  6G 2G24G 5G 4G 7G 9
   3029611.29349   2359821.26846  21809278.631    21809277.039    21809290.187
       229.000         181.000
 -18453201.89649 -14344395.75547  20772562.302    20772561.846    20772573.910
       237.000         191.000
 -14240405.10549 -11079420.17146  22098440.260    22098439.634    22098453.771
       226.000         168.000
 -12448773.98449  -9680310.45347  19322792.744    19322792.476    19322802.040
       240.000         204.000
   2734673.20649   2130344.35147  20889930.464    20889929.257    20889940.220
       236.000         197.000
 -10226017.22149  -7949181.53547  20151676.439    20151675.830    20151685.763
       243.000         207.000
 00  5  3 16 36 29.9960000  0  6G 2G24G 5G 4G 7G 9
   3071545.81149   2392497.36646  21817258.449    21817256.960    21817270.159
       223.000         174.000
 -18565999.20449 -14432289.68847  20751097.618    20751097.191    20751109.238
       236.000         192.000
 -14350614.93249 -11165297.88946  22077468.107    22077467.372    22077481.325
       227.000         171.000
 -12495062.47449  -9716379.40647  19313984.378    19313984.086    19313993.622
       240.000         205.000
   2767871.81949   2156213.32947  20896248.012    20896246.796    20896257.732
       237.000         197.000
 -10258024.75249  -7974122.47647  20145585.643    20145585.002    20145594.943
       243.000         207.000
 00  5  3 16 36 59.9960000  0  6G 2G24G 5G 4G 7G 9
   3113863.81549   2425472.32246  21825311.548    21825309.999    21825323.050
       225.000         178.000
 -18678339.11249 -14519827.19247  20729720.041    20729719.566    20729731.602
       237.000         193.000
 -14460652.48149 -11251041.28846  22056528.565    22056527.851    22056541.880
       228.000         171.000
 -12540632.20949  -9751888.29247  19305312.741    19305312.448    19305321.999
       240.000         204.000
   2801298.28349   2182259.85347  20902608.971    20902607.690    20902618.626
       236.000         197.000
 -10289344.37149  -7998527.37747  20139625.788    20139625.095    20139635.038
       243.000         207.000
 00  5  3 16 37 29.9960000  0  6G 2G24G 5G 4G 7G 9
   3156454.82949   2458659.93746  21833416.348    21833414.856    21833428.105
       225.000         178.000
 -18790329.42449 -14607092.29547  20708408.937    20708408.468    20708420.504
       237.000         193.000
 -14570626.99649 -11336735.62246  22035601.149    22035600.367    22035614.224
       227.000         170.000
 -12585592.86749  -9786922.56547  19296756.965    19296756.722    19296766.261
       239.000         204.000
   2834840.81649   2208396.82447  20908991.924    20908990.656    20909001.612
       237.000         197.000
 -10320086.46949  -8022482.25947  20133775.776    20133775.063    20133785.011
       243.000         207.000
 00  5  3 16 37 59.9960000  0  6G 2G24G 5G 4G 7G 9
   3199342.70549   2492078.95546  21841577.794    21841576.273    21841589.509
       228.000         177.000
 -18901944.03149 -14694064.63647  20687169.329    20687168.860    20687180.907
       237.000         194.000
 -14680512.97949 -11422360.97146  22014690.444    22014689.690    22014703.484
       228.000         173.000
 -12629920.36049  -9821463.47747  19288321.666    19288321.450    19288331.015
       239.000         204.000
   2868522.61349   2234642.30247  20915401.386    20915400.124    20915411.106
       236.000         197.000
 -10350226.77049  -8045968.21347  20128040.243    20128039.538    20128049.502
       243.000         207.000
 00  5  3 16 38 29.9960000  0  6G 2G24G 5G 4G 7G 9
   3242516.11149   2525720.42646  21849793.565    21849792.049    21849805.285
       227.000         177.000
 -19013191.39049 -14780750.80847  20665999.625    20665999.125    20666011.182
       238.000         193.000
 -14790320.39549 -11507925.06946  21993794.736    21993793.973    21993807.719
       229.000         171.000
 -12673625.14049  -9855519.14647  19280004.929    19280004.694    19280014.272
       239.000         204.000
   2902331.69649   2260986.97247  20921835.106    20921833.826    20921844.821
       237.000         197.000
 -10379776.23049  -8068993.76647  20122417.188    20122416.463    20122426.440
       243.000         208.000
 00  5  3 16 38 59.9960000  0  6G 2G24G 5G 4G 7G 9
   3285991.97549   2559597.57046  21858066.897    21858065.408    21858078.646
       223.000         177.000
 -19124052.00649 -14867135.63247  20644903.471    20644902.987    20644915.032
       238.000         192.000
 -14900030.56249 -11593413.40446  21972917.625    21972916.798    21972930.450
       228.000         172.000
 -12716689.71749  -9889075.96647  19271810.032    19271809.785    19271819.347
       239.000         204.000
   2936284.23449   2287443.41847  20928296.110    20928294.832    20928305.824
       236.000         196.000
 -10408717.44849  -8091545.37247  20116909.876    20116909.155    20116919.132
       243.000         208.000
 00  5  3 16 39 29.9960000  0  6G 2G24G 5G 4G 7G 9
   3329779.97149   2593717.93646  21866399.670    21866398.096    21866411.356
       226.000         174.000
 -19234513.34149 -14953209.32547  20623883.292    20623882.826    20623894.846
       237.000         193.000
 -15009632.17449 -11678817.13946  21952061.036    21952060.239    21952073.838
       228.000         172.000
 -12759103.40949  -9922125.59747  19263738.976    19263738.712    19263748.307
       239.000         203.000
   2970389.34149   2314018.75047  20934786.155    20934784.859    20934795.877
       236.000         196.000
 -10437039.93149  -8113614.84047  20111520.292    20111519.587    20111529.560
       243.000         208.000
 00  5  3 16 39 59.9960000  0  6G 2G24G 5G 4G 7G 9
   3373843.35049   2628052.88246  21874784.625    21874783.160    21874796.348
       223.000         174.000
 -19344609.63449 -15038998.57747  20602932.580    20602932.137    20602944.112
       238.000         193.000
 -15119160.59749 -11764163.87446  21931218.447    21931217.630    21931231.202
       226.000         173.000
 -12800902.64449  -9954696.43347  19255784.817    19255784.580    19255794.176
       238.000         203.000
   3004609.31849   2340683.59747  20941298.017    20941296.744    20941307.776
       236.000         195.000
 -10464780.20449  -8135230.64147  20106241.531    20106240.806    20106250.785
       243.000         208.000
 00  5  3 16 40 29.9960000  0  6G 2G24G 5G 4G 7G 9
   3418201.33549   2662617.40046  21883225.918    21883224.369    21883237.636
       224.000         175.000
 -19454319.14349 -15124486.43447  20582055.553    20582055.065    20582066.967
       239.000         193.000
 -15228594.80549 -11849437.16046  21910393.731    21910392.889    21910406.467
       228.000         173.000
 -12842067.44649  -9986772.90447  19247951.422    19247951.191    19247960.773
       239.000         204.000
   3038962.88949   2367452.53047  20947835.297    20947834.048    20947845.093
       235.000         195.000
 -10491918.84449  -8156377.63747  20101077.238    20101076.514    20101086.494
       243.000         208.000
 00  5  3 16 40 59.9960000  0  6G 2G24G 5G 4G 7G 9
   3462864.51149   2697419.70846  21891724.922    21891723.505    21891736.853
       224.000         171.000
 -19563628.74449 -15209662.68147  20561254.633    20561254.104    20561265.934
       238.000         193.000
 -15337922.86249 -11934627.75046  21889589.209    21889588.389    21889601.941
       224.000         172.000
 -12882586.86449 -10018346.47447  19240240.917    19240240.635    19240250.173
       239.000         204.000
   3073459.72349   2394333.11147  20954399.943    20954398.642    20954409.663
       235.000         194.000
 -10518445.00449  -8177047.38247  20096029.449    20096028.747    20096038.744
       243.000         208.000
 00  5  3 16 41 29.9960000  0  6G 2G24G 5G 4G 7G 9
   3507818.05649   2732448.29946  21900279.617    21900278.100    21900291.375
       227.000         176.000
 -19672550.34349 -15294536.58547  20540527.497    20540526.986    20540538.750
       237.000         193.000
 -15447157.50149 -12019745.51946  21868802.466    21868801.654    21868815.241
       228.000         174.000
 -12922474.74849 -10049427.94247  19232650.557    19232650.254    19232659.746
       239.000         203.000
   3108084.75649   2421313.58347  20960988.938    20960987.625    20960998.639
       236.000         194.000
 -10544372.70549  -8197250.79147  20091095.573    20091094.866    20091104.893
       243.000         208.000
 00  5  3 16 41 59.9960000  0  6G 2G24G 5G 4G 7G 9
   3553051.55949   2767694.99746  21908887.270    21908885.797    21908899.206
       223.000         171.000
 -19781091.87849 -15379114.33947  20519872.657    20519872.180    20519883.891
       238.000         194.000
 -15556307.59649 -12104797.44246  21848031.692    21848030.970    21848044.541
       226.000         173.000
 -12961741.21249 -10080025.18447  19225178.448    19225178.111    19225187.565
       239.000         203.000
   3142826.75749   2448385.20447  20967600.210    20967598.862    20967609.872
       236.000         194.000
 -10569712.53349  -8216996.11747  20086273.564    20086272.858    20086282.894
       243.000         208.000
 00  5  3 16 42 29.9960000  0  6G 2G24G 5G 4G 7G 9
   3598575.21949   2803167.87546  21917550.468    21917548.935    21917562.135
       225.000         173.000
 -19889240.59249 -15463385.99547  20499292.606    20499292.114    20499303.800
       238.000         193.000
 -15665361.39949 -12189774.32046  21827279.339    21827278.614    21827292.270
       226.000         174.000
 -13000375.72149 -10110129.99847  19217826.456    19217826.203    19217835.650
       238.000         203.000
   3177695.20849   2475555.34747  20974235.469    20974234.167    20974245.182
       234.000         194.000
 -10594453.87449  -8236275.09347  20081565.458    20081564.769    20081574.764
       244.000         208.000
 00  5  3 16 42 59.9960000  0  6G 2G24G 5G 4G 7G 9
   3644410.91049   2838883.80046  21926272.626    21926271.246    21926284.628
       225.000         174.000
 -19996971.68149 -15547332.23547  20478792.013    20478791.533    20478803.206
       238.000         194.000
 -15774295.30349 -12274657.76846  21806549.770    21806549.097    21806562.764
       226.000         173.000
 -13038355.51049 -10139724.64347  19210599.132    19210598.887    19210608.325
       238.000         203.000
   3212711.44149   2502840.65647  20980898.965    20980897.595    20980908.616
       235.000         193.000
 -10618574.56649  -8255070.44247  20076975.537    20076974.775    20076984.741
       244.000         208.000
 00  5  3 16 43 29.9960000  0  6G 2G24G 5G 4G 7G 9
   3690500.83749   2874797.86946  21935043.200    21935041.929    21935055.349
       226.000         167.000
 -20104340.66649 -15630996.31947  20458360.339    20458359.844    20458371.520
       237.000         193.000
 -15883165.21349 -12359491.36446  21785832.480    21785831.769    21785845.466
       227.000         175.000
 -13075738.10849 -10168853.93947  19203485.471    19203485.220    19203494.631
       239.000         203.000
   3247817.18449   2530195.71247  20987579.436    20987578.054    20987589.109
       236.000         194.000
 -10642132.11949  -8273426.97447  20072492.725    20072491.961    20072501.897
       244.000         208.000
 00  5  3 16 43 59.9960000  0  6G 2G24G 5G 4G 7G 9
   3736869.25449   2910928.96046  21943867.061    21943865.708    21943879.091
       224.000         171.000
 -20211320.45549 -15714357.13247  20438002.704    20438002.223    20438013.900
       238.000         194.000
 -15991945.14249 -12444254.82346  21765132.160    21765131.496    21765145.290
       226.000         173.000
 -13112498.57349 -10197498.45847  19196490.196    19196489.938    19196499.334
       239.000         203.000
   3283036.07749   2557638.93847  20994281.380    20994280.057    20994291.118
       234.000         193.000
 -10665101.88649  -8291325.50047  20068121.715    20068120.976    20068130.882
       243.000         208.000
 00  5  3 16 44 29.9960000  0  6G 2G24G 5G 4G 7G 9
   3783549.38649   2947302.92146  21952750.105    21952748.743    21952762.187
       223.000         169.000
 -20317875.28749 -15797386.81547  20417725.982    20417725.478    20417737.150
       238.000         194.000
 -16100600.13949 -12528920.96146  21744455.794    21744455.073    21744468.771
       228.000         175.000
 -13148603.34449 -10225632.04747  19189619.708    19189619.445    19189628.816
       239.000         203.000
   3318400.89349   2585195.87447  21001011.150    21001009.823    21001020.887
       235.000         193.000
 -10687450.26649  -8308739.82547  20063868.965    20063868.237    20063878.130
       243.000         209.000
 00  5  3 16 44 59.9960000  0  6G 2G24G 5G 4G 7G 9
   3830501.32549   2983888.64146  21961684.766    21961683.460    21961696.961
       224.000         167.000
 -20424042.62349 -15880114.55147  20397522.990    20397522.456    20397534.131
       238.000         194.000
 -16209168.50649 -12613519.57546  21723795.781    21723795.095    21723808.831
       225.000         174.000
 -13184091.91349 -10253285.48347  19182866.492    19182866.216    19182875.575
       239.000         203.000
   3353870.99249   2612834.84847  21007760.936    21007759.626    21007770.696
       235.000         193.000
 -10709217.17949  -8325701.05747  20059726.875    20059726.156    20059736.033
       244.000         209.000
 00  5  3 16 45 29.9960000  0  6G 2G24G 5G 4G 7G 9
   3877742.18349   3020699.57046  21970674.575    21970673.265    21970686.676
       225.000         170.000
 -20529802.63649 -15962524.89247  20377397.547    20377396.975    20377408.630
       237.000         194.000
 -16317631.36849 -12698036.00846  21703155.900    21703155.213    21703168.941
       227.000         174.000
 -13218946.73349 -10280445.08447  19176233.867    19176233.586    19176242.919
       240.000         203.000
   3389463.06749   2640568.87647  21014534.001    21014532.652    21014543.718
       236.000         193.000
 -10730385.06649  -8342195.51547  20055698.748    20055698.061    20055707.938
       244.000         209.000
 00  5  3 16 45 59.9960000  0  7G16G 2G24G 5G 4G 7G 9
   -167987.02659   -121020.83155  23335194.952    23335194.783    23335206.923
       213.000         151.000
   3925281.54649   3057743.05546  21979721.370    21979719.886    21979733.413
       224.000         171.000
 -20635143.05749 -16044608.27947  20357351.890    20357351.324    20357362.948
       237.000         194.000
 -16425977.18449 -12782461.19446  21682538.301    21682537.602    21682551.388
       227.000         176.000
 -13253157.97649 -10307103.20247  19169723.678    19169723.387    19169732.741
       239.000         203.000
   3425186.10849   2668404.94547  21021331.903    21021330.569    21021341.694
       234.000         193.000
 -10750944.26249  -8358215.67047  20051786.459    20051785.793    20051795.672
       244.000         209.000
 00  5  3 16 46 29.9960000  0  7G16G 2G24G 5G 4G 7G 9
   -225502.72349   -165838.14845  23324250.139    23324249.254    23324262.056
       215.000         154.000
   3973097.19649   3095001.84246  21988820.353    21988818.949    21988832.463
       223.000         168.000
 -20740083.42749 -16126379.92747  20337382.376    20337381.795    20337393.386
       238.000         194.000
 -16534226.17549 -12866810.95746  21661939.282    21661938.487    21661952.200
       227.000         177.000
 -13286747.05349 -10333276.51247  19163331.880    19163331.611    19163340.975
       240.000         203.000
   3461017.60649   2696325.54347  21028150.466    21028149.143    21028160.295
       235.000         194.000
 -10770916.98149  -8373778.82547  20047985.817    20047985.118    20047994.997
       244.000         209.000
 00  5  3 16 46 59.9960000  0  7G16G 2G24G 5G 4G 7G 9
   -282585.34159   -210318.00255  23313387.720    23313386.909    23313400.152
       217.000         158.000
   4021170.65649   3132461.53046  21997968.661    21997967.192    21997980.662
       223.000         168.000
 -20844639.60449 -16207852.21047  20317486.001    20317485.388    20317496.937
       238.000         194.000
 -16642394.86249 -12951098.14046  21641355.391    21641354.581    21641368.301
       227.000         177.000
 -13319732.22549 -10358979.25247  19157055.032    19157054.749    19157064.097
       240.000         203.000
   3496938.67949   2724315.93347  21034986.026    21034984.752    21034995.944
       236.000         194.000
 -10790321.24049  -8388899.03147  20044293.359    20044292.632    20044302.476
       244.000         209.000
 00  5  3 16 47 29.9960000  0  7G16G 2G24G 5G 4G 7G 9
   -339218.59649   -254447.70945  23302610.813    23302609.989    23302622.794
       217.000         161.000
   4069515.89249   3170132.94046  22007168.332    22007166.979    22007180.665
       221.000         167.000
 -20948795.29249 -16289012.43147  20297665.826    20297665.196    20297676.688
       238.000         194.000
 -16750467.68549 -13035310.62246  21620789.871    21620788.993    21620802.720
       229.000         176.000
 -13352099.35849 -10384200.40147  19150895.800    19150895.496    19150904.832
       239.000         203.000
   3532962.56949   2752386.44047  21041841.289    21041839.932    21041851.152
       236.000         194.000
 -10809142.91749  -8403565.27847  20040711.739    20040711.010    20040720.817
       244.000         209.000
 00  5  3 16 47 59.9960000  0  7G16G 2G24G 5G 4G 7G 9
   -395434.09949   -298251.89846  23291913.373    23291912.391    23291925.252
       218.000         163.000
   4118098.66849   3207989.49346  22016413.672    22016412.164    22016425.880
       226.000         167.000
 -21052582.02249 -16369885.14247  20277915.847    20277915.217    20277926.666
       239.000         194.000
 -16858476.87749 -13119473.51546  21600236.259    21600235.429    21600249.092
       229.000         177.000
 -13383882.12549 -10408966.20247  19144847.732    19144847.440    19144856.770
       240.000         203.000
   3569054.74849   2780510.15647  21048709.465    21048708.109    21048719.365
       235.000         194.000
 -10827416.08349  -8417804.11447  20037234.499    20037233.767    20037243.548
       244.000         209.000
 00  5  3 16 48 29.9960000  0  7G16G 2G24G 5G 4G 7G 9
   -451175.84849   -341686.93546  23281305.993    23281305.049    23281317.945
       218.000         164.000
   4166972.58149   3246072.89046  22025713.980    22025712.586    22025726.403
       217.000         167.000
 -21155943.73849 -16450426.67947  20258246.738    20258246.093    20258257.540
       239.000         195.000
 -16966367.12049 -13203543.71946  21579705.351    21579704.546    21579718.168
       229.000         179.000
 -13415026.91749 -10433234.87447  19138921.110    19138920.788    19138930.131
       240.000         203.000
   3605268.18749   2808728.36847  21055600.683    21055599.349    21055610.640
       234.000         193.000
 -10845087.53849  -8431574.08947  20033871.743    20033871.023    20033880.765
       244.000         209.000
 00  5  3 16 48 59.9960000  0  7G16G 2G24G 5G 4G 7G 9
   -506486.63549   -384786.16746  23270780.670    23270779.699    23270792.652
       218.000         164.000
   4216092.14949   3284347.67946  22035061.173    22035059.809    22035073.815
       225.000         168.000
 -21258922.89149 -16530670.12247  20238650.331    20238649.765    20238661.204
       239.000         196.000
 -17074181.65949 -13287554.94146  21559188.858    21559188.048    21559201.671
       229.000         178.000
 -13445578.55849 -10457041.36147  19133107.303    19133107.015    19133116.342
       240.000         203.000
   3641557.36949   2837005.59547  21062506.259    21062504.979    21062516.318
       234.000         194.000
 -10862202.04749  -8444910.07947  20030614.970    20030614.249    20030623.956
       244.000         208.000
 00  5  3 16 49 29.9960000  0  7G16G 2G24G 5G 4G 7G 9
   -561326.07449   -427518.12646  23260345.030    23260344.048    23260356.999
       217.000         164.000
   4265495.11849   3322843.35146  22044462.328    22044461.008    22044474.943
       221.000         167.000
 -21361479.45649 -16610584.27147  20219134.397    20219133.837    20219145.294
       239.000         196.000
 -17181881.12749 -13371476.49646  21538694.259    21538693.449    21538707.006
       229.000         179.000
 -13475499.03649 -10480356.02847  19127413.632    19127413.356    19127422.666
       240.000         203.000
   3677959.64649   2865370.95147  21069433.434    21069432.154    21069443.524
       235.000         193.000
 -10878721.90549  -8457782.70347  20027471.275    20027470.614    20027480.315
       244.000         208.000
 00  5  3 16 49 59.9960000  0  7G16G 2G24G 5G 4G 7G 9
   -615730.24349   -469910.92246  23249992.173    23249991.198    23250004.179
       215.000         163.000
   4315142.94949   3361529.76946  22053910.014    22053908.762    22053922.885
       223.000         171.000
 -21463649.09349 -16690196.92247  20199692.032    20199691.518    20199703.009
       239.000         196.000
 -17289501.91649 -13455336.74046  21518214.676    21518213.857    21518227.391
       228.000         179.000
 -13504826.61049 -10503208.69247  19121832.763    19121832.522    19121841.808
       240.000         202.000
   3714436.08949   2893794.09947  21076374.705    21076373.448    21076384.839
       234.000         193.000
 -10894685.32649  -8470221.74447  20024433.532    20024432.874    20024442.553
       244.000         208.000
 00  5  3 16 50 29.9960000  0  7G16G 2G24G 5G 4G 7G 9
   -669667.50149   -511939.90145  23239728.189    23239727.254    23239740.233
       212.000         160.000
   4365064.96249   3400429.84446  22063409.970    22063408.717    22063422.902
       222.000         168.000
 -21565400.18949 -16769483.43947  20180329.343    20180328.856    20180340.358
       239.000         197.000
 -17397012.81849 -13539111.36846  21497755.862    21497755.112    21497768.602
       229.000         179.000
 -13533531.87949 -10525576.44947  19116370.348    19116370.103    19116379.366
       240.000         203.000
   3751015.55549   2922297.52047  21083335.579    21083334.318    21083345.747
       235.000         193.000
 -10910063.18249  -8482204.50147  20021507.190    20021506.564    20021516.250
       244.000         208.000
 00  5  3 16 50 59.9960000  0  7G16G 2G24G 5G 4G 7G 9
   -723142.54949   -553608.72745  23229552.187    23229551.233    23229564.262
       211.000         157.000
   4415254.04349   3439538.04546  22072960.828    22072959.508    22072973.671
       222.000         168.000
 -21666737.15949 -16848447.25547  20161045.510    20161045.010    20161056.510
       240.000         197.000
 -17504418.81849 -13622804.24646  21477316.980    21477316.307    21477329.821
       229.000         178.000
 -13561621.50049 -10547464.47847  19111025.108    19111024.833    19111034.099
       240.000         203.000
   3787690.73849   2950875.53747  21090314.679    21090313.420    21090324.888
       235.000         193.000
 -10924862.43249  -8493736.39547  20018691.037    20018690.373    20018700.067
       244.000         208.000
 00  5  3 16 51 29.9960000  0  7G16G 2G24G 5G 4G 7G 9
   -776148.36249   -594911.92045  23219465.479    23219464.508    23219477.526
       211.000         155.000
   4465714.52349   3478857.66246  22082563.310    22082561.948    22082576.243
       222.000         168.000
 -21767653.14449 -16927083.03847  20141841.767    20141841.282    20141852.752
       240.000         197.000
 -17611713.64249 -13706410.50646  21456899.361    21456898.702    21456912.140
       230.000         179.000
 -13589090.93749 -10568869.24847  19105797.876    19105797.600    19105806.838
       240.000         203.000
   3824465.63749   2979531.24447  21097312.759    21097311.507    21097322.998
       234.000         192.000
 -10939078.71549  -8504814.03747  20015985.831    20015985.132    20015994.807
       244.000         208.000
 00  5  3 16 51 59.9960000  0  7G16G 2G24G 5G 4G 7G 9
   -828706.87249   -635866.57545  23209463.878    23209462.905    23209475.960
       211.000         153.000
   4516422.13549   3518369.91946  22092212.906    22092211.453    22092225.703
       222.000         165.000
 -21868169.79449 -17005407.65347  20122714.013    20122713.556    20122724.999
       240.000         198.000
 -17718919.45949 -13789947.39446  21436498.607    21436497.984    21436511.448
       228.000         178.000
 -13615964.27549 -10589809.52847  19100684.054    19100683.779    19100693.038
       240.000         203.000
   3861315.78549   3008245.59247  21104325.164    21104323.899    21104335.424
       234.000         192.000
 -10952736.31249  -8515456.33047  20013386.853    20013386.178    20013395.858
       244.000         208.000
 00  5  3 16 52 29.9960000  0  7G16G 2G24G 5G 4G 7G 9
   -880818.22849   -676472.78845  23199547.387    23199546.411    23199559.437
       212.000         151.000
   4567374.16149   3558072.55846  22101908.616    22101907.361    22101921.747
       218.000         166.000
 -21968287.23049 -17083421.19347  20103662.317    20103661.814    20103673.224
       241.000         199.000
 -17826036.79349 -13873415.36546  21416114.803    21416114.154    21416127.527
       229.000         178.000
 -13642244.05749 -10610287.29847  19095683.165    19095682.914    19095692.170
       240.000         203.000
   3898238.17649   3037016.23147  21111351.268    21111350.025    21111361.589
       233.000         192.000
 -10965837.81149  -8525665.31347  20010893.735    20010893.070    20010902.731
       244.000         208.000
 00  5  3 16 52 59.9960000  0  7G16G 2G24G 5G 4G 7G 9
   -932426.73749   -716687.19445  23189726.657    23189725.610    23189738.639
       212.000         152.000
   4618623.77849   3598007.13546  22111661.379    22111659.999    22111674.476
       224.000         171.000
 -22067949.74749 -17161080.24847  20084697.186    20084696.647    20084708.026
       241.000         199.000
 -17933010.47749 -13956771.37646  21395758.270    21395757.654    21395770.989
       229.000         179.000
 -13667876.80049 -10630260.88147  19090805.397    19090805.166    19090814.445
       239.000         202.000
   3935285.60049   3065884.31247  21118401.183    21118399.968    21118411.543
       235.000         192.000
 -10978329.99549  -8535399.49747  20008516.565    20008515.911    20008525.530
       244.000         207.000
 00  5  3 16 53 29.9960000  0  7G16G 2G24G 5G 4G 7G 9
   -983570.44449   -756539.41245  23179994.378    23179993.286    23180006.260
       214.000         153.000
   4670130.90449   3638142.32846  22121462.879    22121461.591    22121476.102
       220.000         165.000
 -22167195.17349 -17238414.30047  20065811.381    20065810.837    20065822.208
       241.000         200.000
 -18039878.64849 -14040045.18146  21375421.918    21375421.234    21375434.501
       230.000         179.000
 -13692902.86049 -10649761.72847  19086043.138    19086042.884    19086052.148
       239.000         202.000
   3972417.62549   3094818.30747  21125467.259    21125466.011    21125477.581
       233.000         191.000
 -10990253.27649  -8544690.38047  20006247.711    20006247.017    20006256.604
       244.000         208.000
 00  5  3 16 53 59.9960000  0  7G16G 2G24G 5G 4G 7G 9
  -1034234.86049   -796018.16645  23170353.268    23170352.220    23170365.103
       214.000         152.000
   4721907.37349   3678487.42846  22131315.874    22131314.483    22131329.066
       219.000         167.000
 -22266008.76249 -17315411.86347  20047007.802    20047007.202    20047018.573
       241.000         200.000
 -18146627.22949 -14123225.78946  21355108.332    21355107.608    21355120.814
       229.000         180.000
 -13717310.01649 -10668780.30947  19081398.687    19081398.386    19081407.634
       240.000         203.000
   4009646.02749   3123827.39947  21132551.716    21132550.414    21132561.990
       234.000         190.000
 -11001595.59549  -8553528.57447  20004089.355    20004088.678    20004098.223
       244.000         207.000
 00  5  3 16 54 29.9960000  0  7G16G 2G24G 5G 4G 7G 9
  -1084415.84549   -835120.19745  23160804.130    23160803.109    23160815.894
       216.000         153.000
   4773955.02549   3719043.81346  22141220.344    22141218.963    22141233.702
       222.000         170.000
 -22364386.41149 -17392069.73447  20028287.136    20028286.529    20028297.900
       241.000         201.000
 -18253252.52649 -14206310.35146  21334818.108    21334817.395    21334830.532
       229.000         180.000
 -13741096.40349 -10687315.18347  19076872.363    19076872.023    19076881.266
       241.000         203.000
   4046972.26449   3152912.73147  21139654.714    21139653.410    21139664.985
       233.000         191.000
 -11012355.19849  -8561912.70247  20002041.927    20002041.219    20002050.749
       244.000         208.000
 00  5  3 16 54 59.9960000  0  7G16G 2G24G 5G 4G 7G 9
  -1134131.02149   -873859.29545  23151343.693    23151342.631    23151355.356
       215.000         153.000
   4826253.66449   3759795.79146  22151172.761    22151171.270    22151186.039
       218.000         166.000
 -22462345.71949 -17468401.62147  20009646.080    20009645.492    20009656.840
       241.000         202.000
 -18359772.48149 -14289312.80946  21314547.973    21314547.249    21314560.378
       230.000         181.000
 -13764281.83849 -10705381.77647  19072460.395    19072460.021    19072469.274
       240.000         203.000
   4084375.96149   3182058.42647  21146772.460    21146771.164    21146782.719
       234.000         191.000
 -11022552.44749  -8569858.63247  20000101.520    20000100.786    20000110.294
       245.000         208.000
 00  5  3 16 55 29.9960000  0  7G16G 2G24G 5G 4G 7G 9
  -1183368.39949   -912226.05245  23141974.124    23141973.035    23141985.699
       216.000         157.000
   4878812.96249   3800750.85646  22161174.584    22161173.111    22161187.965
       216.000         163.000
 -22559874.31549 -17544397.89647  19991087.028    19991086.416    19991097.733
       242.000         202.000
 -18466175.07049 -14372223.83146  21294300.213    21294299.427    21294312.507
       230.000         179.000
 -13786856.86249 -10722972.73647  19068164.535    19068164.170    19068173.422
       241.000         204.000
   4121866.80249   3211272.01747  21153906.797    21153905.489    21153917.021
       236.000         192.000
 -11032177.56949  -8577358.75247  19998269.976    19998269.222    19998278.709
       245.000         208.000
 00  5  3 16 55 59.9960000  0  7G16G 2G24G 5G 4G 7G 9
  -1232142.94849   -950232.14745  23132692.583    23132691.515    23132704.159
       217.000         156.000
   4931615.61049   3841895.56546  22171222.785    22171221.272    22171236.123
       223.000         171.000
 -22656987.19049 -17620070.22047  19972607.077    19972606.444    19972617.726
       241.000         202.000
 -18572475.66249 -14455055.36446  21274071.784    21274071.035    21274084.059
       230.000         180.000
 -13808838.68549 -10740101.45347  19063981.603    19063981.182    19063990.458
       240.000         203.000
   4159427.13449   3240539.76447  21161054.403    21161053.053    21161064.554
       235.000         191.000
 -11041248.33649  -8584426.90547  19996543.939    19996543.162    19996552.618
       245.000         208.000
 00  5  3 16 56 29.9960000  0  7G16G 2G24G 5G 4G 7G 9
  -1280413.29549   -987845.35545  23123507.032    23123506.009    23123518.580
       216.000         157.000
   4984700.68349   3883260.34445  22181324.687    22181323.219    22181338.113
       213.000         162.000
 -22753642.62049 -17695386.09947  19954214.174    19954213.529    19954224.771
       241.000         203.000
 -18678632.98449 -14537775.27646  21253870.575    21253869.861    21253882.868
       230.000         181.000
 -13830188.15249 -10756737.43347  19059918.955    19059918.554    19059927.810
       240.000         203.000
   4197095.88849   3269891.98347  21168222.639    21168221.262    21168232.707
       233.000         191.000
 -11049725.44949  -8591032.47447  19994930.830    19994930.046    19994939.512
       245.000         208.000
 00  5  3 16 56 59.9950000  0  7G16G 2G24G 5G 4G 7G 9
  -1328193.45249  -1025076.60145  23114414.700    23114413.738    23114426.304
       215.000         158.000
   5038048.11549   3924829.52746  22191476.532    22191475.023    22191489.962
       220.000         167.000
 -22849853.06949 -17770355.24147  19935905.901    19935905.279    19935916.509
       241.000         203.000
 -18784659.45949 -14620393.21846  21233694.309    21233693.621    21233706.579
       230.000         181.000
 -13850922.56049 -10772894.14247  19055973.335    19055972.953    19055982.202
       240.000         203.000
   4234853.68049   3299313.57747  21175407.714    21175406.388    21175417.789
       234.000         191.000
 -11057626.69949  -8597189.32047  19993427.245    19993426.509    19993435.971
       245.000         209.000
 00  5  3 16 57 29.9950000  0  7G16G 2G24G 5G 4G 7G 9
  -1375505.19649  -1061942.82845  23105411.514    23105410.592    23105423.171
       214.000         160.000
   5091640.94449   3966589.99646  22201675.052    22201673.531    22201688.478
       216.000         165.000
 -22945643.19149 -17844996.85347  19917677.599    19917677.002    19917688.230
       241.000         203.000
 -18890580.45749 -14702928.98046  21213538.191    21213537.471    21213550.402
       231.000         182.000
 -13871064.03849 -10788588.82547  19052140.519    19052140.174    19052149.391
       240.000         203.000
   4272682.08949   3328790.19247  21182606.228    21182604.959    21182616.309
       234.000         190.000
 -11064973.80149  -8602914.36447  19992029.123    19992028.419    19992037.889
       245.000         208.000
 00  5  3 16 57 59.9950000  0  7G16G 2G24G 5G 4G 7G 9
  -1422353.41149  -1098447.87245  23096496.585    23096495.656    23096508.291
       211.000         158.000
   5145468.39749   4008533.21746  22211917.975    22211916.606    22211931.747
       217.000         168.000
 -23041015.90049 -17919313.21447  19899528.737    19899528.155    19899539.402
       241.000         203.000
 -18996398.87349 -14785384.81246  21193401.491    21193400.820    21193413.718
       231.000         181.000
 -13890620.53549 -10803827.68847  19048419.059    19048418.728    19048427.929
       240.000         204.000
   4310571.08949   3358314.02547  21189816.337    21189815.057    21189826.388
       234.000         190.000
 -11071775.18249  -8608214.17247  19990734.869    19990734.186    19990743.648
       245.000         208.000
 00  5  3 16 58 29.9950000  0  7G16G 2G24G 5G 4G 7G 9
  -1468707.06949  -1134567.55345  23087675.700    23087674.830    23087687.413
       210.000         157.000
   5199558.77249   4050681.32245  22222211.260    22222209.875    22222225.087
       216.000         162.000
 -23135940.56449 -17993280.44347  19881465.150    19881464.569    19881475.830
       242.000         204.000
 -19102084.39749 -14867737.09946  21173290.289    21173289.509    21173302.332
       231.000         182.000
 -13909563.86749 -10818588.75047  19044814.341    19044813.983    19044823.150
       241.000         204.000
   4348548.87849   3387907.04147  21197043.347    21197042.043    21197053.364
       234.000         190.000
 -11078002.85749  -8613066.93347  19989549.861    19989549.139    19989558.596
       246.000         209.000
 00  5  3 16 58 59.9950000  0  7G16G 2G24G 5G 4G 7G 9
  -1514590.34849  -1170320.69645  23078944.410    23078943.495    23078956.103
       212.000         158.000
   5253886.26049   4093014.25945  22232549.536    22232548.149    22232563.360
       216.000         160.000
 -23230440.81249 -18066916.95747  19863482.385    19863481.781    19863493.042
       241.000         204.000
 -19207660.96449 -14950004.46046  21153199.665    21153198.902    21153211.734
       231.000         183.000
 -13927920.30049 -10832892.49047  19041321.322    19041320.933    19041330.062
       242.000         205.000
   4386589.33049   3417548.89947  21204282.309    21204280.978    21204292.290
       234.000         190.000
 -11083683.18149  -8617493.19147  19988469.022    19988468.263    19988477.690
       245.000         209.000
 00  5  3 16 59 29.9950000  0  7G16G 2G24G 5G 4G 7G 9
  -1559989.96449  -1205696.95745  23070305.116    23070304.184    23070316.802
       211.000         158.000
   5308461.48149   4135540.16046  22242935.021    22242933.588    22242948.917
       217.000         165.000
 -23324503.10749 -18140212.21147  19845582.957    19845582.340    19845593.564
       242.000         204.000
 -19313115.16149 -15032176.47946  21133132.411    21133131.612    21133144.403
       231.000         183.000
 -13945678.96949 -10846730.44147  19037942.046    19037941.633    19037950.718
       241.000         204.000
   4424703.11549   3447247.88847  21211535.239    21211533.846    21211545.135
       234.000         190.000
 -11088805.24549  -8621484.44047  19987494.332    19987493.597    19987503.024
       245.000         208.000
 00  5  3 16 59 59.9950000  0  7G16G 2G24G 5G 4G 7G 9
  -1604912.35049  -1240701.36645  23061756.679    23061755.716    23061768.348
       214.000         157.000
   5363275.68449   4178252.30746  22253366.126    22253364.606    22253379.991
       219.000         164.000
 -23418133.84249 -18213171.19147  19827765.688    19827765.024    19827776.227
       242.000         204.000
 -19418453.84849 -15114258.47646  21113087.066    21113086.268    21113099.016
       230.000         183.000
 -13962848.71949 -10860109.49347  19034674.818    19034674.378    19034683.448
       241.000         204.000
   4462881.36549   3476997.09147  21218800.290    21218798.966    21218810.275
       232.000         190.000
 -11093378.43649  -8625047.99847  19986624.088    19986623.366    19986632.817
       245.000         208.000
 00  5  3 17  0 29.9950000  0  7G16G 2G24G 5G 4G 7G 9
  -1649336.94649  -1275317.90445  23053302.972    23053301.995    23053314.639
       213.000         159.000
   5418347.15949   4221164.98746  22263846.242    22263844.610    22263859.834
       213.000         163.000
 -23511312.40349 -18285777.82147  19810034.423    19810033.738    19810044.936
       242.000         204.000
 -19523656.03149 -15196234.12446  21093067.761    21093066.928    21093079.627
       232.000         184.000
 -13979411.24249 -10873015.38147  19031523.100    19031522.679    19031531.714
       241.000         204.000
   4501142.51549   3506810.89847  21226081.279    21226079.897    21226091.166
       233.000         189.000
 -11097384.53849  -8628169.66747  19985861.771    19985861.046    19985870.514
       245.000         208.000
 00  5  3 17  0 59.9950000  0  7G16G 2G24G 5G 4G 7G 9
  -1693268.62749  -1309550.33145  23044943.063    23044942.061    23044954.654
       217.000         159.000
   5473668.67149   4264272.37546  22274373.768    22274372.151    22274387.481
       217.000         168.000
 -23604043.28449 -18358035.61047  19792388.306    19792387.619    19792398.819
       242.000         204.000
 -19628726.45849 -15278107.08846  21073073.431    21073072.615    21073085.252
       232.000         184.000
 -13995373.64449 -10885453.64447  19028485.579    19028485.151    19028494.214
       240.000         203.000
   4539479.51549   3536683.80747  21233376.598    21233375.227    21233386.546
       233.000         189.000
 -11100830.51049  -8630854.87547  19985206.044    19985205.319    19985214.758
       245.000         207.000
 00  5  3 17  1 29.9950000  0  7G16G 2G24G 5G 4G 7G 9
  -1736702.68749  -1343395.02745  23036677.836    23036676.852    23036689.429
       216.000         159.000
   5529242.88349   4307576.74545  22284949.540    22284947.879    22284963.111
       219.000         162.000
 -23696321.37849 -18429940.58647  19774828.317    19774827.666    19774838.854
       242.000         204.000
 -19733660.30549 -15359873.62946  21053105.124    21053104.312    21053116.978
       231.000         183.000
 -14010733.69049 -10897422.54647  19025562.651    19025562.253    19025571.330
       240.000         204.000
   4577894.92449   3566617.81047  21240686.866    21240685.492    21240696.821
       233.000         189.000
 -11103714.20649  -8633101.94747  19984657.308    19984656.599    19984666.031
       245.000         207.000
 00  5  3 17  1 59.9950000  0  7G16G 2G24G 5G 4G 7G 9
  -1779642.40149  -1376854.52245  23028506.593    23028505.635    23028518.244
       215.000         158.000
   5585064.00949   4351073.45546  22295572.030    22295570.468    22295585.701
       217.000         163.000
 -23788150.10249 -18501495.39647  19757353.801    19757353.197    19757364.392
       242.000         203.000
 -19838461.00349 -15441536.43446  21033162.200    21033161.345    21033173.911
       232.000         184.000
 -14025497.19649 -10908926.60347  19022753.251    19022752.861    19022761.965
       240.000         203.000
   4616382.85449   3596608.32247  21248010.859    21248009.545    21248020.898
       233.000         189.000
 -11106041.81849  -8634915.70147  19984214.399    19984213.696    19984223.109
       245.000         207.000
 00  5  3 17  2 29.9950000  0  7G16G 2G24G 5G 4G 7G 9
  -1822084.06049  -1409925.90745  23020430.155    23020429.182    23020441.785
       215.000         157.000
   5641133.70549   4394763.96246  22306242.231    22306240.496    22306255.661
       222.000         166.000
 -23879525.48549 -18572696.95147  19739965.581    19739965.009    19739976.191
       243.000         204.000
 -19943124.43649 -15523092.25246  21013245.286    21013244.492    21013257.057
       232.000         184.000
 -14039662.55349 -10919964.56947  19020057.663    19020057.296    19020066.406
       240.000         204.000
   4654945.23449   3626656.85547  21255349.093    21255347.746    21255359.130
       232.000         188.000
 -11107811.65649  -8636294.82447  19983877.641    19983876.930    19983886.338
       245.000         207.000
 00  5  3 17  2 59.9950000  0  7G16G 2G24G 5G 4G 7G 9
  -1864020.22749  -1442603.42845  23012449.866    23012448.980    23012461.484
       217.000         158.000
   5697457.27949   4438652.23646  22316960.471    22316958.721    22316973.947
       215.000         165.000
 -23970439.65749 -18643539.12947  19722665.116    19722664.589    19722675.749
       243.000         203.000
 -20047642.93649 -15604535.16646  20993356.004    20993355.210    20993367.697
       232.000         183.000
 -14053224.72449 -10930532.52647  19017476.854    19017476.507    19017485.633
       240.000         203.000
   4693587.26849   3656767.45247  21262702.380    21262701.106    21262712.518
       232.000         188.000
 -11109018.75149  -8637235.44847  19983647.952    19983647.231    19983656.669
       245.000         207.000
 00  5  3 17  3 29.9950000  0  7G16G 2G24G 5G 4G 7G 9
  -1905456.72849  -1474891.59745  23004564.724    23004563.862    23004576.330
       217.000         157.000
   5754026.36949   4482731.78246  22327725.269    22327723.572    22327738.902
       219.000         163.000
 -24060898.44249 -18714026.46247  19705451.359    19705450.829    19705461.964
       242.000         203.000
 -20152022.41549 -15685869.72146  20973493.069    20973492.342    20973504.901
       232.000         185.000
 -14066192.05349 -10940636.95347  19015009.254    19015008.912    19015018.055
       240.000         204.000
   4732300.93549   3686933.86146  21270069.360    21270068.105    21270079.590
       233.000         187.000
 -11109671.75849  -8637744.31047  19983523.626    19983522.967    19983532.446
       244.000         207.000
 00  5  3 17  3 59.9950000  0  7G16G 2G24G 5G 4G 7G 9
  -1946393.10949  -1506790.04145  22996774.769    22996773.907    22996786.394
       217.000         159.000
   5810839.49449   4527001.59246  22338536.854    22338535.062    22338550.312
       215.000         165.000
 -24150900.93049 -18784158.23847  19688324.398    19688323.902    19688335.014
       244.000         203.000
 -20256261.88049 -15767095.20646  20953656.913    20953656.189    20953668.610
       231.000         184.000
 -14078566.32749 -10950279.27147  19012654.513    19012654.180    19012663.341
       241.000         204.000
   4771084.80649   3717154.97846  21277449.689    21277448.461    21277460.014
       232.000         187.000
 -11109772.62149  -8637822.92947  19983504.422    19983503.770    19983513.313
       245.000         207.000
 00  5  3 17  4 29.9950000  0  7G16G 2G24G 5G 4G 7G 9
  -1986838.91349  -1538306.22045  22989078.143    22989077.249    22989089.763
       217.000         158.000
   5867884.96849   4571452.35846  22349392.116    22349390.513    22349405.936
       217.000         164.000
 -24240456.64849 -18853941.88047  19671282.540    19671281.987    19671293.084
       242.000         204.000
 -20360370.71749 -15848218.87246  20933845.492    20933844.844    20933857.325
       231.000         185.000
 -14090359.47449 -10959468.76147  19010410.352    19010410.042    19010419.219
       240.000         204.000
   4809926.89849   3747421.47147  21284841.133    21284839.913    21284851.468
       234.000         188.000
 -11109333.68649  -8637480.92147  19983587.934    19983587.302    19983596.890
       244.000         207.000
 00  5  3 17  4 59.9950000  0  7G16G 2G24G 5G 4G 7G 9
  -2026771.38449  -1569422.41345  22981479.265    22981478.320    22981490.842
       215.000         157.000
   5925183.02949   4616100.02746  22360295.982    22360294.258    22360309.588
       213.000         164.000
 -24329542.62349 -18923359.48747  19654329.980    19654329.456    19654340.516
       243.000         204.000
 -20464325.91349 -15929222.83346  20914063.434    20914062.766    20914075.156
       232.000         185.000
 -14101551.35549 -10968189.72947  19008280.635    19008280.314    19008289.514
       241.000         204.000
   4848848.07149   3777749.58847  21292247.644    21292246.395    21292257.974
       233.000         188.000
 -11108334.51549  -8636702.37347  19983778.092    19983777.446    19983787.048
       244.000         207.000
 00  5  3 17  5 29.9950000  0  7G16G 2G24G 5G 4G 7G 9
  -2066201.59249  -1600147.21845  22973975.889    22973974.951    22973987.483
       214.000         155.000
   5982720.77749   4660934.35146  22371244.989    22371243.457    22371259.000
       219.000         165.000
 -24418169.50749 -18992419.36547  19637464.808    19637464.295    19637475.313
       243.000         204.000
 -20568138.14949 -16010115.38846  20894308.458    20894307.857    20894320.299
       231.000         185.000
 -14112155.27549 -10976452.54447  19006262.780    19006262.480    19006271.686
       240.000         204.000
   4887835.53349   3808129.35546  21299666.734    21299665.512    21299677.133
       233.000         186.000
 -11106788.39849  -8635497.63347  19984072.310    19984071.697    19984081.276
       244.000         207.000
 00  5  3 17  5 59.9950000  0  7G16G 2G24G 5G 4G 7G 9
  -2105120.86149  -1630473.88545  22966569.780    22966568.836    22966581.349
       213.000         156.000
   6040504.62949   4705960.54245  22382240.920    22382239.497    22382255.002
       215.000         157.000
 -24506328.46149 -19061114.62347  19620688.673    19620688.165    19620699.160
       243.000         203.000
 -20671798.52249 -16090889.62846  20874582.513    20874581.867    20874594.253
       232.000         185.000
 -14122164.82249 -10984252.22147  19004358.015    19004357.740    19004366.956
       240.000         204.000
   4926895.71649   3838565.78746  21307099.727    21307098.478    21307110.107
       233.000         186.000
 -11104689.42649  -8633862.10247  19984471.738    19984471.131    19984480.675
       244.000         206.000
 00  5  3 17  6 29.9950000  0  7G16G 2G24G 5G 4G 7G 9
  -2143530.72749  -1660403.62745  22959260.551    22959259.632    22959272.170
       213.000         156.000
   6098530.58049   4751175.34046  22393283.124    22393281.722    22393297.254
       218.000         165.000
 -24594021.01349 -19129446.45047  19604001.267    19604000.797    19604011.759
       244.000         203.000
 -20775308.36349 -16171546.54546  20854885.146    20854884.506    20854896.945
       231.000         186.000
 -14131584.20049 -10991592.01647  19002565.528    19002565.295    19002574.540
       240.000         204.000
   4966025.02849   3869056.09746  21314545.867    21314544.591    21314556.251
       232.000         186.000
 -11102041.71349  -8631798.97747  19984975.624    19984974.986    19984984.527
       245.000         206.000
 00  5  3 17  6 59.9950000  0  7G16G 2G24G 5G 4G 7G 9
  -2181414.10549  -1689923.11045  22952051.601    22952050.623    22952063.147
       212.000         156.000
   6156814.08949   4796590.81545  22404374.161    22404372.845    22404388.377
       217.000         160.000
 -24681229.27949 -19197400.90947  19587406.060    19587405.586    19587416.532
       243.000         204.000
 -20878649.50949 -16252072.02146  20835219.908    20835219.253    20835231.700
       232.000         186.000
 -14140398.34449 -10998460.19947  19000888.255    19000888.022    19000897.280
       240.000         204.000
   5005239.04649   3899612.41046  21322008.032    21322006.798    21322018.459
       231.000         186.000
 -11098830.17649  -8629296.51047  19985586.746    19985586.149    19985595.687
       245.000         207.000
 00  5  3 17  7 29.9950000  0  7G16G 2G24G 5G 4G 7G 9
  -2218780.37249  -1719039.64245  22944940.995    22944940.012    22944952.530
       213.000         156.000
   6215343.25449   4842197.77246  22415512.258    22415510.773    22415526.288
       219.000         166.000
 -24767962.89449 -19264985.51647  19570901.145    19570900.688    19570911.632
       243.000         203.000
 -20981831.35449 -16332473.36546  20815584.954    20815584.304    20815596.775
       233.000         187.000
 -14148619.37149 -11004866.21747  18999323.857    18999323.615    18999332.873
       241.000         204.000
   5044526.06449   3930225.61446  21329484.129    21329482.898    21329494.537
       231.000         184.000
 -11095067.15649  -8626364.31547  19986302.879    19986302.239    19986311.810
       245.000         207.000
 00  5  3 17  7 59.9950000  0  7G16G 2G24G 5G 4G 7G 9
  -2255640.85249  -1747762.04045  22937926.705    22937925.701    22937938.154
       213.000         155.000
   6274104.90549   4887985.80445  22426694.184    22426692.803    22426708.550
       215.000         159.000
 -24854232.70149 -19332208.71247  19554484.505    19554484.053    19554494.999
       243.000         203.000
 -21084864.44449 -16412758.79146  20795978.301    20795977.682    20795990.135
       232.000         187.000
 -14156260.74949 -11010820.55847  18997869.767    18997869.519    18997878.799
       240.000         204.000
   5083873.22149   3960885.66846  21336971.704    21336970.469    21336982.133
       233.000         184.000
 -11090766.42449  -8623013.12547  19987121.303    19987120.646    19987130.245
       244.000         207.000
 00  5  3 17  8 29.9950000  0  7G16G 2G24G 5G 4G 7G 9
  -2291988.31149  -1776084.68745  22931009.959    22931008.950    22931021.400
       212.000         155.000
   6333104.31049   4933959.21245  22437921.782    22437920.293    22437935.959
       209.000         156.000
 -24940031.02149 -19399064.51747  19538157.606    19538157.143    19538168.092
       243.000         203.000
 -21187741.06949 -16492922.29846  20776401.508    20776400.846    20776413.301
       232.000         187.000
 -14163317.71449 -11016319.50847  18996526.883    18996526.644    18996535.911
       240.000         204.000
   5123285.96649   3991596.82446  21344471.751    21344470.517    21344482.237
       231.000         186.000
 -11085923.28449  -8619239.28447  19988042.889    19988042.277    19988051.904
       244.000         206.000
 00  5  3 17  8 59.9950000  0  7G16G 2G24G 5G 4G 7G 9
  -2327794.90849  -1803985.87545  22924196.188    22924195.155    22924207.560
       216.000         160.000
   6392367.24549   4980137.87945  22449198.894    22449197.569    22449213.503
       214.000         157.000
 -25025329.91149 -19465531.15747  19521925.729    19521925.275    19521936.214
       243.000         203.000
 -21290433.09349 -16572941.96047  20756859.790    20756859.127    20756871.624
       233.000         188.000
 -14169764.73949 -11021343.17847  18995300.070    18995299.813    18995309.105
       240.000         204.000
   5162790.15549   4022379.28646  21351989.323    21351988.019    21351999.639
       230.000         184.000
 -11080512.43249  -8615023.06647  19989072.529    19989071.924    19989081.580
       244.000         206.000
 00  5  3 17  9 29.9950000  0  7G16G 2G24G 5G 4G 7G 9
  -2363079.93349  -1831480.64745  22917481.704    22917480.661    22917493.014
       216.000         162.000
   6451871.95549   5026505.03145  22460522.591    22460521.173    22460537.049
       214.000         158.000
 -25110148.57149 -19531623.59247  19505785.225    19505784.778    19505795.725
       243.000         204.000
 -21392959.36849 -16652832.46746  20737349.581    20737348.936    20737361.411
       232.000         187.000
 -14175623.73349 -11025908.64747  18994185.127    18994184.886    18994194.187
       240.000         205.000
   5202364.81649   4053216.62446  21359520.091    21359518.841    21359530.486
       231.000         184.000
 -11074555.56549  -8610381.38347  19990206.089    19990205.497    19990215.138
       244.000         206.000
 00  5  3 17  9 59.9950000  0  7G16G 2G24G 5G 4G 7G 9
  -2397823.87349  -1858553.79546  22910870.157    22910869.107    22910881.437
       218.000         163.000
   6511636.13849   5073074.29345  22471895.528    22471894.046    22471909.981
       217.000         158.000
 -25194466.94749 -19597326.20247  19489739.892    19489739.490    19489750.434
       243.000         204.000
 -21495299.43949 -16732577.88846  20717874.878    20717874.214    20717886.700
       233.000         187.000
 -14180877.36749 -11030002.40447  18993185.425    18993185.160    18993194.493
       241.000         205.000
   5242027.62449   4084122.63146  21367067.694    21367066.488    21367078.208
       229.000         183.000
 -11068035.74649  -8605301.04347  19991446.778    19991446.183    19991455.829
       244.000         206.000
 00  5  3 17 10 29.9950000  0  7G16G 2G24G 5G 4G 7G 9
  -2432062.13349  -1885232.91945  22904354.794    22904353.768    22904366.103
       217.000         162.000
   6571622.44649   5119816.70045  22483310.617    22483309.161    22483325.118
       213.000         149.000
 -25278320.27149 -19662666.42647  19473783.112    19473782.695    19473793.659
       243.000         204.000
 -21597488.14949 -16812205.35447  20698428.824    20698428.245    20698440.748
       233.000         188.000
 -14185563.58549 -11033654.02747  18992293.686    18992293.419    18992302.759
       241.000         205.000
   5281741.47749   4115068.44546  21374625.018    21374623.805    21374635.557
       229.000         186.000
 -11060990.59449  -8599811.34747  19992787.415    19992786.849    19992796.485
       244.000         206.000
 00  5  3 17 10 59.9950000  0  7G16G 2G24G 5G 4G 7G 9
  -2465786.16449  -1911511.33945  22897937.319    22897936.289    22897948.645
       217.000         162.000
   6631837.26849   5166737.14345  22494769.382    22494767.870    22494783.915
       216.000         162.000
 -25361699.55949 -19727637.27747  19457916.551    19457916.122    19457927.088
       243.000         204.000
 -21699516.25949 -16891707.69347  20679013.567    20679012.885    20679025.384
       234.000         189.000
 -14189676.10349 -11036858.60547  18991511.115    18991510.849    18991520.199
       241.000         206.000
   5321513.45249   4146059.53946  21382193.455    21382192.217    21382204.018
       228.000         183.000
 -11053414.23349  -8593907.72947  19994229.189    19994228.605    19994238.219
       244.000         206.000
 00  5  3 17 11 29.9950000  0  7G16G 2G24G 5G 4G 7G 9
  -2498992.84049  -1937386.65045  22891618.262    22891617.246    22891629.583
       216.000         160.000
   6692282.01049   5213836.67645  22506271.715    22506270.192    22506286.426
       216.000         155.000
 -25444601.58649 -19792236.23347  19442140.803    19442140.365    19442151.357
       243.000         205.000
 -21801380.18849 -16971082.09247  20659629.343    20659628.726    20659641.262
       234.000         188.000
 -14193214.36549 -11039615.71147  18990837.806    18990837.561    18990846.928
       241.000         206.000
   5361344.76149   4177096.88846  21389773.206    21389771.914    21389783.702
       227.000         182.000
 -11045306.28949  -8587589.89247  19995772.133    19995771.514    19995781.129
       244.000         206.000
 00  5  3 17 11 59.9950000  0  7G16G 2G24G 5G 4G 7G 9
  -2531662.89049  -1962843.78045  22885401.345    22885400.349    22885412.624
       214.000         158.000
   6752973.61649   5261128.75745  22517821.298    22517819.701    22517835.762
       218.000         158.000
 -25527006.66449 -19856447.95547  19426459.610    19426459.170    19426470.188
       242.000         205.000
 -21903059.77949 -17050312.84947  20640280.337    20640279.679    20640292.227
       234.000         189.000
 -14196161.27749 -11041912.02847  18990277.033    18990276.777    18990286.176
       241.000         206.000
   5401253.22449   4208194.31246  21397367.567    21397366.299    21397378.182
       230.000         184.000
 -11036649.81749  -8580844.63047  19997419.462    19997418.809    19997428.440
       244.000         206.000
 00  5  3 17 12 29.9950000  0  7G16G 2G24G 5G 4G 7G 9
  -2563804.45049  -1987889.11145  22879284.946    22879283.950    22879296.207
       211.000         153.000
   6813902.12449   5308605.24645  22529415.583    22529414.021    22529430.436
       206.000         150.000
 -25608922.72249 -19920278.62347  19410871.457    19410871.026    19410882.079
       242.000         205.000
 -22004562.67849 -17129405.93747  20620964.929    20620964.266    20620976.743
       235.000         189.000
 -14198527.63049 -11043755.96347  18989826.731    18989826.486    18989835.896
       241.000         205.000
   5441228.97949   4239344.18946  21404974.629    21404973.433    21404985.405
       229.000         186.000
 -11027455.53449  -8573680.29747  19999169.129    19999168.452    19999178.115
       244.000         206.000
 00  5  3 17 12 59.9950000  0  7G16G 2G24G 5G 4G 7G 9
  -2595424.53749  -2012528.11145  22873267.708    22873266.789    22873279.109
       211.000         154.000
   6875058.39049   5356259.29845  22541053.376    22541051.831    22541068.256
       215.000         159.000
 -25690356.47149 -19983733.46747  19395375.139    19395374.676    19395385.769
       242.000         205.000
 -22105894.70849 -17208365.87347  20601682.070    20601681.372    20601693.855
       235.000         190.000
 -14200322.84449 -11045154.85047  18989485.103    18989484.875    18989494.306
       241.000         205.000
   5481263.38549   4270539.78546  21412593.026    21412591.812    21412603.719
       228.000         182.000
 -11017732.73849  -8566104.13647  20001019.321    20001018.660    20001028.381
       244.000         207.000
 00  5  3 17 13 29.9950000  0  7G16G 2G24G 5G 4G 7G 9
  -2626537.51849  -2036771.93645  22867347.058    22867346.099    22867358.451
       211.000         156.000
   6936426.60249   5404078.46645  22552731.574    22552729.979    22552746.491
       213.000         152.000
 -25771321.69849 -20046823.22947  19379967.948    19379967.473    19379978.589
       242.000         205.000
 -22207069.09049 -17287202.97447  20582429.080    20582428.459    20582440.902
       235.000         190.000
 -14201563.19749 -11046121.38547  18989249.064    18989248.848    18989258.299
       241.000         206.000
   5521341.09249   4301769.09446  21420219.684    21420218.416    21420230.432
       229.000         181.000
 -11007498.59749  -8558129.53347  20002966.867    20002966.177    20002975.937
       244.000         207.000
 00  5  3 17 13 59.9950000  0  7G16G 2G24G 5G 4G 7G 9
  -2657120.63949  -2060602.88645  22861527.285    22861526.325    22861538.684
       210.000         159.000
   6998027.23949   5452078.77845  22564453.923    22564452.343    22564468.906
       208.000         151.000
 -25851795.51949 -20109530.07547  19364654.240    19364653.787    19364664.917
       241.000         204.000
 -22308062.57949 -17365899.11847  20563210.657    20563210.002    20563222.418
       234.000         189.000
 -14202228.50749 -11046639.83347  18989122.490    18989122.245    18989131.705
       241.000         205.000
   5561482.88049   4333048.37946  21427858.462    21427857.191    21427869.151
       229.000         187.000
 -10996732.60349  -8549740.49447  20005015.608    20005014.907    20005024.714
       244.000         207.000
 00  5  3 17 14 29.9950000  0  8G16G 2G30G24G 5G 4G 7G 9
  -2687170.46349  -2084018.29145  22855808.950    22855808.034    22855820.381
       211.000         162.000
   7059861.58749   5500261.17245  22576220.728    22576219.186    22576235.876
       215.000         154.000
   -200374.63955                  23712343.883                    23712364.322
       215.000         140.000
 -25931774.25349 -20171851.14147  19349434.766    19349434.312    19349445.438
       241.000         204.000
 -22408871.12049 -17444451.14947  20544027.394    20544026.709    20544039.130
       235.000         191.000
 -14202318.01149 -11046709.60447  18989105.436    18989105.225    18989114.672
       241.000         205.000
   5601690.62549   4364378.98946  21435509.637    21435508.471    21435520.466
       232.000         182.000
 -10985434.09549  -8540936.51247  20007165.680    20007164.974    20007174.803
       244.000         207.000
 00  5  3 17 14 59.9950000  0  8G16G 2G30G24G 5G 4G 7G 9
  -2716703.86849  -2107031.31546  22850188.786    22850187.956    22850200.323
       213.000         164.000
   7121910.87449   5548611.07745  22588028.616    22588026.980    22588043.603
       215.000         157.000
   -410377.47949   -297634.90145  23688592.186    23688592.731    23688609.482
       214.000         143.000
 -26011274.24049 -20233799.15247  19334306.396    19334305.951    19334317.060
       241.000         204.000
 -22509510.55649 -17522871.40547  20524876.241    20524875.587    20524887.969
       236.000         190.000
 -14201850.73549 -11046345.52047  18989194.387    18989194.174    18989203.574
       241.000         205.000
   5641946.32949   4395746.99846  21443170.180    21443168.950    21443181.022
       225.000         183.000
 -10973621.88249  -8531732.24047  20009413.526    20009412.809    20009422.640
       244.000         207.000
 00  5  3 17 15 29.9950000  0  8G16G 2G30G24G 5G 4G 7G 9
  -2745711.04749  -2129634.27546  22844668.870    22844668.032    22844680.433
       215.000         165.000
   7184183.15949   5597134.72145  22599878.819    22599877.113    22599893.819
       216.000         156.000
   -535237.63559   -394928.55455  23664832.182    23664832.838    23664849.001
       210.000         133.000
 -26090285.49349 -20295366.33847  19319271.061    19319270.573    19319281.690
       241.000         204.000
 -22609970.19649 -17601151.55947  20505759.305    20505758.693    20505771.088
       235.000         190.000
 -14200819.40449 -11045541.91347  18989390.702    18989390.444    18989399.829
       241.000         205.000
   5682258.36749   4427158.93246  21450841.405    21450840.153    21450852.116
       229.000         184.000
 -10961288.98249  -8522122.24147  20011760.406    20011759.718    20011769.578
       244.000         207.000
 00  5  3 17 15 59.9950000  0  8G16G 2G30G24G 5G 4G 7G 9
  -2774180.74149  -2151818.41446  22839251.298    22839250.413    22839262.807
       212.000         163.000
   7246687.75649   5645839.40445  22611773.008    22611771.445    22611788.139
       210.000         149.000
   -660128.71249   -492246.29545  23641066.204    23641066.778    23641082.570
       214.000         144.000
 -26168796.38949 -20356543.62947  19304330.888    19304330.413    19304341.548
       240.000         204.000
 -22710237.91149 -17679282.16947  20486678.922    20486678.312    20486690.657
       234.000         190.000
 -14199214.86549 -11044291.64847  18989696.102    18989695.812    18989705.162
       242.000         205.000
   5722636.44349   4458622.28346  21458525.174    21458523.894    21458535.965
       230.000         183.000
 -10948426.56749  -8512099.63447  20014208.050    20014207.385    20014217.273
       244.000         207.000
 00  5  3 17 16 29.9950000  0  8G16G 2G30G24G 5G 4G 7G 9
  -2802094.22749  -2173569.15845  22833939.457    22833938.606    22833951.021
       211.000         161.000
   7309441.58049   5694738.37145  22623714.986    22623713.389    22623729.958
       206.000         151.000
   -785031.80749   -589573.34245  23617297.926    23617297.998    23617315.061
       211.000         147.000
 -26246787.90849 -20417316.21447  19289489.570    19289489.101    19289500.254
       241.000         204.000
 -22810293.77649 -17757247.70647  20467638.899    20467638.262    20467650.586
       236.000         190.000
 -14197021.14949 -11042582.28747  18990113.627    18990113.303    18990122.630
       242.000         205.000
   5763097.96749   4490150.67246  21466224.675    21466223.450    21466235.550
       229.000         183.000
 -10935018.57649  -8501651.90347  20016759.543    20016758.867    20016768.798
       244.000         207.000
 00  5  3 17 16 59.9950000  0  8G16G 2G30G24G 5G 4G 7G 9
  -2829479.15349  -2194908.04145  22828728.172    22828727.360    22828739.755
       209.000         158.000
   7372415.22349   5743808.48345  22635698.275    22635696.870    22635713.683
       204.000         150.000
   -909974.22749   -686930.96545  23593522.311    23593522.267    23593539.510
       217.000         146.000
 -26324287.24649 -20477705.28547  19274741.932    19274741.438    19274752.602
       241.000         205.000
 -22910164.55249 -17835069.01547  20448633.970    20448633.388    20448645.682
       235.000         190.000
 -14194267.83949 -11040436.87947  18990637.590    18990637.258    18990646.598
       241.000         206.000
   5803614.06849   4521721.59246  21473934.645    21473933.446    21473945.583
       224.000         180.000
 -10921094.87749  -8490802.32647  20019409.161    20019408.501    20019418.442
       244.000         207.000
 00  5  3 17 17 29.9950000  0  8G16G 2G30G24G 5G 4G 7G 9
  -2856335.95949  -2215835.37945  22823617.459    22823616.606    22823629.092
       206.000         157.000
   7435606.31149   5793048.05145  22647723.211    22647721.904    22647738.714
       213.000         153.000
  -1034955.68249   -784319.18645  23569739.144    23569739.148    23569756.339
       210.000         135.000
 -26401294.48849 -20537710.90447  19260087.896    19260087.428    19260098.577
       241.000         204.000
 -23009849.46849 -17912745.49247  20429664.550    20429663.922    20429676.179
       235.000         190.000
 -14190958.07749 -11037857.87447  18991267.434    18991267.113    18991276.452
       241.000         206.000
   5844182.96549   4553333.65246  21481654.606    21481653.470    21481665.614
       230.000         181.000
 -10906658.56749  -8479553.31247  20022156.366    20022155.674    20022165.616
       244.000         206.000
 00  5  3 17 17 59.9950000  0  8G16G 2G30G24G 5G 4G 7G 9
  -2882635.30549  -2236328.36245  22818612.755    22818611.952    22818624.472
       208.000         154.000
   7499042.32449   5842478.53145  22659794.883    22659793.630    22659810.455
       209.000         150.000
  -1159946.65449   -881714.69045  23545953.955    23545953.847    23545971.195
       212.000         142.000
 -26477780.04049 -20597310.01147  19245533.203    19245532.684    19245543.812
       241.000         203.000
 -23109318.50249 -17990253.75747  20410736.140    20410735.526    20410747.782
       236.000         190.000
 -14187064.72049 -11034824.12747  18992008.366    18992008.019    18992017.365
       241.000         206.000
   5884832.77849   4585008.74146  21489389.989    21489388.904    21489401.138
       228.000         182.000
 -10891682.66849  -8467883.84047  20025006.245    20025005.539    20025015.464
       244.000         206.000
 00  5  3 17 18 29.9950000  0  8G16G 2G30G24G 5G 4G 7G 9
  -2908395.39749  -2256401.12745  22813710.705    22813709.918    22813722.427
       210.000         156.000
   7562703.50949   5892084.43645  22671909.400    22671908.067    22671925.036
       207.000         148.000
  -1284964.82549   -979131.38845  23522163.833    23522163.658    23522181.093
       211.000         144.000
 -26553761.65049 -20656516.43947  19231074.353    19231073.832    19231084.915
       240.000         203.000
 -23208588.47749 -18067606.90747  20391845.661    20391845.020    20391857.209
       236.000         191.000
 -14182608.18749 -11031351.54247  18992856.392    18992856.089    18992865.442
       242.000         206.000
   5925544.11149   4616731.80146  21497137.209    21497136.045    21497148.240
       225.000         179.000
 -10876187.80349  -8455809.98047  20027954.880    20027954.153    20027964.072
       244.000         206.000
 00  5  3 17 18 59.9950000  0  8G16G 2G30G24G 5G 4G 7G 9
  -2933590.98349  -2276033.99745  22808916.092    22808915.301    22808927.803
       213.000         157.000
   7626613.14249   5941883.90245  22684071.143    22684069.797    22684086.915
       208.000         149.000
  -1409984.41849  -1076549.24245  23498373.198    23498373.118    23498390.730
       209.000         142.000
 -26629213.59149 -20715310.13847  19216716.279    19216715.770    19216726.818
       241.000         203.000
 -23307633.04949 -18144784.41847  20372998.074    20372997.402    20373009.585
       234.000         190.000
 -14177565.93949 -11027422.55847  18993815.948    18993815.629    18993824.993
       242.000         206.000
   5966340.98149   4648521.49546  21504900.745    21504899.536    21504911.760
       224.000         176.000
 -10860151.27049  -8443314.04347  20031006.590    20031005.850    20031015.759
       244.000         206.000
 00  5  3 17 19 29.9950000  0  8G16G 2G30G24G 5G 4G 7G 9
  -2958234.66649  -2295236.82845  22804226.603    22804225.710    22804238.198
       213.000         157.000
   7690756.64449   5991865.61445  22696277.515    22696276.074    22696293.322
       206.000         148.000
  -1535017.76649  -1173977.78145  23474579.943    23474579.972    23474597.628
       206.000         135.000
 -26704148.33149 -20773700.82847  19202456.643    19202456.116    19202467.155
       240.000         203.000
 -23406463.54749 -18221795.13247  20354191.265    20354190.533    20354202.618
       235.000         191.000
 -14171952.73449 -11023048.66947  18994884.121    18994883.806    18994893.185
       242.000         206.000
   6007209.60449   4680367.12546  21512677.752    21512676.578    21512688.894
       231.000         187.000
 -10843588.11549  -8430407.74647  20034158.440    20034157.740    20034167.687
       243.000         206.000
 00  5  3 17 19 59.9950000  0  8G16G 2G30G24G 5G 4G 7G 9
  -2982352.45149  -2314029.87545  22799637.099    22799636.168    22799648.695
       213.000         157.000
   7755106.66249   6042008.24945  22708522.856    22708521.540    22708538.773
       211.000         140.000
  -1660089.70649  -1271436.42045  23450779.505    23450779.455    23450797.149
       212.000         142.000
 -26778591.22949 -20831708.26347  19188290.543    19188290.057    19188301.105
       240.000         203.000
 -23505104.69049 -18298658.28747  20335420.392    20335419.690    20335431.738
       235.000         191.000
 -14165796.83449 -11018251.91047  18996055.564    18996055.248    18996064.649
       241.000         206.000
   6048123.04749   4712247.68046  21520463.474    21520462.230    21520474.502
       229.000         178.000
 -10826526.38949  -8417112.95947  20037405.191    20037404.503    20037414.500
       243.000         206.000
 00  5  3 17 20 29.9950000  0  8G16G 2G30G24G 5G 4G 7G 9
  -3005934.64449  -2332405.55445  22795149.569    22795148.625    22795161.087
       214.000         155.000
   7819670.97749   6092317.95845  22720809.427    22720808.013    22720825.112
       210.000         155.000
  -1785189.94649  -1368917.09945  23426973.610    23426973.650    23426991.248
       207.000         140.000
 -26852532.43249 -20889324.76347  19174219.931    19174219.468    19174230.538
       242.000         203.000
 -23603545.68049 -18375365.48547  20316687.677    20316686.944    20316698.956
       235.000         192.000
 -14159090.96649 -11013026.59947  18997331.657    18997331.356    18997340.776
       242.000         206.000
   6089089.80149   4744169.74746  21528259.034    21528257.927    21528270.330
       225.000         176.000
 -10808959.16749  -8403424.27847  20040748.151    20040747.467    20040757.507
       244.000         206.000
 00  5  3 17 20 59.9950000  0  8G16G 2G30G24G 5G 4G 7G 9
  -3028992.71249  -2350372.83245  22790761.754    22790760.812    22790773.192
       215.000         155.000
   7884436.44749   6142784.23545  22733133.821    22733132.549    22733150.011
       202.000         145.000
  -1910329.42149  -1466428.29145  23403160.311    23403160.335    23403178.014
       215.000         146.000
 -26925982.95949 -20946558.91547  19160242.753    19160242.285    19160253.355
       242.000         204.000
 -23701796.84249 -18451924.76447  20297990.989    20297990.298    20298002.246
       236.000         191.000
 -14151849.01849 -11007383.56547  18998709.721    18998709.456    18998718.915
       241.000         205.000
   6130097.18249   4776123.55846  21536062.712    21536061.479    21536073.774
       232.000         182.000
 -10790900.38149  -8389352.55747  20044184.734    20044183.986    20044194.056
       243.000         206.000
 00  5  3 17 21 29.9950000  0  8G16G 2G30G24G 5G 4G 7G 9
  -3051503.61349  -2367913.73145  22786478.129    22786477.117    22786489.413
       214.000         153.000
   7949424.17549   6193423.87845  22745500.832    22745499.501    22745516.730
       210.000         148.000
  -2035484.60349  -1563951.80645  23379344.218    23379344.186    23379361.806
       210.000         141.000
 -26998919.57449 -21003392.62647  19146363.392    19146362.905    19146373.977
       242.000         204.000
 -23799833.79549 -18528317.12947  20279335.089    20279334.430    20279346.358
       235.000         191.000
 -14144050.38449 -11001306.75447  19000193.763    19000193.496    19000202.973
       241.000         205.000
   6171167.29249   4808126.16946  21543878.255    21543876.955    21543889.287
       221.000         176.000
 -10772329.51749  -8374881.81847  20047718.711    20047717.970    20047728.015
       244.000         206.000
 00  5  3 17 21 59.9950000  0  8G16G 2G30G24G 5G 4G 7G 9
  -3073474.75049  -2385034.06945  22782297.052    22782296.104    22782308.359
       209.000         149.000
   8014625.38849   6244229.65545  22757908.411    22757906.994    22757924.470
       206.000         148.000
  -2160662.08149  -1661492.62345  23355523.849    23355523.640    23355541.245
       214.000         141.000
 -27071348.98949 -21059831.10947  19132580.581    19132580.053    19132591.115
       242.000         203.000
 -23897662.50449 -18604547.22947  20260718.937    20260718.207    20260730.097
       236.000         192.000
 -14135704.45749 -10994803.47347  19001781.979    19001781.703    19001791.198
       241.000         205.000
   6212291.83949   4840171.20946  21551703.943    21551702.718    21551715.051
       226.000         181.000
 -10753256.35249  -8360019.67547  20051348.253    20051347.514    20051357.579
       244.000         206.000
 00  5  3 17 22 29.9950000  0  8G16G 2G30G24G 5G 4G 7G 9
  -3094917.51749  -2401742.70245  22778216.587    22778215.635    22778227.882
       214.000         153.000
   8080026.63049   6295191.51645  22770354.104    22770352.661    22770370.022
       207.000         143.000
  -2285872.36549  -1759059.07345  23331697.262    23331697.019    23331714.525
       214.000         148.000
 -27143282.52449 -21115883.19047  19118892.110    19118891.557    19118902.600
       242.000         203.000
 -23995293.33049 -18680623.13647  20242140.354    20242139.654    20242151.470
       237.000         192.000
 -14126825.16249 -10987884.58147  19003471.704    19003471.396    19003480.917
       241.000         205.000
   6253458.22749   4872248.84046  21559537.588    21559536.453    21559548.787
       224.000         177.000
 -10733694.65649  -8344776.85547  20055070.748    20055070.013    20055080.117
       243.000         206.000
 00  5  3 17 22 59.9950000  0  8G16G 2G30G24G 5G 4G 7G 9
  -3115828.00149  -2418036.54245  22774237.471    22774236.502    22774248.684
       212.000         155.000
   8145630.50049   6346311.17145  22782838.260    22782836.693    22782854.165
       202.000         143.000
  -2411110.95049  -1856647.47245  23307865.095    23307864.868    23307882.468
       211.000         147.000
 -27214715.59349 -21171545.30247  19105298.861    19105298.296    19105309.322
       242.000         203.000
 -24092720.76949 -18756540.55747  20223600.490    20223599.767    20223611.587
       236.000         192.000
 -14117410.85749 -10980548.79647  19005263.262    19005262.920    19005272.443
       242.000         206.000
   6294669.44749   4904361.39946  21567380.043    21567378.790    21567391.245
       223.000         178.000
 -10713642.58249  -8329151.92247  20058886.578    20058885.832    20058895.962
       243.000         206.000
 00  5  3 17 23 29.9950000  0  8G16G 2G30G24G 5G 4G 7G 9
  -3136202.93049  -2433913.05745  22770360.316    22770359.294    22770371.413
       214.000         154.000
   8211438.55449   6397589.86645  22795361.528    22795359.826    22795377.350
       211.000         149.000
  -2536373.14649  -1954254.30945  23284028.633    23284028.348    23284045.918
       212.000         142.000
 -27285644.39449 -21226814.47547  19091801.587    19091800.998    19091812.013
       242.000         203.000
 -24189940.01349 -18832295.75147  20205100.225    20205099.524    20205111.274
       236.000         192.000
 -14107460.43449 -10972795.26747  19007156.848    19007156.468    19007165.985
       242.000         205.000
   6335928.00749   4936510.93646  21575231.397    21575230.121    21575242.388
       229.000         182.000
 -10693099.71549  -8313144.54947  20062795.870    20062795.075    20062805.201
       244.000         206.000
 00  5  3 17 23 59.9950000  0  8G16G 2G30G24G 5G 4G 7G 9
  -3156033.18649  -2449365.17745  22766586.733    22766585.665    22766597.801
       210.000         154.000
   8277458.30949   6449033.60445  22807924.818    22807923.203    22807940.560
       201.000         133.000
  -2661649.50849  -2051872.22245  23260189.426    23260189.148    23260206.528
       213.000         146.000
 -27356059.56349 -21281683.41847  19078402.085    19078401.458    19078412.426
       242.000         204.000
 -24286940.68049 -18907880.63047  20186641.660    20186640.891    20186652.593
       235.000         192.000
 -14096967.23449 -10964618.78947  19009153.721    19009153.305    19009162.816
       243.000         205.000
   6377242.15349   4968703.69646  21583093.310    21583092.015    21583104.353
       227.000         179.000
 -10672059.37449  -8296749.53747  20066799.827    20066798.991    20066809.094
       244.000         206.000
 00  5  3 17 24 29.9950000  0  8G16G 2G30G24G 5G 4G 7G 9
  -3175312.39549  -2464387.93045  22762917.963    22762916.909    22762929.082
       213.000         158.000
   8343694.45049   6500646.01145  22820529.642    22820527.821    22820544.909
       212.000         155.000
  -2786932.36349  -2149495.11745  23236348.785    23236348.608    23236365.920
       216.000         143.000
 -27425954.28949 -21336146.82347  19065101.601    19065100.940    19065111.876
       241.000         203.000
 -24383714.69949 -18983288.90347  20168226.148    20168225.363    20168237.026
       236.000         193.000
 -14085927.04349 -10956016.08647  19011254.635    19011254.238    19011263.728
       243.000         205.000
   6418617.55149   5000944.23246  21590966.795    21590965.521    21590977.819
       227.000         182.000
 -10650516.99149  -8279963.32547  20070899.268    20070898.418    20070908.532
       243.000         206.000
 00  5  3 17 24 59.9950000  0  8G16G 2G30G24G 5G 4G 7G 9
  -3194060.59349  -2478996.88545  22759350.311    22759349.253    22759361.397
       214.000         159.000
   8410125.23249   6552409.95645  22833171.105    22833169.279    22833186.664
       201.000         136.000
  -2912241.11149  -2247138.20845  23212503.342    23212503.085    23212520.465
       211.000         146.000
 -27495348.49349 -21390220.20747  19051896.309    19051895.669    19051906.572
       241.000         203.000
 -24480280.91949 -19058535.24247  20149850.172    20149849.367    20149861.012
       237.000         193.000
 -14074362.38649 -10947004.70047  19013455.408    19013454.968    19013464.435
       243.000         206.000
   6460032.99749   5033215.95646  21598848.104    21598846.745    21598859.003
       219.000         173.000
 -10628495.39449  -8262803.69347  20075089.887    20075089.038    20075099.154
       244.000         206.000
 00  5  3 17 25 29.9950000  0  8G16G 2G30G24G 5G 4G 7G 9
  -3212262.56349  -2493180.20345  22755886.520    22755885.544    22755897.634
       216.000         158.000
   8476764.49149   6604336.35745  22845852.182    22845850.390    22845867.962
       212.000         152.000
  -3037559.23649  -2344788.60545  23188656.080    23188655.796    23188673.225
       210.000         147.000
 -27564226.21949 -21443891.14247  19038789.291    19038788.672    19038799.560
       241.000         203.000
 -24576622.60049 -19133606.62447  20131516.933    20131516.126    20131527.735
       238.000         194.000
 -14062260.26749 -10937574.52347  19015758.417    19015757.974    19015767.409
       243.000         205.000
   6501503.13149   5065530.30946  21606739.552    21606738.284    21606750.491
       226.000         180.000
 -10605981.63949  -8245260.56647  20079374.214    20079373.323    20079383.418
       244.000         205.000
 00  5  3 17 25 59.9950000  0  8G16G 2G30G24G 5G 4G 7G 9
  -3229906.55749  -2506928.73245  22752529.003    22752527.989    22752540.016
       216.000         157.000
   8543622.20449   6656433.06545  22858575.119    22858573.272    22858590.869
       208.000         151.000
  -3162874.43749  -2442436.68445  23164809.199    23164809.081    23164826.443
       216.000         147.000
 -27632575.25349 -21497150.11047  19025782.880    19025782.272    19025793.141
       241.000         203.000
 -24672726.27649 -19208492.54047  20113228.979    20113228.164    20113239.733
       238.000         194.000
 -14049611.03049 -10927718.00947  19018165.559    19018165.098    19018174.511
       243.000         206.000
   6543038.74849   5097895.68246  21614643.622    21614642.339    21614654.582
       227.000         178.000
 -10582966.66249  -8227326.86947  20083753.880    20083752.995    20083763.076
       244.000         205.000
 00  5  3 17 26 29.9950000  0  8G16G 2G30G24G 5G 4G 7G 9
  -3247014.65349  -2520259.67645  22749273.424    22749272.442    22749284.427
       216.000         158.000
   8610675.05549   6708681.76345  22871334.741    22871333.106    22871350.738
       201.000         136.000
  -3288207.48649  -2540098.71045  23140958.966    23140958.845    23140976.329
       206.000         149.000
 -27700417.51349 -21550014.18947  19012872.960    19012872.307    19012883.173
       242.000         202.000
 -24768612.57349 -19283209.08247  20094982.445    20094981.587    20094993.096
       238.000         194.000
 -14036439.14649 -10917454.24147  19020672.170    19020671.677    19020681.066
       243.000         206.000
   6584617.25449   5130294.44846  21622555.786    21622554.487    21622566.729
       222.000         174.000
 -10559474.76449  -8209021.54947  20088224.304    20088223.415    20088233.479
       244.000         206.000
 00  5  3 17 26 59.9950000  0  8G16G 2G30G24G 5G 4G 7G 9
  -3263592.08549  -2533177.09845  22746118.795    22746117.817    22746129.786
       216.000         157.000
   8677916.18749   6761077.23945  22884130.524    22884128.755    22884146.436
       205.000         141.000
  -3413562.56049  -2637777.80845  23117104.505    23117104.503    23117121.995
       211.000         145.000
 -27767757.55249 -21602486.92547  19000058.551    19000057.916    19000068.752
       241.000         202.000
 -24864285.02549 -19357758.97347  20076776.568    20076775.708    20076787.170
       238.000         194.000
 -14022752.02249 -10906788.98947  19023276.754    19023276.294    19023285.679
       243.000         206.000
   6626232.72449   5162722.08646  21630474.936    21630473.638    21630485.845
       230.000         176.000
 -10535513.42049  -8190350.42747  20092784.029    20092783.162    20092793.208
       243.000         205.000
 00  5  3 17 27 29.9950000  0  8G16G 2G30G24G 5G 4G 7G 9
  -3279631.25349  -2545675.12045  22743066.563    22743065.625    22743077.603
       216.000         157.000
   8745351.61549   6813624.04345  22896963.269    22896961.532    22896979.228
       210.000         150.000
  -3538930.78249  -2735467.29545  23093247.502    23093247.572    23093265.054
       211.000         146.000
 -27834587.34749 -21654562.06947  18987341.219    18987340.613    18987351.443
       241.000         202.000
 -24959734.39649 -19432135.04547  20058613.095    20058612.262    20058623.685
       238.000         195.000
 -14008544.48649 -10895718.22347  19025980.375    19025979.921    19025989.325
       243.000         206.000
   6667892.00749   5195183.81946  21638402.601    21638401.265    21638413.460
       225.000         180.000
 -10511077.37149  -8171309.40547  20097434.027    20097433.221    20097443.266
       244.000         205.000
 00  5  3 17 27 59.9950000  0  8G16G 2G30G24G 5G 4G 7G 9
  -3295127.06849  -2557749.74045  22740117.771    22740116.827    22740128.813
       217.000         157.000
   8812985.08649   6866325.11445  22909833.725    22909832.009    22909849.737
       203.000         136.000
  -3664305.86749  -2833161.97145  23069389.366    23069389.372    23069406.999
       217.000         151.000
 -27900901.27549 -21706235.24547  18974722.079    18974721.473    18974732.298
       240.000         201.000
 -25054953.96249 -19506332.04447  20040493.369    20040492.536    20040503.905
       238.000         195.000
 -13993813.32149 -10884239.43147  19028783.589    19028783.189    19028792.630
       243.000         206.000
   6709599.77249   5227683.33246  21646339.371    21646338.019    21646350.182
       220.000         170.000
 -10486163.73449  -8151896.23647  20102174.975    20102174.179    20102184.213
       243.000         206.000
 00  5  3 17 28 29.9950000  0  8G16G 2G30G24G 5G 4G 7G 9
  -3310068.91149  -2569392.69745  22737274.393    22737273.411    22737285.399
       213.000         152.000
   8880825.38049   6919187.50845  22922743.570    22922741.640    22922759.303
       211.000         140.000
  -3789676.38549  -2930853.16645  23045532.131    23045532.080    23045549.755
       213.000         154.000
 -27966688.62749 -21757498.09847  18962203.147    18962202.541    18962213.353
       241.000         201.000
 -25149931.64549 -19580340.56147  20022419.655    20022418.839    20022430.194
       239.000         196.000
 -13978550.55749 -10872346.40647  19031688.013    19031687.626    19031697.074
       243.000         206.000
   6751365.75649   5260228.19646  21654287.161    21654285.840    21654298.023
       222.000         177.000
 -10460764.65549  -8132104.80247  20107008.357    20107007.519    20107017.559
       244.000         206.000
 00  5  3 17 28 59.9940000  0  8G16G 2G30G24G 5G 4G 7G 9
  -3324457.03549  -2580604.16945  22734536.355    22734535.443    22734547.318
       217.000         154.000
   8948868.18249   6972207.63745  22935691.931    22935690.040    22935707.822
       208.000         143.000
  -3915037.41649  -3028536.92845  23021676.603    23021676.644    23021694.408
       212.000         151.000
 -28031947.38849 -21808349.06047  18949784.793    18949784.203    18949794.988
       241.000         201.000
 -25244663.04149 -19654157.17247  20004392.815    20004392.041    20004403.325
       239.000         196.000
 -13962759.39949 -10860041.63847  19034692.962    19034692.614    19034702.045
       243.000         206.000
   6793187.29149   5292816.39046  21662245.626    21662244.272    21662256.422
       225.000         175.000
 -10434883.84149  -8111937.98847  20111933.373    20111932.529    20111942.582
       243.000         206.000
 00  5  3 17 29 29.9940000  0  8G16G 2G30G24G 5G 4G 7G 9
  -3338298.32349  -2591389.53045  22731902.456    22731901.507    22731913.341
       219.000         158.000
   9017110.54449   7025383.19045  22948678.381    22948676.400    22948694.273
       206.000         145.000
  -4040402.02449  -3126223.48745  22997820.536    22997820.436    22997838.247
       210.000         149.000
 -28096687.28949 -21858795.71947  18937465.176    18937464.597    18937475.367
       240.000         201.000
 -25339158.59749 -19727790.00747  19986410.886    19986410.100    19986421.377
       238.000         196.000
 -13946447.18149 -10847330.84547  19037797.080    19037796.753    19037806.177
       244.000         206.000
   6835060.67649   5325444.94946  21670213.764    21670212.535    21670224.729
       222.000         174.000
 -10408527.75849  -8091400.83647  20116948.809    20116947.959    20116958.069
       243.000         206.000
 00  5  3 17 29 59.9940000  0  8G16G 2G30G24G 5G 4G 7G 9
  -3351607.22749  -2601760.06245  22729369.897    22729368.912    22729380.733
       217.000         158.000
   9085534.29149   7078700.13045  22961699.027    22961697.166    22961715.091
       209.000         145.000
  -4165779.29449  -3223919.97245  22973962.083    22973961.933    22973979.536
       221.000         156.000
 -28160920.51249 -21908847.56547  18925242.000    18925241.408    18925252.163
       240.000         201.000
 -25433428.17049 -19801246.75647  19968471.999    19968471.187    19968482.414
       238.000         196.000
 -13929631.31549 -10834227.59647  19040997.084    19040996.741    19041006.121
       244.000         205.000
   6876969.24649   5358100.95746  21678188.736    21678187.530    21678199.677
       225.000         171.000
 -10381714.38149  -8070507.35247  20122051.261    20122050.415    20122060.577
       243.000         206.000
 00  5  3 17 30 29.9940000  0  8G16G 2G30G24G 5G 4G 7G 9
  -3364366.72549  -2611702.49245  22726941.794    22726940.810    22726952.663
       219.000         160.000
   9154154.62349   7132170.21845  22974757.250    22974755.362    22974773.350
       201.000         133.000
  -4291151.62749  -3321612.47845  22950104.175    22950104.161    22950121.989
       214.000         148.000
 -28224629.85949 -21958491.19647  18913118.475    18913117.912    18913128.657
       240.000         202.000
 -25527453.32349 -19874513.05047  19950579.596    19950578.755    19950589.973
       239.000         197.000
 -13912297.13849 -10820720.46447  19044295.735    19044295.370    19044304.713
       244.000         206.000
   6918929.38049   5390797.08746  21686173.444    21686172.279    21686184.514
       218.000         171.000
 -10354429.19649  -8049246.22747  20127243.497    20127242.649    20127252.869
       243.000         206.000
 00  5  3 17 30 59.9940000  0  8G16G 2G30G24G 5G 4G 7G 9
  -3376595.25449  -2621231.20146  22724614.701    22724613.737    22724625.660
       219.000         163.000
   9222951.71249   7185778.19245  22987849.083    22987847.343    22987865.186
       207.000         147.000
  -4416535.84749  -3419314.39145  22926244.411    22926244.307    22926261.966
       216.000         156.000
 -28287833.38149 -22007740.67947  18901091.219    18901090.668    18901101.430
       240.000         202.000
 -25621250.37749 -19947601.60347  19932730.573    19932729.736    19932740.926
       239.000         197.000
 -13894465.26749 -10806825.52247  19047689.084    19047688.697    19047698.027
       244.000         205.000
   6960922.07149   5423518.66046  21694164.570    21694163.337    21694175.487
       221.000         171.000
 -10326693.05149  -8027633.70847  20132521.539    20132520.708    20132530.975
       243.000         205.000
 00  5  3 17 31 29.9940000  0  8G16G 2G30G24G 5G 4G 7G 9
  -3388267.65849  -2630326.55446  22722393.522    22722392.540    22722404.494
       220.000         164.000
   9291949.88849   7239542.66145  23000979.260    23000977.525    23000995.452
       208.000         142.000
  -4541905.17149  -3517004.58945  22902387.293    22902387.239    22902404.953
       216.000         152.000
 -28350504.88049 -22056575.59747  18889165.248    18889164.665    18889175.446
       241.000         202.000
 -25714792.15849 -20020491.24347  19914930.122    19914929.297    19914940.481
       239.000         197.000
 -13876112.36849 -10792524.57947  19051181.547    19051181.178    19051190.495
       244.000         206.000
   7002972.50649   5456285.17446  21702166.495    21702165.265    21702177.534
       224.000         176.000
 -10298482.52449  -8005651.54047  20137889.859    20137889.028    20137899.338
       243.000         205.000
 00  5  3 17 31 59.9940000  0  8G16G 2G30G24G 5G 4G 7G 9
  -3399402.32349  -2639002.89146  22720274.639    22720273.675    22720285.592
       219.000         164.000
   9361128.99749   7293448.21245  23014143.656    23014142.034    23014159.974
       202.000         138.000
  -4667276.52949  -3614696.40045  22878529.734    22878529.738    22878547.330
       213.000         148.000
 -28412662.66649 -22105010.22147  18877337.008    18877336.436    18877347.205
       238.000         202.000
 -25808095.49049 -20093195.07847  19897175.021    19897174.213    19897185.372
       239.000         197.000
 -13857259.44849 -10777834.01247  19054769.152    19054768.793    19054778.108
       244.000         205.000
   7045061.70749   5489081.93146  21710175.818    21710174.566    21710186.816
       220.000         166.000
 -10269818.81649  -7983316.24147  20143344.377    20143343.584    20143353.950
       242.000         205.000
 00  5  3 17 32 29.9940000  0  8G16G 2G30G24G 5G 4G 7G 9
  -3409990.44149  -2647253.33746  22718259.729    22718258.802    22718270.716
       219.000         164.000
   9430496.26949   7347500.36045  23027343.820    23027342.280    23027360.468
       203.000         135.000
  -4792639.95349  -3712382.01645  22854673.668    22854673.769    22854691.350
       222.000         159.000
 -28474297.61949 -22153037.44347  18865608.289    18865607.700    18865618.444
       239.000         202.000
 -25901149.54849 -20165704.67247  19879467.343    19879466.566    19879477.722
       239.000         197.000
 -13837899.85949 -10762748.63347  19058453.139    19058452.797    19058462.142
       243.000         205.000
   7087197.91049   5521915.29646  21718194.244    21718192.913    21718205.218
       222.000         172.000
 -10240695.38849  -7960622.72147  20148886.317    20148885.594    20148896.012
       242.000         204.000
 00  5  3 17 32 59.9940000  0  8G16G 2G30G24G 5G 4G 7G 9
  -3420022.64549  -2655070.62546  22716350.675    22716349.702    22716361.600
       218.000         164.000
   9500060.01149   7401705.67445  23040581.456    23040579.993    23040598.183
       205.000         141.000
  -4917984.22549  -3810052.68645  22830821.385    22830821.389    22830839.032
       214.000         154.000
 -28535399.57149 -22200649.33747  18853980.965    18853980.376    18853991.136
       239.000         203.000
 -25993943.02849 -20238011.22847  19861809.292    19861808.511    19861819.635
       239.000         197.000
 -13818026.11349 -10747262.61247  19062234.968    19062234.653    19062243.999
       244.000         205.000
   7129390.44049   5554792.55146  21726223.125    21726221.887    21726234.202
       224.000         170.000
 -10211104.75149  -7937565.14347  20154517.189    20154516.509    20154526.988
       242.000         204.000
 00  5  3 17 33 29.9940000  0  8G16G 2G30G24G 5G 4G 7G 9
  -3429483.40849  -2662442.63345  22714550.250    22714549.327    22714561.237
       218.000         162.000
   9569834.55849   7456075.19045  23053859.173    23053857.794    23053876.179
       201.000         139.000
  -5043292.37149  -3907695.13645  22806975.864    22806975.864    22806993.677
       220.000         157.000
 -28595952.68449 -22247833.56347  18842458.064    18842457.486    18842468.254
       238.000         203.000
 -26086458.19549 -20310100.90547  19844204.191    19844203.411    19844214.521
       239.000         197.000
 -13797624.84949 -10731365.54047  19066117.192    19066116.873    19066126.240
       243.000         205.000
   7171654.42349   5587725.49146  21734265.661    21734264.467    21734276.808
       215.000         168.000
 -10181033.42049  -7914132.99947  20160239.579    20160238.909    20160249.433
       242.000         204.000
 00  5  3 17 33 59.9940000  0  9G16G 2G30G24G 5G 4G 7G10G 9
  -3438404.78949  -2669394.32645  22712852.578    22712851.642    22712863.557
       217.000         160.000
   9639786.46649   7510582.93745  23067170.728    23067169.416    23067187.827
       204.000         139.000
  -5168594.95849  -4005333.41445  22783131.560    22783131.523    22783149.042
       223.000         150.000
 -28655988.22949 -22294614.49347  18831033.690    18831033.096    18831043.858
       238.000         203.000
 -26178725.28349 -20381997.28147  19826646.289    19826645.528    19826656.624
       239.000         197.000
 -13776730.18749 -10715084.00047  19070093.323    19070093.015    19070102.362
       244.000         204.000
   7213957.49349   5620688.90046  21742315.731    21742314.544    21742326.828
       221.000         165.000
   -235112.18055                  23371288.648                    23371308.437
       205.000         141.000
 -10150516.11949  -7890353.34947  20166046.822    20166046.187    20166056.722
       242.000         204.000
 00  5  3 17 34 29.9940000  0  9G16G 2G30G24G 5G 4G 7G10G 9
  -3446775.54849  -2675916.96545  22711259.703    22711258.712    22711270.601
       219.000         159.000
   9709925.19149   7565236.23345  23080517.974    23080516.478    23080534.997
       207.000         136.000
  -5293879.37349  -4102957.40945  22759290.604    22759290.583    22759308.143
       221.000         159.000
 -28715495.11649 -22340983.47547  18819709.909    18819709.329    18819720.066
       238.000         203.000
 -26270731.50349 -20453690.38447  19809138.029    19809137.274    19809148.367
       238.000         197.000
 -13755333.43749 -10698411.22547  19074165.003    19074164.686    19074174.043
       244.000         205.000
   7256310.53149   5653691.23246  21750375.189    21750374.023    21750386.474
       222.000         178.000
   -458838.64549   -330806.67844  23347918.935    23347915.676    23347937.772
       205.000         131.000
 -10119544.06849  -7866219.34147  20171940.716    20171940.007    20171950.525
       242.000         203.000
 00  5  3 17 34 59.9940000  0  9G16G 2G30G24G 5G 4G 7G10G 9
  -3454604.43249  -2682017.36245  22709769.829    22709768.868    22709780.781
       216.000         158.000
   9780241.38549   7620027.91045  23093898.916    23093897.417    23093915.902
       203.000         140.000
  -5419152.39549  -4200572.45945  22735451.762    22735451.781    22735469.520
       223.000         160.000
 -28774480.87449 -22386946.38147  18808485.299    18808484.696    18808495.442
       238.000         202.000
 -26362482.82049 -20525184.85547  19791678.269    19791677.523    19791688.614
       239.000         198.000
 -13733444.90349 -10681355.24747  19078330.246    19078329.929    19078339.315
       243.000         205.000
   7298705.02449   5686725.89046  21758442.643    21758441.479    21758453.936
       222.000         172.000
   -581772.40159   -426599.06154  23324525.377    23324524.386    23324543.509
       202.000         126.000
 -10088127.92549  -7841739.29147  20177919.025    20177918.330    20177928.862
       241.000         203.000
 00  5  3 17 35 29.9940000  0  9G16G 2G30G24G 5G 4G 7G10G 9
  -3461871.85849  -2687680.26445  22708386.829    22708385.863    22708397.827
       218.000         158.000
   9850752.98749   7674971.71145  23107317.040    23107315.533    23107334.192
       205.000         144.000
  -5544393.03349  -4298162.40645  22711619.124    22711619.138    22711636.741
       218.000         154.000
 -28832926.01749 -22432488.03247  18797363.561    18797362.934    18797373.683
       239.000         202.000
 -26453958.08449 -20596464.22547  19774271.065    19774270.318    19774281.406
       240.000         198.000
 -13711047.45749 -10663902.71747  19082592.361    19082592.017    19082601.431
       243.000         205.000
   7341159.94849   5719807.63146  21766521.528    21766520.380    21766532.767
       224.000         173.000
   -704809.72249   -522472.05045  23301112.124    23301111.164    23301130.403
       203.000         135.000
 -10056250.58949  -7816899.86547  20183985.152    20183984.430    20183994.959
       242.000         203.000
 00  5  3 17 35 59.9940000  0  9G16G 2G30G24G 5G 4G 7G10G 9
  -3468594.75849  -2692918.85345  22707107.499    22707106.481    22707118.472
       219.000         159.000
   9921442.12649   7730053.88545  23120768.912    23120767.420    23120786.242
       202.000         139.000
  -5669615.96749  -4395738.53445  22687789.919    22687789.894    22687807.355
       216.000         154.000
 -28890846.53349 -22477620.87947  18786341.621    18786341.022    18786351.759
       237.000         202.000
 -26545171.60849 -20667539.63547  19756913.641    19756912.907    19756924.035
       238.000         198.000
 -13688159.87149 -10646068.26147  19086947.721    19086947.394    19086956.830
       243.000         205.000
   7383658.52449   5752923.31446  21774608.801    21774607.608    21774620.093
       223.000         168.000
   -827964.38049   -618436.44645  23277676.319    23277675.103    23277694.979
       204.000         139.000
 -10023930.77849  -7791715.65747  20190135.500    20190134.745    20190145.263
       242.000         203.000
 00  5  3 17 36 29.9940000  0  9G16G 2G30G24G 5G 4G 7G10G 9
  -3474761.61249  -2697724.16345  22705934.044    22705932.972    22705944.921
       221.000         162.000
   9992319.10048   7785282.47744  23134256.673    23134255.151    23134274.015
       192.000         125.000
  -5794808.68149  -4493291.02946  22663966.311    22663966.379    22663983.954
       221.000         163.000
 -28948230.65949 -22522335.76347  18775421.770    18775421.171    18775431.905
       237.000         202.000
 -26636109.83149 -20738400.53047  19739608.656    19739607.882    19739619.018
       239.000         198.000
 -13664772.90249 -10627844.67947  19091398.150    19091397.785    19091407.252
       243.000         205.000
   7426211.89949   5786081.77746  21782706.500    21782705.267    21782717.666
       227.000         176.000
   -951222.30849   -714481.36945  23254220.991    23254219.624    23254239.584
       210.000         134.000
  -9991159.07149  -7766179.32547  20196371.877    20196371.053    20196381.553
       242.000         203.000
 00  5  3 17 36 59.9940000  0  9G16G 2G30G24G 5G 4G 7G10G 9
  -3480392.67549  -2702111.97645  22704862.523    22704861.459    22704873.290
       222.000         162.000
  10063362.50948   7840640.72444  23147775.927    23147774.384    23147793.370
       185.000         110.000
  -5919989.39149  -4590834.21345  22640145.136    22640145.180    22640162.786
       218.000         156.000
 -29005098.23149 -22566648.13647  18764600.231    18764599.615    18764610.358
       238.000         202.000
 -26726791.05049 -20809061.15647  19722352.529    19722351.751    19722362.924
       238.000         198.000
 -13640908.67149 -10609249.20947  19095939.378    19095939.017    19095948.502
       243.000         206.000
   7468799.92549   5819267.21446  21790810.901    21790809.602    21790821.997
       226.000         177.000
  -1074600.83049   -810620.22845  23230742.713    23230741.403    23230761.462
       201.000         136.000
  -9957958.31049  -7740308.67147  20202689.851    20202689.012    20202699.499
       242.000         203.000
 00  5  3 17 37 29.9940000  0  9G16G 2G30G24G 5G 4G 7G10G 9
  -3485482.76949  -2706078.27245  22703893.923    22703892.860    22703904.634
       220.000         162.000
                   7896131.73854  23161327.618
       178.000         102.000
  -6045151.07249  -4688362.67345  22616327.440    22616327.536    22616344.954
       213.000         149.000
 -29061443.49049 -22610553.51347  18753878.084    18753877.457    18753888.204
       236.000         202.000
 -26817207.88349 -20879515.77047  19705146.721    19705145.940    19705157.115
       239.000         198.000
 -13616564.31149 -10590279.61047  19100572.010    19100571.624    19100581.116
       243.000         205.000
   7511427.49349   5852483.50246  21798922.769    21798921.393    21798933.721
       224.000         170.000
  -1198092.13049   -906846.95445  23207242.878    23207241.620    23207261.796
       204.000         134.000
  -9924325.37849  -7714101.25047  20209090.047    20209089.205    20209099.683
       241.000         202.000
 00  5  3 17 37 59.9940000  0  9G16G 2G30G24G 5G 4G 7G10G 9
  -3490022.56049  -2709615.76145  22703030.058    22703028.976    22703040.721
       219.000         161.000
                   7951761.99753  23174913.486
       168.000          90.000
  -6170282.49149  -4785867.45645  22592515.488    22592515.619    22592533.043
       222.000         160.000
 -29117256.34549 -22654044.02647  18743257.200    18743256.597    18743267.369
       238.000         202.000
 -26907348.64049 -20949755.25647  19687993.410    19687992.664    19688003.866
       239.000         198.000
 -13591732.35249 -10570930.06547  19105297.387    19105297.012    19105306.513
       242.000         205.000
   7554104.19749   5885738.00246  21807043.667    21807042.437    21807054.886
       225.000         172.000
  -1321683.70449  -1003151.73244  23183723.887    23183722.683    23183742.853
       198.000         131.000
  -9890253.01149  -7687551.41347  20215573.792    20215572.965    20215583.491
       241.000         202.000
 00  5  3 17 38 29.9940000  0  8G16G30G24G 5G 4G 7G10G 9
  -3494006.11849  -2712719.79945  22702271.962    22702270.910    22702282.671
       218.000         160.000
  -6295375.84949  -4883342.54045  22568710.882    22568711.014    22568728.552
       220.000         159.000
 -29172530.56549 -22697114.83147  18732738.786    18732738.225    18732749.009
       236.000         201.000
 -26997205.28449 -21019773.35647  19670894.191    19670893.438    19670904.653
       239.000         199.000
 -13566408.86049 -10551197.51647  19110116.234    19110115.905    19110125.430
       242.000         204.000
   7596835.82749   5919035.33946  21815175.257    21815174.059    21815186.524
       226.000         173.000
  -1445366.73949  -1099527.81945  23160187.684    23160186.406    23160206.762
       198.000         135.000
  -9855737.41249  -7660656.20547  20222141.891    20222141.095    20222151.640
       241.000         202.000
 00  5  3 17 38 59.9940000  0  8G16G30G24G 5G 4G 7G10G 9
  -3497456.47149  -2715408.38745  22701615.279    22701614.274    22701626.078
       216.000         156.000
  -6420452.32049  -4980804.65145  22544909.467    22544909.594    22544926.770
       217.000         145.000
 -29227288.66449 -22739783.46147  18722318.616    18722318.074    18722328.856
       237.000         201.000
 -27086798.36349 -21089586.08147  19653845.139    19653844.378    19653855.592
       238.000         199.000
 -13540618.83249 -10531101.43447  19115023.871    19115023.569    19115033.135
       241.000         204.000
   7639599.48449   5952357.65346  21823312.753    21823311.660    21823324.146
       224.000         178.000
  -1569161.23649  -1195990.84745  23136630.169    23136628.993    23136649.227
       202.000         134.000
  -9820803.88049  -7633435.33547  20228789.505    20228788.758    20228799.327
       240.000         202.000
 00  5  3 17 39 29.9940000  0  8G16G30G24G 5G 4G 7G10G 9
  -3500360.64649  -2717671.37445  22701062.545    22701061.511    22701073.378
       214.000         154.000
  -6545496.76349  -5078241.67945  22521114.151    22521114.299    22521131.447
       222.000         162.000
 -29281517.15849 -22782039.41047  18711999.258    18711998.712    18712009.497
       237.000         201.000
 -27176112.79049 -21159181.67447  19636849.132    19636848.349    19636859.600
       238.000         198.000
 -13514351.53849 -10510633.45447  19120022.278    19120022.049    19120031.661
       242.000         204.000
   7682408.01949   5985714.95446  21831459.010    21831457.902    21831470.362
       221.000         170.000
  -1693051.46649  -1292528.34345  23113054.301    23113053.417    23113073.580
       204.000         137.000
  -9785441.69249  -7605880.45047  20235518.717    20235517.988    20235528.598
       241.000         202.000
 00  5  3 17 39 59.9940000  0  8G16G30G24G 5G 4G 7G10G 9
  -3502722.71149  -2719511.92245  22700612.963    22700612.004    22700623.831
       216.000         152.000
  -6670511.19049  -5175655.28545  22497324.516    22497324.679    22497341.849
       217.000         152.000
 -29335219.43449 -22823885.32647  18701780.006    18701779.481    18701790.260
       237.000         201.000
 -27265150.24749 -21228561.45247  19619905.761    19619905.038    19619916.264
       239.000         199.000
 -13487612.56649 -10489797.93947  19125110.565    19125110.328    19125119.952
       242.000         205.000
   7725257.57349   6019104.14946  21839612.973    21839611.892    21839624.448
       222.000         169.000
  -1817038.27149  -1389141.15245  23089460.479    23089459.389    23089479.553
       210.000         140.000
  -9749656.76149  -7577996.15947  20242328.406    20242327.665    20242338.328
       240.000         202.000
 00  5  3 17 40 29.9940000  0  8G16G30G24G 5G 4G 7G10G 9
  -3504534.99449  -2720924.06145  22700268.109    22700267.120    22700278.881
       219.000         153.000
  -6795486.32649  -5273038.35745  22473542.356    22473542.552    22473559.530
       218.000         150.000
 -29388387.50349 -22865314.97247  18691662.468    18691661.925    18691672.680
       237.000         201.000
 -27353900.70549 -21297717.58847  19603017.055    19603016.349    19603027.558
       238.000         198.000
 -13460396.65949 -10468590.77647  19130289.630    19130289.380    19130299.001
       243.000         206.000
   7768156.03049   6052531.47746  21847776.538    21847775.308    21847787.888
       220.000         174.000
  -1941111.02849  -1485820.99445  23065849.912    23065848.957    23065869.121
       197.000         139.000
  -9713443.78949  -7549778.32747  20249219.548    20249218.817    20249229.519
       240.000         202.000
 00  5  3 17 40 59.9940000  0  8G16G30G24G 5G 4G 7G10G 9
  -3505796.24049  -2721906.80745  22700028.104    22700027.091    22700038.739
       219.000         153.000
  -6920418.74749  -5370388.15346  22449768.337    22449768.579    22449785.381
       218.000         163.000
 -29441019.61749 -22906326.99047  18681646.877    18681646.323    18681657.110
       236.000         201.000
 -27442360.57749 -21366647.29847  19586183.616    19586182.918    19586194.150
       238.000         199.000
 -13432704.39849 -10447012.43347  19135559.340    19135559.063    19135568.721
       242.000         205.000
   7811104.56549   6085997.84646  21855949.289    21855948.094    21855960.706
       224.000         171.000
  -2065265.55949  -1582564.43045  23042223.729    23042222.838    23042243.130
       207.000         135.000
  -9676803.62349  -7521227.61847  20256191.945    20256191.259    20256201.995
       241.000         202.000
 00  5  3 17 41 29.9940000  0  8G16G30G24G 5G 4G 7G10G 9
  -3506512.57449  -2722464.94045  22699891.728    22699890.747    22699902.385
       218.000         150.000
  -7045312.37549  -5467707.61245  22426001.659    22426001.890    22426018.891
       218.000         155.000
 -29493121.31649 -22946925.69747  18671732.192    18671731.666    18671742.468
       236.000         201.000
 -27530533.60149 -21435353.49147  19569404.802    19569404.080    19569415.319
       238.000         198.000
 -13404543.81349 -10425069.16447  19140918.127    19140917.854    19140927.546
       242.000         206.000
   7854097.34049   6119498.69246  21864130.513    21864129.361    21864141.901
       220.000         165.000
  -2189504.29449  -1679373.61345  23018581.850    23018580.883    23018601.022
       207.000         143.000
  -9639744.24649  -7492350.25547  20263244.151    20263243.464    20263254.249
       241.000         202.000
 00  5  3 17 41 59.9940000  0  8G16G30G24G 5G 4G 7G10G 9
  -3506683.12749  -2722597.77045  22699859.192    22699858.236    22699869.851
       218.000         152.000
  -7170164.13449  -5564994.59645  22402243.282    22402243.362    22402260.024
       222.000         160.000
 -29544690.90049 -22987109.77447  18661918.794    18661918.284    18661929.087
       236.000         201.000
 -27618416.26749 -21503833.42247  19552681.165    19552680.492    19552691.756
       238.000         198.000
 -13375915.92049 -10402761.75547  19146365.827    19146365.582    19146375.306
       242.000         206.000
   7897135.68249   6153034.96646  21872320.442    21872319.308    21872332.038
       227.000         176.000
  -2313823.88549  -1776245.65445  22994924.324    22994923.396    22994943.638
       203.000         141.000
  -9602266.52649  -7463146.90947  20270375.952    20270375.286    20270386.120
       240.000         202.000
 00  5  3 17 42 29.9940000  0  8G16G30G24G 5G 4G 7G10G 9
  -3506313.50749  -2722309.71145  22699929.507    22699928.572    22699940.170
       218.000         154.000
  -7294977.64949  -5662251.64445  22378491.808    22378491.939    22378508.716
       212.000         151.000
 -29595733.68749 -23026883.35247  18652205.700    18652205.143    18652215.952
       237.000         201.000
 -27706011.98449 -21572089.76147  19536012.231    19536011.519    19536022.786
       239.000         199.000
 -13346828.30249 -10380096.11947  19151901.022    19151900.801    19151910.556
       243.000         206.000
   7940213.97549   6186602.47646  21880518.090    21880516.889    21880529.492
       217.000         168.000
  -2438226.31049  -1873182.44745  22971251.046    22971250.145    22971270.365
       206.000         135.000
  -9564378.72749  -7433624.02247  20277585.827    20277585.144    20277596.020
       240.000         202.000
 00  5  3 17 42 59.9940000  0  8G16G30G24G 5G 4G 7G10G 9
  -3505395.82849  -2721594.58845  22700104.168    22700103.194    22700114.792
       214.000         154.000
  -7419742.52849  -5759470.86045  22354749.864    22354749.938    22354766.521
       223.000         160.000
 -29646241.29749 -23066239.91547  18642594.421    18642593.873    18642604.657
       236.000         201.000
 -27793310.20449 -21640114.29547  19519399.862    19519399.176    19519410.428
       238.000         198.000
 -13317274.82349 -10357067.48147  19157524.921    19157524.665    19157534.456
       243.000         206.000
   7983340.38849   6220207.39546  21888724.820    21888723.623    21888736.302
       226.000         171.000
  -2562700.33449  -1970174.94445  22947564.166    22947563.366    22947583.436
       207.000         144.000
  -9526074.90749  -7403776.97447  20284874.899    20284874.192    20284885.072
       241.000         202.000
 00  5  3 17 43 29.9940000  0  8G16G30G24G 5G 4G 7G10G 9
  -3503945.73649  -2720464.63745  22700380.084    22700379.140    22700390.803
       212.000         153.000
  -7544472.65249  -5856662.94545  22331014.312    22331014.407    22331030.917
       215.000         156.000
 -29696228.76949 -23105191.17147  18633082.100    18633081.589    18633092.343
       236.000         201.000
 -27880324.22049 -21707917.37047  19502841.610    19502840.921    19502852.132
       239.000         198.000
 -13287273.33049 -10333689.73247  19163234.099    19163233.817    19163243.605
       244.000         206.000
   8026499.60249   6253837.88946  21896937.815    21896936.584    21896949.269
       220.000         166.000
  -2687258.70649  -2067233.15345  22923861.351    22923860.467    22923880.589
       208.000         142.000
  -9487372.62349  -7373619.43147  20292239.846    20292239.072    20292249.962
       241.000         202.000
 00  5  3 17 43 59.9940000  0  8G16G30G24G 5G 4G 7G10G 9
  -3501961.13649  -2718918.16245  22700757.690    22700756.716    22700768.501
       210.000         151.000
  -7669163.37649  -5953824.36845  22307286.433    22307286.482    22307302.835
       219.000         159.000
 -29745693.45449 -23143735.06247  18623669.306    18623668.778    18623679.520
       236.000         201.000
 -27967049.25549 -21775495.26347  19486338.364    19486337.639    19486348.825
       238.000         198.000
 -13256823.33349 -10309962.49547  19169028.586    19169028.307    19169038.098
       244.000         206.000
   8069694.05249   6287495.92446  21905157.533    21905156.289    21905168.835
       224.000         172.000
  -2811895.85749  -2164352.81245  22900143.482    22900142.734    22900162.733
       203.000         140.000
  -9448271.56949  -7343151.15647  20299680.601    20299679.823    20299690.727
       240.000         201.000
 00  5  3 17 44 29.9940000  0  8G16G30G24G 5G 4G 7G10G 9
  -3499437.05949  -2716951.33845  22701237.981    22701236.957    22701248.832
       211.000         150.000
  -7793807.85349  -6050949.70845  22283567.164    22283567.284    22283583.579
       223.000         161.000
 -29794629.85149 -23181867.30547  18614357.011    18614356.482    18614367.210
       236.000         201.000
 -28053477.78249 -21842842.11847  19469891.504    19469890.789    19469901.959
       238.000         198.000
 -13225921.82549 -10285883.43647  19174908.987    19174908.707    19174918.494
       244.000         205.000
   8112929.15649   6321185.48046  21913384.838    21913383.651    21913396.334
       220.000         165.000
  -2936603.42449  -2261527.38445  22876412.156    22876411.483    22876431.392
       206.000         141.000
  -9408769.16949  -7312370.15047  20307197.713    20307196.935    20307207.859
       240.000         201.000
 00  5  3 17 44 59.9940000  0  8G16G30G24G 5G 4G 7G10G 9
  -3496367.43649  -2714559.38845  22701822.061    22701821.100    22701832.896
       212.000         155.000
  -7918397.22749  -6148032.20345  22259858.467    22259858.595    22259874.580
       220.000         151.000
 -29843031.32549 -23219582.72347  18605146.536    18605145.969    18605156.695
       236.000         201.000
 -28139601.23549 -21909951.25147  19453502.688    19453501.973    19453513.109
       238.000         198.000
 -13194564.67749 -10261449.32847  19180876.129    19180875.809    19180885.585
       244.000         206.000
   8156211.24749   6354911.77546  21921621.259    21921619.998    21921632.608
       225.000         172.000
  -3061371.94949  -2358749.37445  22852669.186    22852668.631    22852688.615
       200.000         143.000
  -9368861.18249  -7281273.10247  20314791.973    20314791.217    20314802.173
       240.000         200.000
 00  5  3 17 45 29.9940000  0  8G16G30G24G 5G 4G 7G10G 9
  -3492731.22949  -2711725.94745  22702513.971    22702513.033    22702524.804
       215.000         156.000
  -8042908.61349  -6245053.84646  22236164.711    22236164.795    22236180.769
       221.000         167.000
 -29890876.46249 -23256864.63347  18596041.915    18596041.346    18596052.047
       236.000         200.000
 -28225396.21549 -21976804.42747  19437176.355    19437175.677    19437186.778
       238.000         198.000
 -13162732.58849 -10236645.13447  19186933.632    19186933.286    19186943.052
       245.000         206.000
   8199561.52949   6388691.15846  21929870.543    21929869.333    21929881.981
       220.000         167.000
  -3186177.11149  -2455999.95645  22828919.625    22828918.892    22828938.852
       207.000         143.000
  -9328528.83649  -7249845.38747  20322467.015    20322466.230    20322477.235
       240.000         200.000
 00  5  3 17 45 59.9940000  0  8G16G30G24G 5G 4G 7G10G 9
  -3488553.82849  -2708470.79345  22703308.875    22703307.939    22703319.707
       215.000         157.000
  -8167364.66449  -6342032.35145  22212481.275    22212481.412    22212497.460
       223.000         155.000
 -29938189.91049 -23293732.23947  18587038.478    18587037.880    18587048.573
       236.000         201.000
 -28310885.18449 -22043419.15747  19420908.328    19420907.611    19420918.697
       238.000         198.000
 -13130452.87649 -10211492.14447  19193076.354    19193075.965    19193085.718
       243.000         206.000
   8242955.45549   6422504.55346  21938128.162    21938126.935    21938139.581
       223.000         163.000
  -3311040.85649  -2553296.23545  22805158.544    22805157.798    22805177.733
       207.000         144.000
  -9287799.06549  -7218107.98947  20330217.681    20330216.901    20330227.928
       240.000         200.000
 00  5  3 17 46 29.9940000  0  8G16G30G24G 5G 4G 7G10G 9
  -3483805.29649  -2704770.62445  22704212.431    22704211.527    22704223.321
       215.000         154.000
  -8291732.82749  -6438942.51545  22188814.822    22188814.861    22188830.536
       218.000         157.000
 -29984940.97949 -23330161.63047  18578142.027    18578141.436    18578152.119
       235.000         201.000
 -28396035.46249 -22109769.98647  19404704.762    19404704.008    19404715.065
       239.000         198.000
 -13097697.08449 -10185968.18647  19199309.680    19199309.242    19199318.965
       243.000         206.000
   8286423.53949   6456375.72846  21946399.944    21946398.674    21946411.343
       224.000         172.000
  -3435929.53149  -2650611.88145  22781392.839    22781392.074    22781412.056
       209.000         139.000
  -9246643.76449  -7186039.01947  20338049.364    20338048.556    20338059.583
       240.000         199.000
 00  5  3 17 46 59.9940000  0  8G16G30G24G 5G 4G 7G10G 9
  -3478518.36349  -2700650.89045  22705218.471    22705217.545    22705229.357
       214.000         154.000
  -8416043.61849  -6535807.81245  22165158.951    22165159.128    22165175.007
       224.000         162.000
 -30031162.00249 -23366177.99647  18569346.463    18569345.875    18569356.542
       236.000         201.000
 -28480877.01049 -22175880.24847  19388559.908    19388559.158    19388570.188
       237.000         198.000
 -13064499.78549 -10160100.19547  19205626.951    19205626.518    19205636.226
       243.000         206.000
   8329933.35649   6490279.38146  21954679.758    21954678.413    21954691.078
       228.000         173.000
  -3560872.53149  -2747969.99745  22757617.014    22757616.157    22757635.918
       209.000         144.000
  -9205097.76049  -7153665.60947  20345955.371    20345954.565    20345965.600
       240.000         199.000
 00  5  3 17 47 29.9940000  0  8G16G30G24G 5G 4G 7G10G 9
  -3472692.61549  -2696111.30745  22706327.045    22706326.122    22706337.999
       215.000         154.000
  -8540293.82749  -6632626.03945  22141514.791    22141514.930    22141530.701
       215.000         158.000
 -30076852.14549 -23401780.69447  18560651.923    18560651.327    18560661.998
       236.000         201.000
 -28565406.84749 -22241747.61247  19372474.385    19372473.635    19372484.621
       238.000         199.000
 -13030862.42749 -10133889.30347  19212027.945    19212027.533    19212037.241
       244.000         206.000
   8373485.92749   6524216.42846  21962967.659    21962966.308    21962978.914
       221.000         167.000
  -3685865.98249  -2845367.30145  22733831.244    22733830.448    22733850.319
       208.000         140.000
  -9163162.74549  -7120989.07247  20353935.375    20353934.584    20353945.652
       240.000         198.000
 00  5  3 17 47 59.9940000  0  8G16G30G24G 5G 4G 7G10G 9
  -3466325.05149  -2691149.54245  22707538.731    22707537.813    22707549.667
       214.000         152.000
  -8664478.29749  -6729392.94145  22117883.143    22117883.287    22117899.094
       223.000         161.000
 -30122007.84449 -23436966.94247  18552059.079    18552058.475    18552069.145
       235.000         201.000
 -28649619.25549 -22307367.63547  19356449.274    19356448.509    19356459.460
       239.000         199.000
 -12996783.95249 -10107334.68147  19218512.905    19218512.484    19218522.188
       244.000         206.000
   8417084.62849   6558189.36546  21971264.214    21971262.867    21971275.580
       222.000         168.000
  -3810903.25149  -2942798.82845  22710037.513    22710036.590    22710056.214
       208.000         141.000
  -9120837.58049  -7088008.52547  20361989.638    20361988.852    20361999.938
       240.000         198.000
 00  5  3 17 48 29.9940000  0  8G16G30G24G 5G 4G 7G10G 9
  -3459416.86749  -2685766.49945  22708853.242    22708852.329    22708864.238
       213.000         151.000
  -8788595.81049  -6826107.75746  22094264.196    22094264.364    22094280.003
       223.000         164.000
 -30166629.87449 -23471737.34947  18543567.808    18543567.180    18543577.855
       236.000         201.000
 -28733512.86249 -22372739.23547  19340484.843    19340484.060    19340494.977
       239.000         199.000
 -12962267.44549 -10080438.73847  19225081.182    19225080.793    19225090.483
       244.000         205.000
   8460728.76649   6592197.74946  21979569.419    21979568.121    21979580.790
       227.000         171.000
  -3935982.20349  -3040262.79545  22686235.483    22686234.682    22686254.448
       204.000         143.000
  -9078125.49349  -7054726.48547  20370117.534    20370116.745    20370127.845
       240.000         198.000
 00  5  3 17 48 59.9940000  0  8G16G30G24G 5G 4G 7G10G 9
  -3451968.43049  -2679962.50145  22710270.612    22710269.693    22710281.566
       211.000         152.000
  -8912644.04649  -6922768.53745  22070658.476    22070658.591    22070674.340
       219.000         158.000
 -30210717.77849 -23506091.55747  18535178.224    18535177.565    18535188.206
       237.000         202.000
 -28817085.18649 -22437860.49047  19324581.554    19324580.758    19324591.633
       239.000         199.000
 -12927314.75549 -10053202.91347  19231732.476    19231732.117    19231741.781
       243.000         206.000
   8504418.74449   6626241.78746  21987883.299    21987882.065    21987894.747
       220.000         164.000
  -4061099.41649  -3137756.62245  22662426.283    22662425.549    22662445.405
       207.000         145.000
  -9035028.81249  -7021144.76947  20378318.639    20378317.816    20378328.954
       239.000         197.000
 00  5  3 17 49 29.9940000  0  8G16G30G24G 5G 4G 7G10G 9
  -3443987.25449  -2673743.41445  22711789.302    22711788.435    22711800.292
       209.000         153.000
  -9036627.77049  -7019379.10745  22047064.898    22047065.117    22047080.763
       223.000         162.000
 -30254278.34549 -23540034.84747  18526888.979    18526888.292    18526898.888
       236.000         202.000
 -28900340.67849 -22502734.85947  19308738.569    19308737.755    19308748.579
       239.000         199.000
 -12891934.91249 -10025634.23747  19238465.120    19238464.722    19238474.358
       244.000         205.000
   8548147.79349   6660316.35846  21996204.838    21996203.527    21996216.203
       217.000         168.000
  -4186258.52249  -3235283.02345  22638609.325    22638608.456    22638628.184
       209.000         141.000
  -8991556.59949  -6987270.43047  20386591.165    20386590.344    20386601.523
       238.000         196.000
 00  5  3 17 49 59.9940000  0  8G16G30G24G 5G 4G 7G10G 9
  -3435464.08049  -2667102.01545  22713411.051    22713410.267    22713422.151
       212.000         157.000
  -9160535.05349  -7115930.04946  22023485.799    22023486.124    22023501.886
       223.000         163.000
 -30297302.00549 -23573559.77447  18518701.824    18518701.188    18518711.737
       237.000         202.000
 -28983267.81649 -22567353.37347  19292958.022    19292957.215    19292968.018
       240.000         200.000
 -12856120.55549  -9997726.97747  19245280.375    19245280.006    19245289.632
       243.000         205.000
   8591925.79449   6694428.94645  22004535.351    22004534.127    22004547.012
       221.000         160.000
  -4311446.76049  -3332832.19245  22614786.800    22614785.858    22614805.466
       208.000         145.000
  -8947701.85749  -6953098.01747  20394936.477    20394935.671    20394946.869
       240.000         195.000
 00  5  3 17 50 29.9940000  0  9G16G30G24G 5G 4G 7G10G 9G 6
  -3426404.38549  -2660042.51045  22715135.068    22715134.268    22715146.187
       216.000         162.000
  -9284368.68849  -7212423.66545  21999920.904    21999921.216    21999936.944
       222.000         162.000
 -30339793.59749 -23606670.10047  18510615.950    18510615.313    18510625.847
       236.000         202.000
 -29065869.01049 -22631717.91147  19277239.482    19277238.693    19277249.480
       239.000         200.000
 -12819878.81149  -9969486.69847  19252176.942    19252176.595    19252186.250
       243.000         205.000
   8635747.96249   6728576.07846  22012874.382    22012873.208    22012886.034
       218.000         164.000
  -4436665.75249  -3430405.24445  22590957.986    22590957.272    22590976.982
       207.000         143.000
  -8903471.67549  -6918633.06147  20403353.264    20403352.445    20403363.653
       239.000         195.000
  -2386375.07159  -1846194.17355  23677083.612    23677083.182    23677101.979
       207.000         134.000
 00  5  3 17 50 59.9940000  0  9G16G30G24G 5G 4G 7G10G 9G 6
  -3416821.89149  -2652575.63246  22716958.627    22716957.766    22716969.660
       216.000         164.000
  -9408139.74349  -7308868.43746  21976367.952    21976368.199    21976384.096
       224.000         165.000
 -30381766.12349 -23639375.95847  18502628.844    18502628.214    18502638.725
       236.000         202.000
 -29148154.77649 -22695836.64947  19261580.990    19261580.212    19261590.962
       239.000         199.000
 -12783225.09849  -9940925.40147  19259151.904    19259151.570    19259161.268
       243.000         205.000
   8679601.30649   6762747.43946  22021219.572    22021218.327    22021231.110
       221.000         163.000
  -4561925.50049  -3528010.15345  22567121.910    22567121.133    22567140.535
       209.000         139.000
  -8858881.57149  -6883887.64047  20411838.546    20411837.746    20411848.912
       239.000         195.000
  -2486898.42049  -1924524.05745  23657954.757    23657954.202    23657972.939
       212.000         144.000
 00  5  3 17 51 29.9940000  0  9G16G30G24G 5G 4G 7G10G 9G 6
  -3406717.27049  -2644701.90646  22718881.519    22718880.628    22718892.541
       216.000         164.000
  -9531846.26349  -7405263.00846  21952827.187    21952827.481    21952843.292
       224.000         163.000
 -30423219.84949 -23671677.56247  18494740.489    18494739.856    18494750.363
       236.000         203.000
 -29230123.12949 -22759708.05747  19245982.913    19245982.137    19245992.851
       239.000         199.000
 -12746161.66449  -9912044.84347  19266204.833    19266204.538    19266214.254
       242.000         205.000
   8723486.01149   6796943.19045  22029570.461    22029569.238    22029582.150
       217.000         162.000
  -4687222.86249  -3625644.25945  22543278.618    22543277.682    22543297.035
       209.000         143.000
  -8813934.03249  -6848863.70147  20420391.927    20420391.094    20420402.197
       240.000         195.000
  -2587397.75349  -2002835.16045  23638830.308    23638829.794    23638848.600
       213.000         144.000
 00  5  3 17 51 59.9940000  0  9G16G30G24G 5G 4G 7G10G 9G 6
  -3396067.03749  -2636403.02745  22720908.267    22720907.285    22720919.199
       215.000         160.000
  -9655461.94749  -7501586.72545  21929303.694    21929304.001    21929319.942
       224.000         162.000
 -30464130.73449 -23703556.17247  18486955.467    18486954.809    18486965.297
       236.000         203.000
 -29311747.85349 -22823311.70247  19230450.217    19230449.443    19230460.135
       240.000         200.000
 -12708666.81049  -9882828.11747  19273339.954    19273339.595    19273349.337
       242.000         206.000
   8767425.95549   6831182.07545  22037932.256    22037930.891    22037943.711
       218.000         157.000
  -4812530.71149  -3723286.61245  22519433.363    22519432.364    22519451.521
       208.000         144.000
  -8768607.45949  -6813544.41047  20429017.469    20429016.576    20429027.614
       240.000         195.000
  -2687848.84049  -2081108.72245  23619715.123    23619714.588    23619733.344
       211.000         145.000
 00  5  3 17 52 29.9940000  0  9G16G30G24G 5G 4G 7G10G 9G 6
  -3384893.22249  -2627696.16645  22723034.595    22723033.636    22723045.445
       215.000         157.000
  -9779005.52549  -7597854.30946  21905794.270    21905794.441    21905810.278
       224.000         163.000
 -30504520.17749 -23735028.46447  18479269.645    18479268.971    18479279.460
       236.000         203.000
 -29393047.82549 -22886662.28847  19214979.326    19214978.540    19214989.232
       239.000         200.000
 -12670764.11149  -9853293.59147  19280552.616    19280552.275    19280562.050
       243.000         206.000
   8811400.35749   6865447.71546  22046300.213    22046298.932    22046311.881
       223.000         167.000
  -4937867.11449  -3820951.14145  22495582.600    22495581.517    22495600.585
       212.000         141.000
  -8722925.28649  -6777948.03247  20437710.644    20437709.715    20437720.717
       240.000         196.000
  -2788272.90849  -2159361.21545  23600605.072    23600604.500    23600623.321
       210.000         145.000
 00  5  3 17 52 59.9940000  0  9G16G30G24G 5G 4G 7G10G 9G 6
  -3373185.48849  -2618573.26145  22725262.518    22725261.576    22725273.336
       212.000         158.000
  -9902464.47049  -7694055.95046  21882300.698    21882300.821    21882316.577
       222.000         164.000
 -30544377.12049 -23766085.82647  18471685.109    18471684.446    18471694.951
       236.000         203.000
 -29474009.79349 -22949749.50247  19199572.766    19199571.965    19199582.639
       239.000         200.000
 -12632444.59149  -9823434.27047  19287844.624    19287844.278    19287854.085
       242.000         206.000
   8855420.08249   6899748.70145  22054677.008    22054675.718    22054688.641
       220.000         161.000
  -5063218.06749  -3918627.03745  22471728.962    22471727.985    22471746.862
       213.000         148.000
  -8676879.32849  -6742068.19347  20446472.996    20446472.072    20446483.067
       240.000         196.000
  -2888658.90249  -2237584.01845  23581502.119    23581501.610    23581520.463
       208.000         137.000
 00  5  3 17 53 29.9940000  0  9G16G30G24G 5G 4G 7G10G 9G 6
  -3360924.67249  -2609019.38745  22727595.673    22727594.719    22727606.458
       211.000         154.000
 -10025816.26249  -7790174.06846  21858827.504    21858827.653    21858843.427
       224.000         165.000
 -30583682.07149 -23796713.05847  18464205.601    18464204.966    18464215.499
       236.000         203.000
 -29554611.62649 -23012556.08947  19184234.732    19184233.943    19184244.573
       241.000         200.000
 -12593690.97649  -9793236.69647  19295219.210    19295218.866    19295228.716
       243.000         206.000
   8899505.23749   6934100.72845  22063066.231    22063064.929    22063077.750
       221.000         160.000
  -5188560.70049  -4016296.46345  22447876.870    22447876.046    22447894.933
       205.000         142.000
  -8630452.41249  -6705891.49647  20455307.824    20455306.925    20455317.925
       240.000         196.000
  -2988986.74749  -2315761.56745  23562410.488    23562409.894    23562428.593
       214.000         144.000
 00  5  3 17 53 59.9940000  0  9G16G30G24G 5G 4G 7G10G 9G 6
  -3348135.08349  -2599053.48645  22730029.470    22730028.491    22730040.222
       210.000         151.000
 -10149082.71349  -7886225.69545  21835370.507    21835370.700    21835386.369
       222.000         162.000
 -30622458.61549 -23826928.54747  18456826.663    18456826.027    18456836.575
       236.000         203.000
 -29634874.62849 -23075098.65347  19168961.210    19168960.387    19168970.988
       242.000         200.000
 -12554529.15249  -9762721.03647  19302671.470    19302671.152    19302681.024
       242.000         206.000
   8943632.45449   6968485.41046  22071463.305    22071462.067    22071474.956
       219.000         164.000
  -5313914.95849  -4113974.88045  22424022.876    22424021.863    22424040.687
       208.000         145.000
  -8583670.51149  -6669438.18647  20464210.216    20464209.318    20464220.340
       240.000         196.000
  -3089279.97549  -2393912.15145  23543325.311    23543324.699    23543343.353
       212.000         145.000
 00  5  3 17 54 29.9940000  0  9G16G30G24G 5G 4G 7G10G 9G 6
  -3334837.27649  -2588691.58745  22732559.920    22732558.964    22732570.669
       208.000         150.000
 -10272281.08249  -7982224.25546  21811926.607    21811926.715    21811942.384
       223.000         168.000
 -30660726.67649 -23856747.81347  18449544.452    18449543.852    18449554.416
       235.000         202.000
 -29714816.52049 -23137391.00347  19153748.786    19153747.935    19153758.509
       241.000         201.000
 -12514981.05649  -9731904.38647  19310197.294    19310196.934    19310206.834
       242.000         205.000
   8987782.02749   7002887.62845  22079864.961    22079863.616    22079876.407
       221.000         160.000
  -5439297.50149  -4211675.41345  22400163.139    22400162.196    22400180.987
       211.000         147.000
  -8536555.84649  -6632725.57547  20473175.939    20473175.045    20473186.096
       240.000         196.000
  -3189558.20149  -2472050.91245  23524242.990    23524242.375    23524261.134
       214.000         149.000
 00  5  3 17 54 59.9940000  0  9G16G30G24G 5G 4G 7G10G 9G 6
  -3321010.93249  -2577917.84545  22735191.015    22735189.955    22735201.737
       207.000         147.000
 -10395388.37549  -8078151.87546  21788499.975    21788500.071    21788515.667
       222.000         166.000
 -30698465.48049 -23886154.67247  18442363.017    18442362.407    18442372.960
       236.000         203.000
 -29794413.74549 -23199414.78347  19138601.940    19138601.105    19138611.618
       242.000         201.000
 -12475028.19449  -9700772.34247  19317800.120    19317799.746    19317809.671
       242.000         205.000
   9031975.20449   7037323.64445  22088274.650    22088273.326    22088286.274
       217.000         160.000
  -5564684.16449  -4309379.11545  22376302.824    22376301.876    22376320.572
       214.000         152.000
  -8489090.06349  -6595739.38147  20482208.513    20482207.591    20482218.671
       240.000         196.000
  -3289800.32349  -2550161.65145  23505167.616    23505166.926    23505185.741
       210.000         144.000
 00  5  3 17 55 29.9940000  0  9G16G30G24G 5G 4G 7G10G 9G 6
  -3306658.15749  -2566733.88745  22737922.252    22737921.249    22737933.023
       207.000         145.000
 -10518403.55549  -8174007.68346  21765090.757    21765090.900    21765106.486
       225.000         167.000
 -30735676.47349 -23915150.24847  18435282.030    18435281.419    18435291.955
       236.000         203.000
 -29873665.47049 -23261169.34547  19123520.862    19123519.988    19123530.460
       242.000         201.000
 -12434673.86249  -9669327.46047  19325479.335    19325478.970    19325488.892
       242.000         205.000
   9076210.92349   7071793.00445  22096692.613    22096691.229    22096704.020
       220.000         157.000
  -5690072.86549  -4407084.38345  22352442.085    22352441.114    22352459.761
       212.000         147.000
  -8441276.66649  -6558482.31747  20491307.201    20491306.280    20491317.399
       240.000         196.000
  -3390007.63749  -2628245.29845  23486098.724    23486098.060    23486116.847
       214.000         145.000
 00  5  3 17 55 59.9940000  0  9G16G30G24G 5G 4G 7G10G 9G 6
  -3291787.43449  -2555146.32445  22740751.980    22740751.037    22740762.763
       209.000         145.000
 -10641331.91449  -8269795.85746  21741698.173    21741698.322    21741713.907
       226.000         167.000
 -30772367.49949 -23943740.65647  18428299.980    18428299.379    18428309.900
       236.000         204.000
 -29952577.14349 -23322658.92747  19108504.437    19108503.587    19108514.041
       241.000         201.000
 -12393928.17949  -9637577.63147  19333233.019    19333232.649    19333242.573
       242.000         205.000
   9120481.58449   7106289.49546  22105117.077    22105115.725    22105128.485
       221.000         165.000
  -5815468.25349  -4504794.92945  22328579.928    22328579.044    22328597.585
       212.000         147.000
  -8393126.12649  -6520962.54547  20500470.103    20500469.153    20500480.283
       239.000         196.000
  -3490187.69649  -2706307.61145  23467035.090    23467034.429    23467053.336
       216.000         151.000
 00  5  3 17 56 29.9940000  0  9G16G30G24G 5G 4G 7G10G 9G 6
  -3276390.74049  -2543148.89745  22743681.871    22743680.894    22743692.703
       211.000         146.000
 -10764162.68449  -8365507.99346  21718324.078    21718324.224    21718339.724
       226.000         169.000
 -30808529.95849 -23971919.20047  18421418.522    18421417.921    18421428.422
       236.000         203.000
 -30031137.64749 -23383874.87247  19093554.844    19093553.998    19093564.451
       241.000         201.000
 -12352784.64849  -9605517.79147  19341062.421    19341062.055    19341071.974
       243.000         205.000
   9164796.27049   7140820.22645  22113549.999    22113548.603    22113561.430
       215.000         158.000
  -5940858.07949  -4602501.05345  22304719.001    22304718.029    22304736.632
       213.000         148.000
  -8344631.74949  -6483174.85247  20509698.383    20509697.437    20509708.586
       240.000         195.000
  -3590331.35849  -2784341.60845  23447978.285    23447977.740    23447996.647
       210.000         147.000
 00  5  3 17 56 59.9940000  0  9G16G30G24G 5G 4G 7G10G 9G 6
  -3260480.90849  -2530751.63145  22746709.508    22746708.444    22746720.221
       213.000         147.000
 -10886905.30649  -8461151.43046  21694966.929    21694967.022    21694982.449
       225.000         169.000
 -30844175.96249 -23999695.31147  18414635.344    18414634.732    18414645.209
       236.000         203.000
 -30109356.50549 -23444824.60047  19078670.265    19078669.434    19078679.881
       241.000         201.000
 -12311257.37349  -9573158.92847  19348964.869    19348964.483    19348974.391
       243.000         206.000
   9209143.43249   7175376.45246  22121989.209    22121987.715    22122000.399
       225.000         164.000
  -6066250.81649  -4700209.53445  22280857.615    22280856.533    22280875.059
       209.000         145.000
  -8295807.99849  -6445130.50047  20518989.320    20518988.399    20518999.559
       240.000         196.000
  -3690450.17449  -2862356.22245  23428926.228    23428925.714    23428944.678
       206.000         142.000
 00  5  3 17 57 29.9940000  0  9G16G30G24G 5G 4G 7G10G 9G 6
  -3244031.14049  -2517933.63645  22749839.786    22749838.787    22749850.488
       214.000         151.000
 -11009530.31049  -8556703.25146  21671632.075    21671632.149    21671647.503
       227.000         169.000
 -30879278.44449 -24027047.90547  18407955.583    18407954.977    18407965.425
       236.000         203.000
 -30187204.15249 -23505485.08047  19063856.291    19063855.478    19063865.946
       241.000         202.000
 -12269321.33049  -9540481.55647  19356945.123    19356944.713    19356954.598
       243.000         206.000
   9253550.44149   7209979.03645  22130439.699    22130438.216    22130450.963
       212.000         158.000
  -6191616.14649  -4797896.60345  22257001.142    22257000.165    22257018.672
       213.000         153.000
  -8246630.18049  -6406810.26047  20528347.649    20528346.713    20528357.911
       239.000         195.000
  -3790516.94949  -2940330.30345  23409884.097    23409883.581    23409902.415
       212.000         145.000
 00  5  3 17 57 59.9940000  0  9G16G30G24G 5G 4G 7G10G 9G 6
  -3227063.18849  -2504711.87345  22753068.718    22753067.720    22753079.293
       215.000         153.000
 -11132055.74949  -8652177.44946  21648316.102    21648316.193    21648331.507
       225.000         166.000
 -30913858.28449 -24053993.24347  18401375.262    18401374.661    18401385.109
       235.000         203.000
 -30264698.91549 -23565870.57847  19049109.462    19049108.686    19049119.169
       241.000         202.000
 -12226999.39849  -9507503.47847  19364998.741    19364998.365    19365008.248
       242.000         206.000
   9297997.23749   7244612.83345  22138897.589    22138896.153    22138909.021
       218.000         157.000
  -6316971.56249  -4895576.00545  22233146.842    22233145.751    22233164.192
       210.000         147.000
  -8197121.32649  -6368232.07247  20537768.898    20537768.009    20537779.244
       238.000         194.000
  -3890552.13249  -3018279.75345  23390848.065    23390847.520    23390866.395
       207.000         147.000
 00  5  3 17 58 29.9940000  0  9G16G30G24G 5G 4G 7G10G 9G 6
  -3209577.99449  -2491087.06645  22756396.057    22756395.107    22756406.588
       215.000         158.000
 -11254479.76249  -8747572.64446  21625019.522    21625019.615    21625034.838
       226.000         170.000
 -30947915.92549 -24080531.67247  18394894.265    18394893.715    18394904.147
       235.000         203.000
 -30341838.70049 -23625979.47347  19034430.215    19034429.438    19034439.926
       240.000         202.000
 -12184294.14449  -9474226.72147  19373125.262    19373124.942    19373134.835
       242.000         205.000
   9342483.46949   7279277.32445  22147363.129    22147361.767    22147374.512
       222.000         161.000
  -6442313.44149  -4993244.77445  22209294.615    22209293.723    22209312.320
       211.000         151.000
  -8147284.47049  -6329398.30847  20547252.492    20547251.697    20547262.987
       239.000         194.000
  -3990555.86249  -3096204.69045  23371817.872    23371817.395    23371836.399
       206.000         147.000
 00  5  3 17 58 59.9940000  0  9G16G30G24G 5G 4G 7G10G 9G 6
  -3191569.11149  -2477054.19045  22759823.082    22759822.069    22759833.590
       215.000         160.000
 -11376792.58749  -8842881.15846  21601743.918    21601744.107    21601759.375
       225.000         169.000
 -30981444.37849 -24106657.74847  18388513.994    18388513.459    18388523.911
       235.000         202.000
 -30418613.86749 -23685804.24947  19019820.366    19019819.582    19019830.079
       241.000         202.000
 -12141200.58349  -9440647.38647  19381325.706    19381325.405    19381335.314
       240.000         204.000
   9387017.00449   7313978.59445  22155837.582    22155836.260    22155849.134
       213.000         156.000
  -6567631.11449  -5090894.72245  22185447.184    22185446.408    22185464.966
       210.000         153.000
  -8097114.40349  -6290304.90347  20556799.601    20556798.814    20556810.134
       238.000         194.000
  -4090520.53249  -3174099.18045  23352795.089    23352794.681    23352813.636
       210.000         141.000
 00  5  3 17 59 29.9940000  0  9G16G30G24G 5G 4G 7G10G 9G 6
  -3173057.86149  -2462629.86445  22763345.681    22763344.659    22763356.239
       216.000         160.000
 -11499012.17349  -8938117.07146  21578486.170    21578486.367    21578501.505
       226.000         167.000
 -31014464.07449 -24132387.39647  18382230.591    18382230.014    18382240.463
       235.000         203.000
 -30495042.46349 -23745358.98047  19005276.484    19005275.685    19005286.168
       241.000         202.000
 -12097741.02349  -9406782.86347  19389595.773    19389595.514    19389605.445
       241.000         204.000
   9431577.66849   7348701.11946  22164317.396    22164316.056    22164328.936
       219.000         163.000
  -6692941.62249  -5188539.10245  22161601.121    22161600.456    22161619.011
       214.000         147.000
  -8046634.07049  -6250969.73447  20566405.778    20566404.996    20566416.328
       238.000         193.000
  -4190466.22149  -3251978.85645  23333776.129    23333775.631    23333794.693
       210.000         146.000
 00  5  3 17 59 59.9940000  0  9G16G30G24G 5G 4G 7G10G 9G 6
  -3154033.68649  -2447805.87145  22766965.834    22766964.813    22766976.460
       212.000         159.000
 -11621124.95149  -9033269.72346  21555248.851    21555248.986    21555264.074
       228.000         171.000
 -31046964.00249 -24157712.02447  18376046.070    18376045.508    18376055.961
       235.000         203.000
 -30571110.80449 -23804632.99147  18990801.129    18990800.339    18990810.816
       240.000         202.000
 -12053906.58649  -9372626.22347  19397937.243    19397936.949    19397946.901
       240.000         202.000
   9476177.21949   7383453.81246  22172804.470    22172803.102    22172816.192
       222.000         165.000
  -6818230.29549  -5286166.44345  22137759.284    22137758.651    22137777.130
       216.000         152.000
  -7995834.80849  -6211386.04947  20576072.667    20576071.868    20576083.207
       237.000         193.000
  -4290381.51349  -3329834.86145  23314762.794    23314762.360    23314781.396
       206.000         146.000
 00  5  3 18  0 29.9930000  0  9G16G30G24G 5G 4G 7G10G 9G 6
  -3134494.02949  -2432580.21945  22770684.072    22770683.051    22770694.775
       213.000         159.000
 -11743120.15449  -9128330.78346  21532033.750    21532033.922    21532048.915
       223.000         164.000
 -31078939.28649 -24182627.84347  18369961.396    18369960.835    18369971.250
       235.000         202.000
 -30646809.98749 -23863619.34747  18976395.994    18976395.240    18976405.714
       240.000         203.000
 -12009696.91449  -9338177.19647  19406350.023    19406349.779    19406359.769
       240.000         202.000
   9520818.53549   7418239.08645  22181299.486    22181298.126    22181311.195
       217.000         154.000
  -6943485.47249  -5383767.69445  22113923.912    22113923.300    22113941.697
       215.000         152.000
  -7944716.35449  -6171553.64447  20585800.254    20585799.495    20585810.841
       238.000         193.000
  -4390258.73949  -3407661.19245  23295756.615    23295756.254    23295775.310
       208.000         146.000
 00  5  3 18  0 59.9930000  0  9G16G30G24G 5G 4G 7G10G 9G 6
  -3114445.62249  -2416958.12645  22774499.100    22774498.171    22774509.880
       215.000         160.000
 -11865010.64149  -9223310.23246  21508838.686    21508838.827    21508853.731
       227.000         172.000
 -31110399.73449 -24207142.48947  18363974.681    18363974.131    18363984.528
       235.000         202.000
 -30722149.67649 -23922325.57547  18962059.297    18962058.545    18962069.039
       241.000         203.000
 -11965118.32949  -9303440.70347  19414833.029    19414832.805    19414842.845
       240.000         202.000
   9565497.69249   7453053.92845  22189801.557    22189800.288    22189813.389
       217.000         155.000
  -7068719.12149  -5481352.15245  22090092.612    22090091.944    22090110.363
       216.000         151.000
  -7893284.93849  -6131477.37147  20595587.422    20595586.653    20595598.038
       237.000         193.000
  -4490111.46449  -3485468.42445  23276755.276    23276754.864    23276774.048
       209.000         144.000
 00  5  3 18  1 29.9930000  0  9G16G30G24G 5G 4G 7G10G 9G 6
  -3093890.09249  -2400940.87545  22778410.664    22778409.754    22778421.464
       217.000         159.000
 -11986790.18049  -9318203.23046  21485664.566    21485664.783    21485679.729
       227.000         167.000
 -31141344.30949 -24231255.16147  18358086.114    18358085.579    18358095.965
       235.000         202.000
 -30797125.07749 -23980747.94547  18947791.869    18947791.172    18947801.665
       240.000         202.000
 -11920174.59949  -9268419.68747  19423385.515    19423385.322    19423395.401
       240.000         202.000
   9610213.63049   7487897.35446  22198310.960    22198309.643    22198322.784
       221.000         167.000
  -7193923.79749  -5578914.07545  22066266.720    22066266.147    22066284.472
       213.000         152.000
  -7841544.51549  -6091160.32047  20605433.383    20605432.601    20605444.053
       237.000         192.000
  -4589935.94249  -3563253.70845  23257759.241    23257758.793    23257778.008
       213.000         147.000
 00  5  3 18  1 59.9930000  0  9G16G30G24G 5G 4G 7G10G 9G 6
  -3072813.10249  -2384517.26345  22782421.481    22782420.584    22782432.287
       216.000         159.000
 -12108440.86049  -9412995.82746  21462515.125    21462515.334    21462530.186
       224.000         171.000
 -31171758.33749 -24254954.41547  18352298.452    18352297.967    18352308.366
       235.000         202.000
 -30871718.61149 -24038872.75847  18933597.149    18933596.467    18933606.972
       240.000         202.000
 -11874852.71049  -9233103.99747  19432009.998    19432009.816    19432019.912
       240.000         202.000
   9654982.13749   7522781.72645  22206830.074    22206828.793    22206842.082
       211.000         152.000
  -7319081.03749  -5676439.00645  22042449.923    22042449.407    22042467.643
       214.000         155.000
  -7789482.79749  -6050592.89947  20615340.417    20615339.691    20615351.222
       235.000         192.000
  -4689716.85749  -3641004.97345  23238771.428    23238771.078    23238790.341
       210.000         148.000
 00  5  3 18  2 29.9930000  0  9G16G30G24G 5G 4G 7G10G 9G 6
  -3051233.89149  -2367702.32945  22786527.896    22786527.006    22786538.714
       213.000         159.000
 -12229978.28449  -9507700.16246  21439387.225    21439387.426    21439402.268
       226.000         170.000
 -31201660.18949 -24278254.57347  18346608.287    18346607.826    18346618.226
       235.000         201.000
 -30945946.10549 -24096712.34247  18919472.096    18919471.415    18919481.934
       239.000         203.000
 -11829173.20949  -9197509.64847  19440702.609    19440702.384    19440712.472
       240.000         202.000
   9699785.06949   7557692.96545  22215355.854    22215354.634    22215367.769
       223.000         158.000
  -7444205.17549  -5773938.14045  22018639.433    22018638.905    22018657.067
       213.000         148.000
  -7737120.28349  -6009791.08647  20625304.759    20625304.009    20625315.628
       236.000         191.000
  -4789472.07449  -3718736.20245  23219788.562    23219788.251    23219807.647
       212.000         149.000
 00  5  3 18  2 59.9930000  0  9G16G30G24G 5G 4G 7G10G 9G 6
  -3029148.64849  -2350493.13245  22790730.606    22790729.686    22790741.428
       215.000         160.000
 -12351395.60349  -9602310.90946  21416282.101    21416282.370    21416297.091
       227.000         169.000
 -31231045.65549 -24301152.35247  18341016.461    18341015.983    18341026.358
       235.000         202.000
 -31019800.64949 -24154261.31647  18905418.041    18905417.357    18905427.882
       240.000         203.000
 -11783133.58649  -9161634.68447  19449463.722    19449463.475    19449473.566
       240.000         202.000
   9744627.43649   7592635.01646  22223889.444    22223888.093    22223901.164
       219.000         165.000
  -7569288.24049  -5871405.26545  21994836.771    21994836.299    21994854.334
       214.000         156.000
  -7684455.01749  -5968753.37347  20635326.688    20635325.953    20635337.656
       236.000         191.000
  -4889196.61849  -3796443.59045  23200811.802    23200811.353    23200830.731
       215.000         146.000
 00  5  3 18  3 29.9930000  0  9G16G30G24G 5G 4G 7G10G 9G 6
  -3006549.28249  -2332883.30545  22795031.195    22795030.263    22795041.996
       216.000         161.000
 -12472680.85449  -9696818.75546  21393202.321    21393202.511    21393217.161
       224.000         170.000
 -31259905.98149 -24323640.93647  18335524.570    18335524.057    18335534.418
       235.000         202.000
 -31093270.79149 -24211510.75647  18891437.171    18891436.446    18891446.962
       241.000         203.000
 -11736726.89149  -9125473.68847  19458294.658    19458294.416    19458304.512
       240.000         202.000
   9789518.98549   7627615.19945  22232432.076    22232430.772    22232443.971
       216.000         162.000
  -7694317.81549  -5968830.69745  21971044.280    21971043.776    21971061.859
       215.000         153.000
  -7631480.14949  -5927474.40347  20645407.502    20645406.838    20645418.578
       235.000         191.000
  -4988881.21249  -3874119.81545  23181842.391    23181841.970    23181861.329
       215.000         154.000
 00  5  3 18  3 59.9930000  0  9G16G30G24G 5G 4G 7G10G 9G 6
  -2983452.36249  -2314885.75745  22799426.448    22799425.467    22799437.236
       215.000         160.000
 -12593847.50549  -9791234.17846  21370144.890    21370145.104    21370159.662
       227.000         169.000
 -31288256.99549 -24345732.65647  18330129.576    18330129.078    18330139.400
       235.000         201.000
 -31166369.51449 -24268470.78047  18877526.972    18877526.221    18877536.736
       240.000         204.000
 -11689970.98449  -9089040.58247  19467192.088    19467191.813    19467201.921
       240.000         202.000
   9834444.31949   7662621.83445  22240981.188    22240979.889    22240993.099
       220.000         154.000
  -7819305.76349  -6066223.69145  21947259.773    21947259.188    21947277.279
       219.000         155.000
  -7578213.69249  -5885968.23047  20655543.918    20655543.192    20655554.997
       235.000         191.000
  -5088541.24049  -3951776.90545  23162877.580    23162877.255    23162896.595
       213.000         150.000
 00  5  3 18  4 29.9930000  0  9G16G30G24G 5G 4G 7G10G 9G 6
  -2959858.50749  -2296500.97945  22803916.242    22803915.265    22803927.011
       213.000         152.000
 -12714892.52749  -9885554.82146  21347110.719    21347110.908    21347125.397
       223.000         169.000
 -31316098.84349 -24367427.61647  18324831.454    18324830.939    18324841.272
       234.000         201.000
 -31239094.20549 -24325139.35047  18863687.919    18863687.178    18863697.680
       241.000         204.000
 -11642867.49549  -9052336.63747  19476155.606    19476155.356    19476165.484
       241.000         201.000
   9879404.44049   7697655.60245  22249536.939    22249535.616    22249548.837
       218.000         157.000
  -7944248.03049  -6163581.09645  21923483.853    21923483.292    21923501.414
       216.000         154.000
  -7524657.51949  -5844236.30847  20665735.459    20665734.698    20665746.514
       236.000         191.000
  -5188176.02349  -4029414.29345  23143917.701    23143917.377    23143936.678
       216.000         151.000
 00  5  3 18  4 59.9930000  0  9G16G30G24G 5G 4G 7G10G 9G 6
  -2935764.58249  -2277726.55045  22808501.120    22808500.177    22808511.925
       212.000         155.000
 -12835809.17049  -9979775.44246  21324100.877    21324101.096    21324115.491
       227.000         169.000
 -31343427.76449 -24388722.89747  18319630.851    18319630.415    18319640.747
       234.000         201.000
 -31311438.72349 -24381511.68347  18849921.212    18849920.469    18849930.975
       240.000         204.000
 -11595414.73949  -9015360.52447  19485185.565    19485185.346    19485195.505
       239.000         201.000
   9924403.71449   7732719.83545  22258100.094    22258098.796    22258112.048
       211.000         154.000
  -8069137.34149  -6260897.20745  21899718.126    21899717.487    21899735.673
       220.000         155.000
  -7470810.44349  -5802277.71247  20675982.322    20675981.565    20675993.377
       236.000         191.000
  -5287781.12049  -4107028.60945  23124963.480    23124963.117    23124982.194
       213.000         150.000
 00  5  3 18  5 29.9930000  0  9G16G30G24G 5G 4G 7G10G 9G 6
  -2911160.68549  -2258554.76645  22813183.118    22813182.156    22813193.880
       214.000         158.000
 -12956583.65349 -10073885.27346  21301118.046    21301118.342    21301132.682
       227.000         171.000
 -31370232.76249 -24409609.92847  18314530.046    18314529.576    18314539.943
       234.000         201.000
 -31383389.17749 -24437576.95947  18836229.513    18836228.755    18836239.242
       240.000         204.000
 -11547603.63449  -8978105.18747  19494283.787    19494283.541    19494293.712
       240.000         201.000
   9969453.96649   7767823.71746  22266672.929    22266671.616    22266685.013
       225.000         170.000
  -8193958.85949  -6358160.51645  21875965.101    21875964.543    21875982.796
       213.000         157.000
  -7416663.30749  -5760085.31247  20686286.322    20686285.557    20686297.351
       236.000         190.000
  -5387344.86349  -4184610.66545  23106016.927    23106016.649    23106035.666
       213.000         147.000
 00  5  3 18  5 59.9930000  0  9G16G30G24G 5G 4G 7G10G 9G 6
  -2886064.68149  -2238999.51545  22817958.812    22817957.812    22817969.537
       213.000         155.000
 -13077230.31949 -10167895.49146  21278159.709    21278159.933    21278174.299
       225.000         170.000
 -31396531.60249 -24430102.55147  18309525.546    18309525.083    18309535.429
       234.000         200.000
 -31454960.37049 -24493346.70447  18822609.961    18822609.201    18822619.693
       240.000         204.000
 -11499453.34549  -8940585.55047  19503446.573    19503446.302    19503456.481
       240.000         201.000
  10014538.21949   7802954.18246  22275252.593    22275251.133    22275264.534
       222.000         168.000
  -8318726.08049  -6455381.55045  21852222.520    21852221.971    21852240.144
       219.000         159.000
  -7362235.41949  -5717674.14447  20696643.832    20696642.979    20696654.762
       235.000         190.000
  -5486884.04449  -4262173.58545  23087075.278    23087074.943    23087093.955
       214.000         151.000
 00  5  3 18  6 29.9930000  0  9G16G30G24G 5G 4G 7G10G 9G 6
  -2860479.58549  -2219063.17245  22822827.534    22822826.585    22822838.279
       211.000         150.000
 -13197749.06449 -10261806.07146  21255225.541    21255225.818    21255240.105
       226.000         170.000
 -31422326.80149 -24450202.72647  18304616.906    18304616.438    18304626.769
       234.000         201.000
 -31526152.05049 -24548820.72647  18809062.629    18809061.863    18809072.344
       239.000         203.000
 -11450968.41349  -8902805.14747  19512673.056    19512672.743    19512682.937
       240.000         202.000
  10059655.08249   7838109.98545  22283838.132    22283836.690    22283850.100
       215.000         155.000
  -8443437.37749  -6552558.99745  21828490.744    21828490.043    21828508.183
       215.000         154.000
  -7307531.86549  -5675048.17647  20707053.734    20707052.861    20707064.629
       235.000         190.000
  -5586400.61849  -4339718.89645  23068137.964    23068137.557    23068156.424
       212.000         149.000
 00  5  3 18  6 59.9930000  0  9G16G30G24G 5G 4G 7G10G 9G 6
  -2834387.21649  -2198731.54745  22827792.769    22827791.807    22827803.451
       211.000         147.000
 -13318117.17249 -10355599.25146  21232320.171    21232320.437    21232334.706
       227.000         173.000
 -31447598.96849 -24469895.34247  18299807.785    18299807.306    18299817.650
       234.000         200.000
 -31596942.10849 -24603981.80147  18795591.704    18795590.957    18795601.423
       239.000         203.000
 -11402131.20149  -8864750.24447  19521966.513    19521966.216    19521976.436
       240.000         202.000
  10104824.70649   7873306.92545  22292433.605    22292432.247    22292445.699
       217.000         157.000
  -8568069.56549  -6649674.76645  21804773.747    21804773.143    21804791.267
       217.000         156.000
  -7252535.22049  -5632193.82747  20717519.348    20717518.505    20717530.274
       234.000         189.000
  -5685874.64949  -4417231.01245  23049208.572    23049208.211    23049227.115
       215.000         153.000
 00  5  3 18  7 29.9930000  0  9G16G30G24G 5G 4G 7G10G 9G 6
  -2807803.55749  -2178017.06445  22832851.467    22832850.557    22832862.204
       213.000         152.000
 -13438347.70749 -10449285.22546  21209440.770    21209441.132    21209455.407
       227.000         171.000
 -31472363.92249 -24489192.72847  18295095.138    18295094.699    18295105.071
       233.000         201.000
 -31667343.52649 -24658840.03447  18782194.760    18782194.000    18782204.470
       240.000         203.000
 -11352959.09049  -8826434.38347  19531323.666    19531323.412    19531333.655
       240.000         202.000
  10150032.20149   7908533.38945  22301036.394    22301035.076    22301048.505
       219.000         159.000
  -8692634.36149  -6746738.02645  21781069.705    21781069.136    21781087.190
       215.000         156.000
  -7197263.25349  -5589124.94547  20728037.303    20728036.525    20728048.343
       235.000         190.000
  -5785321.09449  -4494721.68645  23030284.718    23030284.238    23030303.022
       219.000         153.000
 00  5  3 18  7 59.9930000  0  9G16G30G24G 5G 4G 7G10G 9G 6
  -2780707.47449  -2156903.31345  22838007.727    22838006.808    22838018.441
       214.000         154.000
 -13558415.65349 -10542844.52746  21186592.573    21186592.896    21186607.151
       227.000         174.000
 -31496600.02449 -24508078.02447  18290483.161    18290482.700    18290493.102
       234.000         200.000
 -31737331.74949 -24713376.30047  18768876.376    18768875.660    18768886.127
       240.000         203.000
 -11303432.30549  -8787842.14747  19540748.341    19540748.093    19540758.363
       241.000         202.000
  10195300.14249   7943806.99845  22309650.872    22309649.489    22309662.795
       220.000         161.000
  -8817106.05749  -6843728.75645  21757383.312    21757382.844    21757400.772
       218.000         156.000
  -7141696.48949  -5545826.34947  20738611.401    20738610.643    20738622.518
       235.000         188.000
  -5884717.36149  -4572173.26445  23011369.925    23011369.661    23011388.235
       215.000         148.000
 00  5  3 18  8 29.9930000  0  9G16G30G24G 5G 4G 7G10G 9G 6
  -2753124.95849  -2135410.53645  22843256.549    22843255.591    22843267.326
       212.000         153.000
 -13678343.09449 -10636294.33746  21163770.897    21163771.271    21163785.559
       226.000         171.000
 -31520332.23049 -24526570.67447  18285967.081    18285966.624    18285977.028
       234.000         200.000
 -31806929.09349 -24767607.98747  18755632.434    18755631.715    18755642.190
       240.000         203.000
 -11253577.45949  -8748994.28847  19550235.472    19550235.200    19550245.499
       240.000         202.000
  10240604.59149   7979109.00345  22318272.121    22318270.738    22318284.149
       215.000         159.000
  -8941506.08349  -6940663.62945  21733710.779    21733710.172    21733728.092
       213.000         156.000
  -7085861.89649  -5502319.04947  20749236.474    20749235.746    20749247.644
       233.000         188.000
  -5984087.66449  -4649604.54545  22992460.540    22992460.170    22992478.825
       218.000         159.000
 00  5  3 18  8 59.9930000  0  9G16G30G24G 5G 4G 7G10G 9G 6
  -2725056.15749  -2113538.84345  22848597.936    22848596.992    22848608.719
       210.000         152.000
 -13798126.51149 -10729631.89246  21140976.713    21140977.131    21140991.392
       226.000         172.000
 -31543560.26349 -24544670.46147  18281546.910    18281546.456    18281556.889
       233.000         200.000
 -31876132.23849 -24821532.49947  18742463.493    18742462.783    18742473.256
       239.000         203.000
 -11203395.93249  -8709891.86747  19559784.714    19559784.481    19559794.801
       241.000         202.000
  10285946.61449   8014440.24845  22326900.397    22326899.085    22326912.644
       214.000         154.000
  -9065829.60549  -7037538.90645  21710052.675    21710052.064    21710069.897
       216.000         157.000
  -7029760.99149  -5458604.23447  20759912.249    20759911.524    20759923.471
       234.000         189.000
  -6083430.79649  -4727014.67745  22973556.087    22973555.753    22973574.457
       212.000         153.000
 00  5  3 18  9 29.9930000  0  9G16G30G24G 5G 4G 7G10G 9G 6
  -2696502.42149  -2091289.30045  22854031.566    22854030.614    22854042.354
       210.000         148.000
 -13917763.30049 -10822855.24046  21118210.498    21118210.893    21118225.127
       227.000         173.000
 -31566284.94149 -24562378.02347  18277222.498    18277222.096    18277232.536
       233.000         199.000
 -31944938.92749 -24875148.09447  18729369.997    18729369.297    18729379.767
       240.000         203.000
 -11152890.14049  -8670536.77547  19569395.673    19569395.465    19569405.782
       240.000         201.000
  10331326.62649   8049801.10745  22335536.022    22335534.719    22335548.307
       216.000         155.000
  -9190073.11349  -7134351.83645  21686409.685    21686409.104    21686426.945
       217.000         158.000
  -6973396.30049  -5414683.87747  20770638.263    20770637.496    20770649.492
       234.000         188.000
  -6182746.79749  -4804403.73945  22954656.611    22954656.433    22954674.894
       212.000         144.000
 00  5  3 18  9 59.9930000  0  9G16G30G24G 5G 4G 7G10G 9G 6
  -2667454.62449  -2068654.72745  22859559.209    22859558.245    22859569.966
       213.000         149.000
 -14037240.90049 -10915954.51646  21095474.477    21095474.914    21095489.139
       228.000         174.000
 -31588496.43749 -24579685.70547  18272995.771    18272995.383    18273005.849
       233.000         199.000
 -32013336.63849 -24928445.00047  18716354.302    18716353.628    18716364.099
       240.000         204.000
 -11102051.73449  -8630922.50947  19579069.917    19579069.727    19579080.084
       239.000         201.000
  10376755.32849   8085199.91745  22344180.865    22344179.665    22344193.198
       219.000         156.000
  -9314222.80749  -7231091.68945  21662784.632    21662784.056    21662801.809
       216.000         156.000
  -6916760.19549  -5370552.04046  20781415.900    20781415.118    20781427.131
       234.000         187.000
  -6282024.81749  -4881763.09445  22935764.728    22935764.510    22935782.973
       217.000         159.000
 00  5  3 18 10 29.9930000  0  9G16G30G24G 5G 4G 7G10G 9G 6
  -2637901.32749  -2045626.24745  22865183.080    22865182.126    22865193.893
       212.000         147.000
 -14156543.59849 -11008917.53046  21072771.837    21072772.250    21072786.405
       228.000         172.000
 -31610182.55349 -24596583.99847  18268869.012    18268868.657    18268879.132
       234.000         200.000
 -32081310.16749 -24981411.37147  18703419.363    18703418.676    18703429.155
       240.000         204.000
 -11050870.35049  -8591040.98847  19588809.424    19588809.272    19588819.659
       240.000         201.000
  10422246.12949   8120647.13745  22352837.656    22352836.443    22352849.910
       218.000         157.000
  -9438262.09749  -7327745.49045  21639180.683    21639180.089    21639197.739
       214.000         155.000
  -6859842.16149  -5326200.51946  20792247.130    20792246.384    20792258.442
       234.000         187.000
  -6381252.08349  -4959082.88745  22916882.169    22916882.070    22916900.495
       216.000         154.000
 00  5  3 18 10 59.9930000  0  9G16G30G24G 5G 4G 7G10G 9G 6
  -2607865.07449  -2022221.44445  22870898.821    22870897.904    22870909.611
       213.000         147.000
 -14275690.09949 -11101758.81846  21050098.962    21050099.319    21050113.435
       228.000         176.000
 -31631365.45149 -24613090.17247  18264838.030    18264837.687    18264848.171
       233.000         199.000
 -32148878.90049 -25034062.31247  18690561.415    18690560.759    18690571.248
       240.000         204.000
 -10999369.77649  -8550910.74047  19598609.702    19598609.547    19598619.971
       240.000         201.000
  10467777.93749   8156126.29845  22361502.243    22361500.976    22361514.538
       216.000         156.000
  -9562209.22049  -7424327.49045  21615593.928    21615593.542    21615611.061
       215.000         154.000
  -6802666.37149  -5281648.14946  20803127.449    20803126.724    20803138.800
       233.000         187.000
  -6480449.65549  -5036379.54145  22898005.372    22898005.262    22898023.841
       213.000         150.000
 00  5  3 18 11 29.9930000  0  9G16G30G24G 5G 4G 7G10G 9G 6
  -2577353.34049  -1998446.14145  22876705.035    22876704.115    22876715.876
       210.000         146.000
 -14394684.07849 -11194481.25646  21027454.923    21027455.373    21027469.466
       228.000         173.000
 -31652051.76349 -24629209.39547  18260901.539    18260901.208    18260911.704
       233.000         199.000
 -32216046.22949 -25086400.47447  18677779.870    18677779.232    18677789.709
       240.000         204.000
 -10947558.04849  -8510538.04347  19608469.148    19608469.035    19608479.470
       239.000         200.000
  10513345.03949   8191632.95245  22370173.419    22370172.188    22370185.831
       213.000         153.000
  -9686066.50049  -7520839.45945  21592024.500    21592024.114    21592041.627
       217.000         156.000
  -6745241.53649  -5236901.70546  20814055.173    20814054.426    20814066.524
       234.000         186.000
  -6579623.27049  -5113657.52445  22879132.934    22879133.009    22879151.653
       208.000         150.000
 00  5  3 18 11 59.9930000  0  9G16G30G24G 5G 4G 7G10G 9G 6
  -2546335.63749  -1974276.56645  22882607.539    22882606.653    22882618.428
       208.000         147.000
 -14513491.33949 -11287058.21946  21004846.698    21004847.067    21004861.077
       228.000         176.000
 -31672210.56149 -24644917.57147  18257065.485    18257065.111    18257075.640
       233.000         199.000
 -32282778.70249 -25138399.78647  18665081.078    18665080.455    18665090.912
       239.000         204.000
 -10895406.00449  -8469900.16147  19618393.380    19618393.276    19618403.748
       239.000         199.000
  10558979.52649   8227192.13245  22378857.500    22378856.261    22378869.977
       217.000         160.000
  -9809798.71749  -7617254.01445  21568478.783    21568478.419    21568495.839
       212.000         151.000
  -6687538.53749  -5191938.52046  20825035.841    20825035.077    20825047.211
       233.000         186.000
  -6678741.06749  -5190892.07345  22860271.424    22860271.478    22860290.014
       213.000         153.000
 00  5  3 18 12 29.9930000  0  9G16G30G24G 5G 4G 7G10G 9G 6
  -2514851.98549  -1949743.93945  22888598.672    22888597.853    22888609.645
       206.000         145.000
 -14632147.83349 -11379517.68246  20982266.968    20982267.339    20982281.353
       230.000         176.000
 -31691881.29449 -24660245.42947  18253322.253    18253321.912    18253332.419
       233.000         199.000
 -32349112.62549 -25190088.54147  18652458.152    18652457.528    18652467.955
       240.000         203.000
 -10842954.54249  -8429028.96147  19628374.588    19628374.513    19628384.998
       239.000         200.000
  10604643.23449   8262774.04145  22387547.070    22387545.895    22387559.725
       215.000         160.000
  -9933441.04249  -7713598.49745  21544950.279    21544949.909    21544967.375
       213.000         155.000
  -6629598.65649  -5146790.79246  20836061.561    20836060.807    20836072.963
       233.000         185.000
  -6777841.44349  -5268113.01145  22841413.132    22841413.222    22841431.709
       211.000         151.000
 00  5  3 18 12 59.9930000  0  9G16G30G24G 5G 4G 7G10G 9G 6
  -2482869.14349  -1924822.32245  22894684.907    22894683.985    22894695.885
       207.000         146.000
 -14750615.94349 -11471830.36246  20959723.181    20959723.529    20959737.499
       229.000         179.000
 -31711029.61149 -24675166.22047  18249678.482    18249678.130    18249688.633
       233.000         199.000
 -32415011.12749 -25241438.00947  18639918.100    18639917.464    18639927.864
       240.000         204.000
 -10790170.83549  -8387898.88447  19638419.047    19638418.963    19638429.463
       239.000         199.000
  10650371.45449   8298406.16745  22396248.992    22396247.787    22396261.686
       212.000         154.000
 -10056954.90949  -7809842.89745  21521446.164    21521445.812    21521463.266
       209.000         153.000
  -6571389.24449  -5101432.98246  20847138.604    20847137.830    20847150.024
       233.000         185.000
  -6876889.18049  -5345292.89145  22822564.982    22822564.964    22822583.530
       215.000         156.000
